[[{"header":{"parameterUnit":"m.s-1","parameterCategory":1,"la1":30.6,"la2":28.766,"lo1":-90.7593,"lo2":-88.6598,"dy":0.0162,"dx":0.0183,"nx":116,"ny":114,"refTime":"2023-04-14T00:00:00:Z","depth":0,"parameterNumber":2,"parameterNumberName":"U-component_of_WINDS"},"data":[0.0,0.0,0.0,0.0,0.0,0.0,0.0,0.0,0.0,0.0,0.0,0.0,0.0,0.0,0.0,0.0,0.0,0.0,0.0,0.0,0.0,0.0,0.0,0.0,0.0,0.0,0.0,0.0,0.0,0.0,0.0,0.0,0.0,0.0,0.0,0.0,0.0,0.0,0.0,0.0,0.0,0.0,0.0,0.0,0.0,0.0,0.0,0.0,0.0,0.0,0.0,0.0,0.0,0.0,0.0,0.0,0.0,0.0,0.0,0.0,0.0,0.0,0.0,0.0,0.0,0.0,0.0,0.0,0.0,0.0,0.0,0.0,0.0,0.0,0.0,0.0,0.0,0.0,0.0,0.0,0.0,0.0,0.0,0.0,0.0,0.0,0.0,0.0,0.0,0.0,0.0,0.0,0.0,0.0,0.0,0.0,0.0,0.0,0.0,0.0,0.0,0.0,0.0,0.0,0.0,0.0,0.0,0.0,0.0,0.0,0.0,0.0,0.0,0.0,0.0,0.0,0.0,0.0,0.0,0.0,0.0,0.0,0.0,0.0,0.0,0.0,0.0,0.0,0.0,0.0,0.0,0.0,0.0,0.0,0.0,0.0,0.0,0.0,0.0,0.0,0.0,0.0,0.0,0.0,0.0,0.0,0.0,0.0,0.0,0.0,0.0,0.0,0.0,0.0,0.0,0.0,0.0,0.0,0.0,0.0,0.0,0.0,0.0,0.0,0.0,0.0,0.0,0.0,0.0,0.0,0.0,0.0,0.0,0.0,0.0,0.0,0.0,0.0,0.0,0.0,0.0,0.0,0.0,0.0,0.0,0.0,0.0,0.0,0.0,0.0,0.0,0.0,0.0,0.0,0.0,0.0,0.0,0.0,0.0,0.0,0.0,0.0,0.0,0.0,0.0,0.0,0.0,0.0,0.0,0.0,0.0,0.0,0.0,0.0,0.0,0.0,0.0,0.0,0.0,0.0,0.0,0.0,0.0,0.0,0.0,0.0,0.0,0.0,0.0,0.0,0.0,0.0,0.0,0.0,0.0,0.0,0.0,0.0,0.0,0.0,0.0,0.0,0.0,0.0,0.0,0.0,0.0,0.0,0.0,0.0,0.0,0.0,0.0,0.0,0.0,0.0,0.0,0.0,0.0,0.0,0.0,0.0,0.0,0.0,0.0,0.0,0.0,0.0,0.0,0.0,0.0,0.0,0.0,0.0,0.0,0.0,0.0,0.0,0.0,0.0,0.0,0.0,0.0,0.0,0.0,0.0,0.0,0.0,0.0,0.0,0.0,0.0,0.0,0.0,0.0,0.0,0.0,0.0,0.0,0.0,0.0,0.0,0.0,0.0,0.0,0.0,0.0,0.0,0.0,0.0,0.0,0.0,0.0,0.0,0.0,0.0,0.0,0.0,0.0,0.0,0.0,0.0,0.0,0.0,0.0,0.0,0.0,0.0,0.0,0.0,0.0,0.0,0.0,0.0,0.0,0.0,0.0,0.0,0.0,0.0,0.0,0.0,0.0,0.0,0.0,0.0,0.0,0.0,0.0,0.0,0.0,0.0,0.0,0.0,0.0,0.0,0.0,0.0,0.0,0.0,0.0,0.0,0.0,0.0,0.0,0.0,0.0,0.0,0.0,0.0,0.0,0.0,0.0,0.0,0.0,0.0,0.0,0.0,0.0,0.0,0.0,0.0,0.0,0.0,0.0,0.0,0.0,0.0,0.0,0.0,0.0,0.0,0.0,0.0,0.0,0.0,0.0,0.0,0.0,0.0,0.0,0.0,0.0,0.0,0.0,0.0,0.0,0.0,0.0,0.0,0.0,0.0,0.0,0.0,0.0,0.0,0.0,0.0,0.0,0.0,0.0,0.0,0.0,0.0,0.0,0.0,0.0,0.0,0.0,0.0,0.0,0.0,0.0,0.0,0.0,0.0,0.0,0.0,0.0,0.0,0.0,0.0,0.0,0.0,0.0,0.0,0.0,0.0,0.0,0.0,0.0,0.0,0.0,0.0,0.0,0.0,0.0,0.0,0.0,0.0,0.0,0.0,0.0,0.0,0.0,0.0,0.0,0.0,0.0,0.0,0.0,0.0,0.0,0.0,0.0,0.0,0.0,0.0,0.0,0.0,0.0,0.0,0.0,0.0,0.0,0.0,0.0,0.0,0.0,0.0,0.0,0.0,0.0,0.0,0.0,0.0,0.0,0.0,0.0,0.0,0.0,0.0,0.0,0.0,0.0,0.0,0.0,0.0,0.0,0.0,0.0,0.0,0.0,0.0,0.0,0.0,0.0,0.0,0.0,0.0,0.0,0.0,0.0,0.0,0.0,0.0,0.0,0.0,0.0,0.0,0.0,0.0,0.0,0.0,0.0,0.0,0.0,0.0,0.0,0.0,0.0,0.0,0.0,0.0,0.0,0.0,0.0,0.0,0.0,0.0,0.0,0.0,0.0,0.0,0.0,0.0,0.0,0.0,0.0,0.0,0.0,0.0,0.0,0.0,0.0,0.0,0.0,0.0,0.0,0.0,0.0,0.0,0.0,0.0,0.0,0.0,0.0,0.0,0.0,0.0,0.0,0.0,0.0,0.0,0.0,0.0,0.0,0.0,0.0,0.0,0.0,0.0,0.0,0.0,0.0,0.0,0.0,0.0,0.0,0.0,0.0,0.0,0.0,0.0,0.0,0.0,0.0,0.0,0.0,0.0,0.0,0.0,0.0,0.0,0.0,0.0,0.0,0.0,0.0,0.0,0.0,0.0,0.0,0.0,0.0,0.0,0.0,0.0,0.0,0.0,0.0,0.0,0.0,0.0,0.0,0.0,0.0,0.0,0.0,0.0,0.0,0.0,0.0,0.0,0.0,0.0,0.0,0.0,0.0,0.0,0.0,0.0,0.0,0.0,0.0,0.0,0.0,0.0,0.0,0.0,0.0,0.0,0.0,0.0,0.0,0.0,0.0,0.0,0.0,0.0,0.0,0.0,0.0,0.0,0.0,0.0,0.0,0.0,0.0,0.0,0.0,0.0,0.0,0.0,0.0,0.0,0.0,0.0,0.0,0.0,0.0,0.0,0.0,0.0,0.0,0.0,0.0,0.0,0.0,0.0,0.0,0.0,0.0,0.0,0.0,0.0,0.0,0.0,0.0,0.0,0.0,0.0,0.0,0.0,0.0,0.0,0.0,0.0,0.0,0.0,0.0,0.0,0.0,0.0,0.0,0.0,0.0,0.0,0.0,0.0,0.0,0.0,0.0,0.0,0.0,0.0,0.0,0.0,0.0,0.0,0.0,0.0,0.0,0.0,0.0,0.0,0.0,0.0,0.0,0.0,0.0,0.0,0.0,0.0,0.0,0.0,0.0,0.0,0.0,0.0,0.0,0.0,0.0,0.0,0.0,0.0,0.0,0.0,0.0,0.0,0.0,0.0,0.0,0.0,0.0,0.0,0.0,0.0,0.0,0.0,0.0,0.0,0.0,0.0,0.0,0.0,0.0,0.0,0.0,0.0,0.0,0.0,0.0,0.0,0.0,0.0,0.0,0.0,0.0,0.0,0.0,0.0,0.0,0.0,0.0,0.0,0.0,0.0,0.0,0.0,0.0,0.0,0.0,0.0,0.0,0.0,0.0,0.0,0.0,0.0,0.0,0.0,0.0,0.0,0.0,0.0,0.0,0.0,0.0,0.0,0.0,0.0,0.0,0.0,0.0,0.0,0.0,0.0,0.0,0.0,0.0,0.0,0.0,0.0,0.0,0.0,0.0,0.0,0.0,0.0,0.0,0.0,0.0,0.0,0.0,0.0,0.0,0.0,0.0,0.0,0.0,0.0,0.0,0.0,0.0,0.0,0.0,0.0,0.0,0.0,0.0,0.0,0.0,0.0,0.0,0.0,0.0,0.0,0.0,0.0,0.0,0.0,0.0,0.0,0.0,0.0,0.0,0.0,0.0,0.0,0.0,0.0,0.0,0.0,0.0,0.0,0.0,0.0,0.0,0.0,0.0,0.0,0.0,0.0,0.0,0.0,0.0,0.0,0.0,0.0,0.0,0.0,0.0,0.0,0.0,0.0,0.0,0.0,0.0,0.0,0.0,0.0,0.0,0.0,0.0,0.0,0.0,0.0,0.0,0.0,0.0,0.0,0.0,0.0,0.0,0.0,0.0,0.0,0.0,0.0,0.0,0.0,0.0,0.0,0.0,0.0,0.0,0.0,0.0,0.0,0.0,0.0,0.0,0.0,0.0,0.0,0.0,0.0,0.0,0.0,0.0,0.0,0.0,0.0,0.0,0.0,0.0,0.0,0.0,0.0,0.0,0.0,0.0,0.0,0.0,0.0,0.0,0.0,0.0,0.0,0.0,0.0,0.0,0.0,0.0,0.0,0.0,0.0,0.0,0.0,0.0,0.0,0.0,0.0,0.0,0.0,0.0,0.0,0.0,0.0,0.0,0.0,0.0,0.0,0.0,0.0,0.0,0.0,0.0,0.0,0.0,0.0,0.0,0.0,0.0,0.0,0.0,0.0,0.0,0.0,0.0,0.0,0.0,0.0,0.0,0.0,0.0,0.0,0.0,0.0,0.0,0.0,0.0,0.0,0.0,0.0,0.0,0.0,0.0,0.0,0.0,0.0,0.0,0.0,0.0,0.0,0.0,0.0,0.0,0.0,0.0,0.0,0.0,0.0,0.0,0.0,0.0,0.0,0.0,0.0,0.0,0.0,0.0,0.0,0.0,0.0,0.0,0.0,0.0,0.0,0.0,0.0,0.0,0.0,0.0,0.0,0.0,0.0,0.0,0.0,0.0,0.0,0.0,0.0,0.0,0.0,0.0,0.0,0.0,0.0,0.0,0.0,0.0,0.0,0.0,0.0,0.0,0.0,0.0,0.0,0.0,0.0,0.0,0.0,0.0,0.0,0.0,0.0,0.0,0.0,0.0,0.0,0.0,0.0,0.0,0.0,0.0,0.0,0.0,0.0,0.0,0.0,0.0,0.0,0.0,0.0,0.0,0.0,0.0,0.0,0.0,0.0,0.0,0.0,0.0,0.0,0.0,0.0,0.0,0.0,0.0,0.0,0.0,0.0,0.0,0.0,0.0,0.0,0.0,0.0,0.0,0.0,0.0,0.0,0.0,0.0,0.0,0.0,0.0,0.0,0.0,0.0,0.0,0.0,0.0,0.0,0.0,0.0,0.0,0.0,0.0,0.0,0.0,0.0,0.0,0.0,0.0,0.0,0.0,0.0,0.0,0.0,0.0,0.0,0.0,0.0,0.0,0.0,0.0,0.0,0.0,0.0,0.0,0.0,0.0,0.0,0.0,0.0,0.0,0.0,0.0,0.0,0.0,0.0,0.0,0.0,0.0,0.0,0.0,0.0,0.0,0.0,0.0,0.0,0.0,0.0,0.0,0.0,0.0,0.0,0.0,0.0,0.0,0.0,0.0,0.0,0.0,0.0,0.0,0.0,0.0,0.0,0.0,0.0,0.0,0.0,0.0,0.0,0.0,0.0,0.0,0.0,0.0,0.0,0.0,0.0,0.0,0.0,0.0,0.0,0.0,0.0,0.0,0.0,0.0,0.0,0.0,0.0,0.0,0.0,0.0,0.0,0.0,0.0,0.0,0.0,0.0,0.0,0.0,0.0,0.0,0.0,0.0,0.0,0.0,0.0,0.0,0.0,0.0,0.0,0.0,0.0,0.0,0.0,0.0,0.0,0.0,0.0,0.0,0.0,0.0,0.0,0.0,0.0,0.0,0.0,0.0,0.0,0.0,0.0,0.0,0.0,0.0,0.0,0.0,0.0,0.0,0.0,0.0,0.0,0.0,0.0,0.0,0.0,0.0,0.0,0.0,0.0,0.0,0.0,0.0,0.0,0.0,0.0,0.0,0.0,0.0,0.0,0.0,0.0,0.0,0.0,0.0,0.0,0.0,0.0,0.0,0.0,0.0,0.0,0.0,0.0,0.0,0.0,0.0,0.0,0.0,0.0,0.0,0.0,0.0,0.0,0.0,0.0,0.0,0.0,0.0,0.0,0.0,0.0,0.0,0.0,0.0,0.0,0.0,0.0,0.0,0.0,0.0,0.0,0.0,0.0,0.0,0.0,0.0,0.0,0.0,0.0,0.0,0.0,-1.1177,0.0,0.0,0.0,0.0,0.0,0.0,0.0,0.0,0.0,0.0,0.0,0.0,0.0,0.0,0.0,0.0,0.0,0.0,0.0,0.0,0.0,0.0,0.0,0.0,0.0,0.0,0.0,0.0,0.0,0.0,0.0,0.0,0.0,0.0,0.0,0.0,0.0,0.0,-1.9374,-1.8293,-1.779,-1.7897,-1.883,-1.8929,-1.8349,0.0,0.0,0.0,0.0,0.0,0.0,0.0,0.0,0.0,0.0,0.0,0.0,0.0,0.0,0.0,0.0,0.0,0.0,0.0,0.0,0.0,0.0,0.0,0.0,0.0,0.0,0.0,0.0,0.0,0.0,0.0,0.0,0.0,0.0,0.0,0.0,0.0,0.0,0.0,0.0,0.0,0.0,0.0,0.0,0.0,0.0,0.0,0.0,0.0,0.0,0.0,0.0,0.0,0.0,0.0,0.0,0.0,0.0,0.0,0.0,0.0,0.0,0.0,0.0,0.0,0.0,0.0,0.0,0.0,0.0,0.0,-1.1097,0.0,0.0,0.0,0.0,0.0,0.0,0.0,0.0,0.0,0.0,0.0,0.0,0.0,0.0,0.0,0.0,0.0,0.0,0.0,0.0,0.0,0.0,0.0,-1.8841,-1.8588,-1.8152,-1.7623,-1.7303,0.0,0.0,0.0,0.0,0.0,0.0,-1.9722,-1.9302,-1.902,-1.8936,-1.7496,-1.7168,-1.7915,-1.9211,-1.9193,-1.8137,-1.9126,0.0,0.0,0.0,0.0,0.0,0.0,0.0,0.0,0.0,0.0,0.0,0.0,0.0,0.0,0.0,0.0,0.0,0.0,0.0,0.0,0.0,0.0,0.0,0.0,0.0,0.0,0.0,0.0,0.0,0.0,0.0,0.0,0.0,0.0,0.0,0.0,0.0,0.0,0.0,0.0,0.0,0.0,0.0,0.0,0.0,0.0,0.0,0.0,0.0,0.0,0.0,0.0,0.0,0.0,0.0,0.0,0.0,0.0,0.0,0.0,0.0,0.0,0.0,0.0,-1.316,-1.3559,-1.3701,-1.3507,-1.3171,-1.2358,-1.173,-1.1236,0.0,0.0,0.0,0.0,0.0,0.0,0.0,0.0,0.0,0.0,0.0,0.0,0.0,0.0,0.0,0.0,0.0,0.0,0.0,0.0,-1.8968,-1.8893,-1.8549,-1.8262,-1.8176,-1.7681,-1.7397,-1.7397,0.0,0.0,0.0,0.0,0.0,-1.903,-1.9485,-1.937,-1.8769,-1.8525,-1.875,-1.9463,-2.0336,-2.0563,-2.0178,-2.0157,-2.072,-2.1666,0.0,0.0,0.0,0.0,0.0,0.0,0.0,0.0,0.0,0.0,0.0,0.0,0.0,0.0,0.0,0.0,0.0,0.0,0.0,0.0,0.0,0.0,0.0,0.0,0.0,0.0,0.0,0.0,0.0,0.0,0.0,0.0,0.0,0.0,0.0,0.0,0.0,0.0,0.0,0.0,0.0,-1.4368,-1.4195,0.0,0.0,0.0,0.0,0.0,0.0,0.0,0.0,0.0,0.0,0.0,0.0,0.0,0.0,-1.2799,-1.2879,-1.2979,-1.3093,-1.3387,-1.3567,-1.3654,-1.3908,-1.4262,-1.4663,-1.4549,0.0,-1.2091,-1.1617,0.0,0.0,0.0,0.0,0.0,0.0,0.0,0.0,0.0,0.0,0.0,0.0,0.0,0.0,0.0,0.0,0.0,0.0,0.0,0.0,0.0,-1.8852,-1.9087,-1.9127,-2.0332,-2.0426,-1.8844,-1.9622,0.0,0.0,-1.8888,-1.9289,-1.9946,-1.9832,-1.9485,-1.8806,-1.9574,-2.0087,-2.0236,-2.132,-2.1974,-2.2428,-2.2281,-2.2608,-2.3169,-2.2022,0.0,0.0,0.0,0.0,0.0,0.0,0.0,0.0,0.0,0.0,0.0,0.0,0.0,0.0,0.0,0.0,0.0,0.0,0.0,0.0,0.0,0.0,0.0,0.0,0.0,0.0,0.0,0.0,0.0,0.0,0.0,0.0,0.0,0.0,0.0,0.0,0.0,0.0,0.0,-1.4827,-1.4404,-1.3745,-1.3531,-1.3373,0.0,0.0,0.0,0.0,0.0,0.0,0.0,0.0,0.0,-1.2619,-1.3066,-1.3353,-1.3454,-1.3781,-1.4115,-1.4442,-1.4903,-1.5297,-1.5625,-1.5919,-1.6192,-1.644,-1.644,-1.5899,-1.4943,-1.3861,-1.3273,-1.3046,0.0,0.0,0.0,0.0,0.0,-1.312,0.0,0.0,0.0,0.0,0.0,0.0,0.0,0.0,0.0,0.0,0.0,0.0,-1.8596,-1.9595,-2.0425,-2.0857,-2.2786,-2.3113,-2.1016,-2.138,-2.1132,-1.9986,-1.9339,-1.9495,-2.0534,-2.0169,-1.9849,-1.9597,-2.0731,-2.1338,-2.1582,-2.2773,-2.374,-2.4463,-2.457,-2.4642,-2.4476,-2.342,-2.2919,-2.2731,0.0,0.0,0.0,0.0,0.0,0.0,0.0,0.0,0.0,0.0,0.0,0.0,0.0,0.0,0.0,0.0,0.0,0.0,0.0,0.0,0.0,0.0,0.0,0.0,0.0,0.0,0.0,0.0,0.0,0.0,0.0,0.0,0.0,0.0,0.0,0.0,0.0,-1.4664,-1.4128,-1.317,-1.2998,-1.2916,0.0,0.0,0.0,0.0,0.0,0.0,-1.3166,-1.3561,-1.3834,-1.3988,-1.4489,-1.4723,-1.4649,-1.5084,-1.5565,-1.6079,-1.6513,-1.6987,-1.7502,-1.7716,-1.7816,-1.7816,-1.7816,-1.7649,-1.7268,-1.5792,-1.4843,-1.4315,-1.4315,-1.4222,-1.4108,-1.4255,-1.4355,-1.4442,0.0,0.0,0.0,0.0,0.0,0.0,0.0,0.0,0.0,0.0,0.0,-1.7959,-1.9533,-2.0731,-2.2078,-2.3653,-2.3916,-2.3941,-2.3803,-2.1368,-1.9874,-1.9812,-1.9309,-1.9296,-1.9837,-2.0216,-2.0749,-2.1569,-2.179,-2.2617,-2.4248,-2.5146,-2.582,-2.6279,-2.668,-2.6348,-2.5467,-2.3369,-2.2774,-2.2908,-2.078,0.0,0.0,0.0,0.0,0.0,0.0,0.0,0.0,0.0,0.0,0.0,0.0,0.0,0.0,0.0,0.0,0.0,0.0,0.0,0.0,0.0,0.0,0.0,0.0,0.0,0.0,0.0,0.0,0.0,0.0,0.0,0.0,0.0,0.0,0.0,0.0,0.0,0.0,-1.2555,-1.2912,0.0,0.0,0.0,0.0,-1.3492,-1.4062,-1.4382,-1.4429,-1.497,-1.5545,-1.6099,-1.6413,-1.6834,-1.7375,-1.7415,-1.7589,-1.7909,-1.7923,-1.8103,-1.8424,-1.8437,-1.8444,-1.8444,-1.8444,-1.8277,-1.7889,-1.64,-1.5925,-1.6059,-1.5237,-1.5077,-1.5277,-1.5017,-1.5097,-1.5297,0.0,0.0,0.0,0.0,0.0,0.0,0.0,0.0,-1.8922,-1.8913,-1.8906,-1.9439,-2.073,-2.2829,-2.4669,-2.6,-2.7733,-2.8009,-2.6226,-2.4845,-2.3452,-2.2008,-2.0752,-2.0382,-2.0876,-2.0565,-2.1083,-2.2577,-2.3521,-2.4394,-2.5283,-2.6152,-2.6797,-2.7217,-2.7363,-2.7412,-2.7246,-2.5078,-2.4175,-2.4054,-2.197,-2.0864,0.0,0.0,0.0,0.0,0.0,0.0,0.0,0.0,0.0,0.0,0.0,0.0,0.0,0.0,0.0,0.0,0.0,0.0,0.0,0.0,0.0,0.0,0.0,0.0,0.0,0.0,0.0,0.0,0.0,0.0,0.0,0.0,0.0,0.0,0.0,0.0,0.0,-1.4668,-1.4614,0.0,-1.4462,-1.4476,-1.4569,-1.4756,-1.5137,-1.5611,-1.6179,-1.6587,-1.7081,-1.7682,-1.7802,-1.7956,-1.8163,-1.817,-1.8223,-1.8337,-1.8711,-1.8945,-1.9065,-1.9446,-1.9613,-1.9599,-1.9412,-1.9272,-1.9105,-1.8196,-1.7542,-1.7088,-1.6774,-1.6714,-1.6794,-1.6687,-1.684,-1.7088,0.0,0.0,0.0,0.0,0.0,0.0,0.0,0.0,-1.8638,-1.8644,-1.9171,-2.0105,-2.1625,-2.423,-2.649,-2.7996,-2.9616,-2.9704,-2.7695,-2.6163,-2.4682,-2.314,-2.1897,-2.1404,-2.1747,-2.1771,-2.2426,-2.3695,-2.4937,-2.5742,-2.6182,-2.6904,-2.7393,-2.7676,-2.7812,-2.8115,-2.8398,-2.6826,-2.569,-2.4753,-2.3023,-2.208,-2.1688,0.0,0.0,0.0,0.0,0.0,0.0,0.0,0.0,0.0,0.0,0.0,0.0,0.0,0.0,0.0,0.0,0.0,0.0,0.0,0.0,0.0,0.0,0.0,0.0,0.0,0.0,0.0,0.0,0.0,0.0,0.0,0.0,0.0,0.0,0.0,-1.5061,-1.581,-1.5835,-1.5879,-1.5979,-1.5905,-1.5972,-1.6266,-1.6653,-1.7174,-1.7862,-1.817,-1.8557,-1.9065,-1.9078,-1.9078,-1.9078,-1.9078,-1.9078,-1.9085,-1.9472,-1.9659,-1.9673,-2.0054,-2.0234,-2.0221,-2.0034,-1.9947,-1.9913,-1.9526,-1.9018,-1.8437,-1.8043,-1.7889,-1.7889,-1.7889,-1.8023,-1.8196,0.0,0.0,0.0,0.0,0.0,0.0,-1.969,-1.8779,-1.8106,-1.812,-1.8682,-1.9936,-2.2121,-2.4858,-2.7419,-2.9628,-2.9252,-2.8674,-2.8134,-2.4971,-2.3053,-2.3078,-2.2519,-2.2317,-2.2363,-2.3654,-2.4632,-2.5088,-2.5986,-2.6631,-2.7041,-2.748,-2.7695,-2.7725,-2.8135,-2.8555,-2.8926,-2.8506,-2.7129,-2.5117,-2.3779,-2.3717,-2.4176,0.0,0.0,0.0,0.0,0.0,0.0,0.0,0.0,0.0,0.0,0.0,0.0,0.0,0.0,0.0,0.0,0.0,0.0,0.0,0.0,0.0,0.0,0.0,0.0,0.0,0.0,0.0,0.0,0.0,0.0,0.0,0.0,0.0,-1.4208,-1.4664,-1.5231,-1.5825,-1.6426,-1.6901,-1.7188,-1.7482,-1.7776,-1.8083,-1.8637,-1.9092,-1.9392,-1.9673,-1.9953,-2.0234,-2.0247,-2.0241,-2.0234,-2.0234,-2.0234,-2.0234,-2.0241,-2.0247,-2.0247,-2.0254,-2.0261,-2.0261,-2.0254,-2.0247,-2.0247,-2.0234,-2.0234,-2.012,-1.8978,-1.8531,-1.8531,-1.8517,-1.8517,-1.8517,0.0,0.0,0.0,0.0,0.0,0.0,-1.969,-1.8779,-1.8258,-1.8618,-1.9911,-2.1506,-2.3339,-2.6364,-2.8825,-3.0269,-2.9126,-2.8273,-2.8109,-2.4607,-2.2711,-2.3053,-2.1733,-2.2069,-2.4526,-2.3907,-2.4206,-2.5557,-2.6738,-2.7373,-2.75,-2.792,-2.8281,-2.8574,-2.8701,-2.915,-2.9824,-2.9394,-2.9053,-2.8564,-2.6045,-2.4732,-2.4297,0.0,0.0,0.0,0.0,0.0,0.0,0.0,0.0,0.0,0.0,0.0,0.0,0.0,0.0,0.0,0.0,0.0,0.0,0.0,0.0,0.0,0.0,0.0,0.0,0.0,0.0,0.0,0.0,0.0,0.0,0.0,0.0,-1.4757,-1.5053,-1.5568,-1.6286,-1.7295,-1.8136,-1.8664,-1.8751,-1.9018,-1.9225,-1.9312,-1.9659,-2.0,-2.0301,-2.0394,-2.0474,-2.0548,-2.0555,-2.0454,-2.0234,-2.0234,-2.0234,-2.0234,-2.0454,-2.0555,-2.0561,-2.0768,-2.0869,-2.0855,-2.0648,-2.0555,-2.0535,-2.0321,-2.0234,-2.018,-1.9646,-1.9439,-1.9412,-1.9205,-1.9125,-1.9158,0.0,0.0,0.0,0.0,0.0,0.0,-1.969,-1.8779,-1.823,-1.8535,-2.0276,-2.1945,-2.3163,-2.6038,-2.8059,-2.8473,-2.762,-2.6666,-2.5737,-2.4004,-2.3008,-2.3079,-2.3206,-2.3925,-2.529,-2.5289,-2.5625,-2.6269,-2.7383,-2.793,-2.7939,-2.8359,-2.8682,-2.8926,-2.9111,-2.957,-3.0176,-2.9932,-2.9971,-3.0049,-2.8301,-2.7295,-2.6712,-2.5075,-2.4297,-2.4037,-2.3752,-2.3515,-2.3172,-2.2735,0.0,0.0,0.0,0.0,0.0,0.0,0.0,0.0,0.0,0.0,0.0,0.0,0.0,0.0,0.0,0.0,0.0,0.0,0.0,0.0,0.0,0.0,0.0,0.0,-1.517,-1.6012,-1.6934,-1.7034,-1.7455,-1.8624,-1.9232,-1.9646,-1.9893,-2.0067,-2.0267,-2.0514,-2.0575,-2.0728,-2.1029,-2.0929,-2.0915,-2.1036,-2.0922,-2.0835,-2.0788,-2.0661,-2.0601,-2.0601,-2.0775,-2.0855,-2.0862,-2.1036,-2.1109,0.0,-2.0935,-2.0855,-2.0848,-2.0675,-2.0601,0.0,0.0,0.0,0.0,0.0,-1.9446,-1.9553,0.0,0.0,0.0,0.0,0.0,0.0,-1.969,-1.8779,-1.8106,-1.8106,-1.9963,-2.1481,-2.1983,-2.4456,-2.59,-2.5448,-2.5297,-2.4393,-2.2435,-2.3251,-2.3712,-2.3502,-2.5882,-2.6691,-2.5622,-2.7296,-2.7846,-2.709,-2.79,-2.8291,-2.8301,-2.8672,-2.8877,-2.8935,-2.9375,-2.9805,-3.0205,-3.0254,-3.0273,-3.0273,-3.0273,-3.0185,-2.9795,-2.748,-2.6807,-2.6875,-2.5283,-2.4043,-2.3086,-2.2568,0.0,0.0,0.0,0.0,0.0,0.0,0.0,0.0,0.0,0.0,0.0,0.0,0.0,0.0,0.0,0.0,0.0,0.0,0.0,0.0,0.0,0.0,0.0,0.0,-1.674,-1.7555,-1.9272,-1.8865,-1.8764,-1.978,-1.9987,-2.0241,-2.0728,-2.0802,-2.1029,-2.1516,-2.1336,-2.1309,-2.1543,0.0,0.0,0.0,0.0,-2.1289,-2.155,-2.1256,-2.1109,-2.1109,-2.1109,-2.1109,-2.1109,-2.1109,-2.1109,-2.1109,-2.1109,-2.1109,-2.1109,-2.1109,-2.1109,-2.1056,-2.0501,-2.0107,-1.982,-1.9559,-1.9626,0.0,0.0,0.0,0.0,0.0,0.0,0.0,-1.969,-1.8779,-1.8106,-1.8106,-1.9295,-2.0175,-2.0275,-2.2372,-2.3916,-2.428,-2.3477,-2.2774,-2.2334,-2.2523,-2.3754,-2.6375,-2.66,-2.7163,-2.836,-2.8253,-2.8,-2.7539,-2.8047,-2.8291,-2.8291,-2.8379,-2.8594,-2.8935,-2.9375,-2.9805,-3.0215,-3.0596,-3.0752,-3.0752,-3.0752,-3.0117,-2.9072,-2.8242,-2.7764,-2.7451,-2.6758,-2.6797,-2.7002,-2.5889,-2.5225,-2.458,-2.292,-2.1213,0.0,0.0,0.0,0.0,0.0,0.0,0.0,0.0,0.0,0.0,0.0,0.0,0.0,0.0,0.0,0.0,0.0,0.0,0.0,-1.7475,-1.8136,-1.8945,-2.0241,-2.0474,-2.0514,-2.0508,-2.1129,-2.1516,-2.1396,-2.1597,-2.1683,-2.1563,-2.1717,-2.1737,-2.1563,-2.1724,0.0,-2.1897,-2.1623,-2.1496,-2.155,-2.1256,-2.1109,-2.1109,0.0,0.0,-2.1109,-2.1109,-2.1109,-2.1109,-2.1109,-2.1109,-2.1109,-2.1109,-2.1109,-2.1076,-2.0728,-2.0414,-2.014,-2.0087,-2.01,-2.0174,0.0,0.0,0.0,0.0,0.0,0.0,-1.969,-1.9006,-1.8496,-1.8496,-1.9472,-2.0201,-2.0201,-2.1707,-2.247,-2.195,-2.0889,-2.0966,-2.2611,-2.3251,-2.4772,-2.7517,-2.8509,-2.9213,-2.9721,-3.0153,-2.9905,-2.8654,-2.909,-2.9006,-2.8301,-2.8506,-2.8828,-2.9258,-2.9697,-3.0127,-3.0566,-3.0791,-3.0889,-3.0889,-3.0889,-3.0498,-2.9883,-2.9668,-2.9316,-2.8906,-2.8682,-2.8467,-2.8164,-2.7314,-2.6602,-2.5762,-2.4014,-2.2578,-2.1328,0.0,0.0,0.0,0.0,0.0,0.0,0.0,0.0,0.0,0.0,0.0,0.0,0.0,0.0,-1.671,-1.6901,0.0,-1.7929,-1.8958,-1.9626,-2.0327,-2.1209,-2.1577,-2.1657,-2.137,-2.1717,-2.1931,-2.1784,-2.1897,-2.1984,-2.1984,-2.1984,-2.1984,-2.1984,-2.1984,-2.2051,-2.2198,-2.1924,-2.1837,-2.1984,-2.169,-2.155,-2.155,-2.1396,-2.1329,-2.1329,-2.1329,-2.1249,-2.1116,-2.1269,-2.1249,-2.1109,-2.1109,-2.1109,-2.1096,-2.0949,-2.0715,-2.0434,-2.0287,-2.0327,-2.0454,0.0,0.0,0.0,0.0,0.0,0.0,0.0,-1.9244,-1.8893,-1.8893,-1.9712,-2.0216,-2.0106,-2.1015,-2.1075,-1.9751,-1.8865,-1.9773,-2.3088,-2.4255,-2.5914,-2.8303,-3.035,-3.1101,-3.0569,-3.1856,-3.1693,-3.004,-3.0402,-3.0026,-2.9112,-2.9152,-2.9401,-2.9768,-2.9956,-3.0283,-3.0644,-3.082,-3.0889,-3.0889,-3.0889,-3.0889,-3.0879,-3.0791,-3.0518,-3.0185,-3.0107,-2.9199,-2.7988,-2.7656,-2.6914,-2.5889,-2.4482,-2.3691,-2.2978,-2.1406,-2.0683,0.0,0.0,0.0,0.0,0.0,0.0,0.0,0.0,-1.5749,-1.5939,-1.664,-1.7021,-1.7475,-1.8317,-1.8951,-1.9599,-2.0368,-2.0935,-2.1463,-2.1997,-2.2271,-2.2331,-2.2098,-2.2118,-2.2131,-2.2078,-2.2118,-2.2231,-2.2405,-2.2251,-2.2231,-2.2405,-2.2251,-2.2265,-2.2498,-2.2218,-2.2178,-2.2412,-2.2131,-2.1984,-2.1984,-2.175,-2.1637,-2.1637,-2.1637,-2.1476,-2.1203,-2.139,-2.1329,-2.1109,-2.1109,-2.1109,-2.1109,-2.1109,-2.0962,-2.0728,-2.0494,-2.0555,-2.0728,0.0,0.0,0.0,0.0,0.0,0.0,0.0,0.0,-1.8893,-1.8893,-1.8985,-1.892,-1.8425,-1.892,-1.9239,-1.91,-1.8958,-2.0351,-2.369,-2.4481,-2.6458,-3.0107,-3.0991,-3.1466,-3.1698,-3.1884,-3.1727,-3.1307,-3.1362,-3.1506,-3.1825,-3.0671,-3.0214,-3.0203,-2.9809,-2.9668,-2.9775,-3.0557,-3.0889,-3.0889,-3.0889,-3.0889,-3.084,-3.043,-3.0244,-3.0146,-2.9775,-2.8574,-2.7148,-2.71,-2.625,-2.5185,-2.499,-2.4375,-2.3525,-2.2578,-2.0803,-1.9016,-1.8416,-1.6679,-1.5129,-1.5725,-1.5269,-1.5095,0.0,-1.6982,-1.7268,-1.8397,-1.8865,-1.9259,-1.9873,-2.0468,-2.0982,-2.1349,-2.1677,-2.1997,-2.2325,-2.2398,-2.2405,-2.2372,-2.2605,-2.2659,-2.2398,-2.2605,-2.2665,-2.2438,-2.2632,-2.2665,-2.2432,-2.2639,-2.2779,-2.2812,-2.2525,-2.2385,-2.2418,-2.2131,-2.1984,-2.1984,-2.1951,-2.1937,-2.1937,-2.1937,-2.1777,-2.149,-2.1263,-2.1136,-2.1109,-2.1109,-2.1109,-2.1109,-2.1109,-2.1089,-2.1056,-2.1022,-2.1029,-2.1056,0.0,0.0,0.0,0.0,0.0,0.0,0.0,0.0,-1.9369,-1.9369,-1.9365,-1.9257,-1.9035,-1.8969,-1.8791,-1.8478,-1.8503,-1.9811,-2.2799,-2.3853,-2.6076,-2.9967,-3.0645,-3.1452,-3.2546,-3.2582,-3.2599,-3.2688,-3.2688,-3.2146,-3.1122,-3.0514,-3.0056,-2.9504,-2.9618,-2.9707,-2.9971,-3.0625,-3.0889,-3.0889,-3.0889,-3.0732,-3.041,-2.9717,-2.8994,-2.832,-2.8144,-2.7305,0.0,-2.5674,-2.5137,-2.4687,-2.4687,-2.4277,-2.3623,-2.2764,-2.1784,-2.0726,-1.9195,-1.6931,-1.5241,-1.5979,-1.6198,-1.6587,-1.7682,-1.8196,-1.8724,-1.9733,-2.0174,-2.0561,-2.1149,-2.145,-2.1717,0.0,-2.2158,-2.2278,-2.2398,-2.2418,-2.2291,-2.1951,-2.2171,-2.2305,-2.2178,-2.2432,-2.2552,-2.2432,-2.2692,-2.2806,-2.2686,-2.2792,-2.2859,-2.2859,-2.2739,-2.2679,-2.2679,-2.2552,-2.2498,-2.2492,-2.2318,-2.2238,-2.2238,-2.2238,-2.2078,-2.1777,-2.1309,-2.1109,-2.1109,-2.1109,-2.1109,-2.1109,-2.1109,-2.1109,-2.1109,-2.1109,-2.1109,-2.1109,0.0,0.0,0.0,0.0,0.0,0.0,0.0,0.0,0.0,0.0,-1.969,-1.969,-1.969,-1.9207,-1.8688,-1.8145,-1.8148,-1.924,-2.1713,-2.2912,-2.5272,-2.9164,-2.9854,-3.0922,-3.2579,-3.2767,-3.3033,-3.3413,-3.3558,-3.2992,-3.1728,-3.1334,-3.0877,-3.0419,-3.0146,-3.0157,-3.0595,-3.0613,-3.0703,-3.0703,-3.0703,-3.0283,-2.957,-2.8594,-2.7353,-2.6143,-2.626,-2.5527,-2.4375,-2.3613,-2.3281,-2.3193,-2.332,-2.3389,-2.3291,-2.2559,-2.1815,-2.0805,-1.8645,-1.6795,-1.5698,-1.6446,-1.7235,-1.8036,-1.8798,-1.9366,-2.0,-2.0962,-2.1263,-2.1503,-2.2011,-2.2038,-2.2051,-2.2265,-2.2298,-2.2298,-2.2298,-2.2231,-2.1991,-2.149,-2.147,-2.1537,-2.1617,-2.2031,-2.2331,-2.2412,-2.2619,-2.2779,-2.2859,-2.2946,-2.2953,-2.2866,-2.3026,-2.3073,-2.2993,-2.2993,-2.2993,-2.2986,-2.2686,-2.2262,-2.1707,-2.1629,-2.1756,-2.2078,-2.157,-2.1309,-2.1229,-2.1229,-2.1182,-2.1116,-2.1196,-2.1182,-2.1129,-2.1289,-2.1249,-2.1109,0.0,0.0,0.0,0.0,0.0,0.0,0.0,0.0,0.0,0.0,0.0,0.0,0.0,-1.9207,-1.8688,-1.8145,-1.8148,-1.8949,-2.0618,-2.1744,-2.4104,-2.7984,-2.8687,-2.9754,-3.1411,-3.1964,-3.2541,-3.3144,-3.3596,-3.441,-3.5276,-3.3994,-3.3681,-3.4127,-3.1962,-3.1186,-3.1527,-3.0575,-3.0215,-3.0215,-3.0215,-2.9473,-2.8213,-2.6953,-2.5391,-2.3935,-2.4346,-2.3144,-2.1299,-2.084,-2.04,-2.0127,-2.0547,-2.1543,-2.2471,-2.2031,-2.0154,-1.773,-1.5945,-1.5691,-1.6092,-1.7255,-1.8009,-1.8764,-1.9913,-2.0421,-2.0969,-2.2131,-2.2151,-2.2051,-2.2352,-2.2178,-2.1991,-2.1997,-2.1997,-2.1997,-2.1997,-2.1757,-2.147,-2.1156,-2.0628,-2.0401,0.0,-2.1496,-2.2118,-2.2398,-2.2425,-2.2559,-2.2846,-2.3146,-2.3173,-2.2873,-2.3434,-2.3607,-2.3313,-2.3313,-2.3313,-2.3307,-2.2999,-2.1865,-2.0178,-1.9781,-2.0626,-2.2392,-2.2091,-2.1797,-2.1537,-2.1537,-2.137,-2.1136,-2.143,-2.1363,-2.1176,-2.175,-2.1597,-2.1109,0.0,0.0,0.0,0.0,0.0,0.0,0.0,0.0,0.0,0.0,0.0,0.0,0.0,0.0,0.0,0.0,-1.8339,-1.8695,-2.0021,-2.0815,-2.2297,-2.4707,-2.6402,-2.7896,-2.9176,-3.0131,-3.1235,-3.2503,-3.2692,-3.2698,-3.2473,-3.2086,-3.1716,-3.1388,-3.0899,-3.0488,-3.0151,-3.0185,-2.9818,-2.9277,-2.8428,-2.7822,-2.7178,-2.4746,-2.3105,-2.1924,0.0,-1.9883,-1.9404,-1.8691,-1.8545,-1.8769,-1.9492,-2.0019,-2.0294,-2.0066,-1.8718,-1.7384,-1.745,-1.7348,-1.7609,-1.8998,-1.9646,-2.0247,-2.1416,-2.1764,-2.1944,-2.2338,-2.2038,-2.161,-2.1316,-2.1022,-2.0889,-2.1082,-2.1276,-2.147,-2.167,-2.1617,-2.1303,-2.0608,-2.0528,0.0,0.0,0.0,0.0,-2.2078,-2.2311,-2.2545,-2.2846,-2.316,-2.3187,-2.2873,-2.3454,-2.3627,-2.3327,-2.2209,-2.1573,-2.1573,-2.0002,-1.8942,-1.8223,-1.784,-1.8145,-1.8675,-1.9667,-1.994,-1.9838,-2.1221,-2.1663,-2.1436,-2.1724,-2.1777,-2.1717,-2.1911,-2.1737,-2.1403,0.0,0.0,0.0,0.0,0.0,0.0,0.0,0.0,0.0,0.0,0.0,0.0,0.0,0.0,0.0,0.0,0.0,-1.8618,-1.9193,-1.9755,-2.0726,-2.2184,-2.3816,-2.5197,-2.6302,-2.7444,-2.8524,-2.9578,-2.9967,-3.0109,-2.9965,-2.9965,-3.0022,-3.0105,-2.9966,-2.9929,-2.997,-2.9116,-2.8471,-2.7831,-2.6448,-2.54,-2.4463,-2.2217,-2.0732,0.0,-1.793,-1.7383,-1.7422,-1.7041,-1.7197,-1.758,-1.7829,-1.8068,-1.8279,-1.8035,-1.7691,-1.7485,-1.8096,-1.8531,-1.8958,-2.0227,-2.0848,-2.137,-2.2225,-2.2338,-2.2205,-2.1991,-2.1483,-2.0869,-2.0174,-1.972,-1.9579,-1.9987,-2.0207,-2.0508,-2.1009,-2.1082,-2.0651,-1.9562,-1.9491,-1.924,0.0,0.0,0.0,-2.1764,-2.1421,-2.1752,-2.2839,-2.2675,-2.2665,-2.3193,-2.3035,-2.2902,-2.2621,-2.074,-1.9748,-1.9659,-1.7539,-1.6787,-1.7218,-1.6428,-1.6331,-1.702,-1.7981,-1.8328,-1.8106,-1.9614,-2.0346,-2.0797,-2.1078,-2.1534,-2.2011,-2.2225,-2.2051,-2.1697,0.0,0.0,0.0,0.0,0.0,0.0,0.0,0.0,0.0,0.0,0.0,0.0,0.0,0.0,0.0,0.0,0.0,0.0,-1.8137,-1.8613,-1.9361,-2.0441,-2.1066,-2.1907,-2.2927,-2.4117,-2.4707,-2.4732,-2.5787,-2.6829,-2.7846,-2.7846,-2.8712,-3.019,-2.8931,-2.9176,-3.029,-2.7536,-2.6139,-2.5732,-2.4196,-2.2359,-2.0438,-1.9443,-1.834,-1.7168,-1.637,-1.5732,-1.5449,-1.5889,-1.6367,-1.6542,-1.5633,-1.5914,-1.6605,-1.6254,-1.6963,-1.7887,-1.8022,-1.8971,-2.0054,-2.0935,-2.1563,-2.2038,-2.2311,-2.2138,-2.175,-2.1162,-2.0535,-1.9833,-1.8971,-1.8364,-1.819,-1.8764,-1.8918,-1.9272,-2.0134,-2.0267,-1.9743,0.0,0.0,0.0,0.0,0.0,0.0,-2.1,0.0,-2.0215,-2.2572,-2.142,-2.157,-2.3476,-2.2233,-2.1324,-2.1073,-1.8996,-1.7847,-1.7341,-1.5545,-1.5438,-1.7132,-1.5221,-1.5278,-1.6972,-1.6972,-1.6838,-1.6629,-1.6776,-1.7748,-1.9201,-1.9451,-2.0631,-2.2098,-2.2659,-2.2492,-2.1944,0.0,0.0,0.0,0.0,0.0,0.0,0.0,0.0,0.0,0.0,0.0,0.0,0.0,0.0,0.0,0.0,0.0,0.0,-1.6828,-1.7342,-1.7653,-1.7551,-1.9284,-2.0564,-2.128,-2.2385,-2.315,-2.3503,-2.3841,-2.413,-2.4393,-2.4393,-2.4858,-2.5686,-2.5326,-2.5126,-2.4961,-2.4226,-2.3488,-2.2709,-2.0894,-2.0031,-1.9566,-1.7283,-1.6201,-1.584,-1.5303,-1.5039,-1.501,-1.543,-1.5921,-1.6231,-1.5799,-1.6039,-1.6568,-1.7132,-1.7633,-1.8163,-1.9146,-1.9893,-2.0661,-2.1543,-2.1717,-2.1683,-2.1757,-2.1376,-2.0842,-2.0254,-1.9132,-1.8056,-1.7395,-1.7328,-1.7502,-1.7862,-1.8851,0.0,-2.0468,-2.0748,0.0,-1.8268,0.0,-1.7379,-1.5827,-1.5674,0.0,0.0,-1.7612,-1.8402,-2.0889,-1.9665,-1.8964,-1.923,-1.9388,-1.9217,-1.8837,-1.7049,-1.5379,-1.3717,-1.3107,-1.2963,-1.3264,-1.2536,-1.2606,-1.3174,-1.4578,-1.5026,-1.4857,-1.6399,-1.8004,-1.9593,-1.9857,-2.1034,-2.2659,-2.2806,-2.2492,-2.1977,0.0,0.0,0.0,0.0,0.0,0.0,0.0,0.0,0.0,0.0,0.0,0.0,0.0,0.0,0.0,0.0,0.0,0.0,0.0,-1.7118,-1.7061,-1.6866,-1.7827,-1.8505,-1.8832,-1.971,-2.03,-2.0614,-2.0853,-2.1091,-2.1274,-2.1274,-2.1769,-2.2535,-2.2535,-2.259,-2.263,-2.1696,-2.0975,0.0,0.0,-1.7262,-1.702,-1.5428,-1.4853,-1.4844,-1.4805,-1.5156,-1.5702,-1.604,-1.6187,-1.6271,-1.621,-1.6433,-1.6908,-1.7617,-1.8311,-1.9018,-1.9933,-2.0708,-2.137,-2.1864,-2.1964,-2.1797,-2.1283,-2.0715,-1.9973,-1.8865,-1.7769,-1.6787,-1.6072,-1.6079,-1.6413,0.0,0.0,0.0,-2.0154,-2.0655,-2.0003,0.0,-1.7227,0.0,-1.3848,-1.3818,-1.437,0.0,-1.5668,-1.669,-1.9002,-1.7752,-1.7183,-1.805,-1.7538,-1.6701,-1.5686,-1.4734,-1.3524,-1.2379,-1.2166,-1.205,-1.2023,-1.1745,-1.1653,-1.1708,0.0,-1.3113,-1.3036,-1.4257,-1.6196,-1.8606,-1.8738,-2.0473,-2.2859,-2.2859,-2.2572,-2.2158,0.0,0.0,0.0,0.0,0.0,0.0,0.0,0.0,0.0,0.0,0.0,0.0,0.0,0.0,0.0,0.0,0.0,0.0,0.0,0.0,-1.7016,-1.7085,-1.6714,-1.6522,-1.6522,-1.7011,-1.7262,-1.7262,-1.7752,-1.8229,-1.8645,-1.8645,-1.9208,-2.0112,-2.0112,-2.0652,-2.1394,-1.9516,-1.8544,-1.8034,-1.6094,-1.4785,-1.406,0.0,-1.3912,-1.4023,-1.4453,-1.5459,-1.6577,-1.7037,-1.6893,-1.6522,-1.6952,-1.7225,-1.7455,-1.8096,-1.9032,-1.9993,-2.0621,-2.1349,-2.1931,-2.1931,-2.2091,-2.1931,-2.0722,-1.996,-1.9025,-1.7328,-1.648,-1.5805,-1.5044,-1.497,-1.5378,-1.6466,0.0,-1.8196,-1.9606,-2.0307,-1.9625,-1.6539,-1.6141,-1.4833,-1.1646,-1.1657,-1.2459,-1.3888,-1.4214,-1.5237,-1.7204,-1.5786,-1.582,-1.7654,-1.5994,-1.4326,-1.2501,-1.2501,-1.2501,-1.2498,-1.2223,-1.2152,-1.2247,-1.1857,-1.1725,-1.1796,0.0,0.0,-1.1619,-1.1619,-1.3737,-1.6831,-1.7112,-1.935,-2.2578,-2.2859,-2.2672,-2.2385,0.0,0.0,0.0,0.0,0.0,0.0,0.0,0.0,0.0,0.0,-1.5031,-1.4812,0.0,0.0,0.0,0.0,0.0,0.0,0.0,0.0,0.0,-1.6011,-1.6313,-1.6522,-1.6522,-1.6609,-1.6672,-1.6672,-1.676,-1.6861,-1.6948,-1.6948,-1.7061,-1.7237,-1.7237,-1.7338,-1.7468,-1.7127,-1.6638,-1.6056,-1.5188,-1.4435,-1.3779,-1.3283,0.0,0.0,-1.3584,-1.4551,-1.5756,-1.6558,-1.7189,-1.7613,-1.8165,-1.8306,-1.8424,-1.9252,-1.9806,-2.0341,-2.1176,-2.151,-2.163,-2.163,-2.1483,-2.0969,-1.9553,-1.8571,-1.7602,-1.6319,-1.5404,-1.4776,-1.4623,-1.4997,-1.5545,-1.6239,-1.7468,-1.8677,-1.9659,-2.0307,-2.0013,0.0,-1.7066,-1.5576,-1.3559,-1.3612,0.0,0.0,0.0,0.0,-1.5501,-1.3889,-1.3234,-1.3568,-1.3263,-1.2807,-1.2501,-1.2501,-1.2501,-1.2501,-1.2332,-1.2199,-1.2098,-1.202,-1.1864,-1.166,0.0,0.0,-1.1619,-1.1619,-1.2888,-1.4995,-1.6545,-1.8653,-2.0756,-2.2297,-2.2672,-2.2412,0.0,0.0,0.0,0.0,0.0,0.0,0.0,-1.5741,-1.5577,-1.5407,-1.5008,-1.4612,-1.4309,-1.5073,-1.5358,0.0,0.0,0.0,0.0,0.0,0.0,-1.693,-1.6654,-1.6522,-1.6522,-1.6522,-1.6522,-1.6522,0.0,-1.6522,-1.6522,-1.6522,-1.6522,-1.6522,-1.6522,-1.6522,-1.6479,-1.5832,-1.5599,-1.5543,-1.4595,-1.4236,-1.4236,-1.3931,0.0,0.0,-1.3529,-1.4326,-1.5555,-1.6722,-1.7508,-1.8156,-1.8821,-1.9546,-1.9934,-1.9861,-2.0114,-2.0588,-2.1169,-2.1543,-2.1737,-2.159,-2.1329,-2.0648,-1.8871,-1.7769,-1.6707,-1.5231,-1.4589,-1.4249,-1.4095,-1.4543,-1.5177,-1.5925,-1.664,-1.7629,-1.9132,-1.8743,-1.8483,-1.854,-1.7367,-1.5812,0.0,-1.436,0.0,0.0,0.0,0.0,-1.3623,-1.2877,-1.2501,-1.2501,-1.2501,-1.2501,-1.2501,-1.2501,-1.2501,-1.2501,-1.2355,-1.2291,-1.2284,-1.2132,-1.1982,-1.185,-1.1837,0.0,-1.1619,-1.1619,-1.3313,-1.5981,-1.6831,-1.8932,-2.1734,-2.2578,-2.2672,-2.2418,0.0,0.0,0.0,0.0,0.0,0.0,0.0,-1.5627,-1.5494,-1.5494,-1.5274,-1.4916,-1.4459,-1.4855,-1.4986,0.0,0.0,0.0,0.0,0.0,0.0,0.0,0.0,0.0,-1.6522,0.0,0.0,0.0,-1.6522,0.0,0.0,0.0,0.0,0.0,-1.6522,-1.6423,-1.6238,-1.5287,-1.5005,0.0,0.0,-1.419,0.0,0.0,0.0,0.0,0.0,-1.4072,-1.5215,-1.6631,-1.7544,-1.825,-1.8871,-2.0135,-2.1108,-1.9929,-2.0223,-2.0917,-2.1041,-2.1443,-2.1824,-2.153,-2.1142,-2.0321,-1.839,-1.7161,-1.5965,-1.4329,-1.3941,-1.3848,-1.3674,-1.4075,-1.4696,-1.5511,-1.5805,-1.658,-1.847,-1.7736,-1.7351,0.0,-1.7346,0.0,-1.4211,-1.4436,0.0,0.0,0.0,0.0,-1.2233,-1.2379,-1.2457,-1.2457,-1.2484,-1.2501,-1.2501,-1.2501,-1.2501,-1.2501,-1.2389,-1.2379,-1.2447,-1.2216,-1.2074,-1.2006,-1.1884,0.0,0.0,-1.1619,-1.3313,-1.6127,-1.6831,-1.9072,-2.1734,-2.2578,-2.2712,-2.2505,0.0,0.0,0.0,0.0,0.0,0.0,0.0,-1.5644,-1.5919,-1.5546,-1.5568,-1.5551,-1.5397,-1.5308,-1.5226,0.0,0.0,0.0,0.0,0.0,0.0,0.0,0.0,0.0,0.0,0.0,0.0,0.0,0.0,0.0,0.0,0.0,0.0,0.0,0.0,0.0,-1.5676,-1.5543,0.0,0.0,0.0,0.0,0.0,0.0,0.0,0.0,0.0,-1.3262,-1.3936,-1.5615,-1.6782,-1.7579,-1.7923,-1.9447,-2.0718,-1.9335,-2.0086,-2.1374,-2.0917,-2.1142,-2.1523,-2.1223,-2.0535,-1.9519,-1.7976,-1.6533,-1.517,-1.3935,-1.3474,-1.336,-1.3601,-1.3908,-1.4329,-1.4943,-1.5712,-1.6673,-1.7949,-1.8698,-1.8819,-1.8191,0.0,0.0,-1.4032,0.0,0.0,0.0,0.0,0.0,0.0,-1.2227,-1.2311,-1.2311,-1.2433,-1.2501,-1.2501,-1.2501,-1.2501,-1.2501,-1.2488,-1.2423,-1.2311,-1.2281,-1.2118,-1.1853,0.0,0.0,0.0,-1.1619,-1.176,-1.2466,-1.5849,-1.7393,-1.8089,-2.1596,-2.2846,-2.2786,0.0,0.0,0.0,0.0,0.0,0.0,-1.5308,-1.5454,-1.551,-1.5183,-1.5389,-1.5527,-1.5407,-1.5571,-1.5556,-1.5131,0.0,0.0,0.0,0.0,0.0,0.0,0.0,0.0,0.0,0.0,0.0,0.0,0.0,0.0,0.0,0.0,0.0,0.0,0.0,0.0,0.0,-1.4687,0.0,0.0,0.0,0.0,0.0,0.0,0.0,0.0,0.0,0.0,-1.3311,-1.4502,-1.5478,-1.6195,-1.6327,-1.788,-1.9305,-1.813,-1.8462,-1.9313,-1.9744,-2.0568,-2.1216,-2.0922,-2.0054,-1.8885,-1.7395,-1.5919,-1.4536,-1.3347,-1.316,-1.3186,-1.3113,-1.3494,-1.3697,-1.338,-1.3628,-1.4285,-1.565,-1.5252,-1.5469,-1.7358,-1.6424,0.0,0.0,0.0,0.0,0.0,0.0,0.0,0.0,-1.2023,-1.2152,-1.2152,-1.2298,-1.2332,-1.2237,-1.2328,-1.2328,-1.2237,-1.2237,-1.2206,-1.2152,-1.2152,-1.2033,-1.183,0.0,0.0,0.0,-1.1619,-1.2327,-1.3591,-1.6127,-1.7954,-1.9217,-2.1878,-2.2746,-2.2579,0.0,0.0,0.0,0.0,0.0,-1.5669,-1.5296,-1.5388,-1.538,-1.5073,-1.5417,-1.5613,-1.5535,-1.5797,-1.5811,-1.5343,-1.561,0.0,0.0,0.0,0.0,0.0,0.0,0.0,0.0,0.0,-1.6522,-1.6522,-1.6337,0.0,0.0,0.0,0.0,0.0,0.0,0.0,0.0,0.0,0.0,0.0,0.0,0.0,0.0,0.0,0.0,0.0,0.0,0.0,0.0,0.0,0.0,-1.4873,-1.499,-1.5794,-1.6718,-1.6583,-1.7232,-1.8114,-1.8631,-1.9566,-2.0434,-2.0321,-1.9339,-1.8076,-1.6854,-1.5378,-1.3968,-1.303,-1.2852,-1.2906,-1.2849,-1.3166,-1.3186,-1.2343,-1.226,-1.2672,-1.3705,-1.2783,-1.29,0.0,0.0,0.0,0.0,0.0,0.0,0.0,0.0,0.0,0.0,-1.1816,-1.1952,-1.1993,-1.2142,-1.2172,-1.2064,-1.2169,-1.2169,-1.206,-1.206,-1.206,-1.206,-1.2013,-1.1935,-1.183,0.0,0.0,0.0,-1.19,-1.2997,-1.5189,-1.6661,-1.8331,-2.0227,-2.2127,-2.2732,-2.2525,0.0,0.0,0.0,0.0,0.0,0.0,-1.5165,-1.5604,-1.5844,-1.5379,-1.5763,-1.6076,-1.5998,-1.6006,-1.5951,-1.5786,-1.5799,0.0,0.0,0.0,0.0,0.0,0.0,0.0,0.0,0.0,-1.6522,-1.6522,-1.5908,-1.5588,-1.5588,0.0,0.0,0.0,0.0,0.0,0.0,0.0,0.0,0.0,0.0,0.0,-1.4652,0.0,0.0,0.0,0.0,0.0,0.0,0.0,0.0,0.0,0.0,-1.3329,-1.2821,-1.468,-1.6964,-1.8652,-1.7521,-1.8043,-1.9018,-1.9305,-1.8263,-1.7014,-1.6413,-1.4917,-1.348,-1.2872,-1.2512,-1.2405,-1.2768,-1.3006,-1.2894,-1.2075,-1.2381,-1.2626,-1.2234,-1.262,-1.2636,0.0,0.0,0.0,0.0,0.0,0.0,0.0,0.0,0.0,0.0,-1.1623,-1.1687,-1.183,-1.1982,-1.2064,-1.206,-1.2064,-1.2064,-1.206,-1.206,-1.206,-1.2057,-1.1904,-1.1833,0.0,0.0,0.0,0.0,-1.2323,-1.3625,-1.6791,-1.7022,-1.8229,-1.9841,-2.2056,-2.2859,-2.2772,0.0,0.0,0.0,0.0,0.0,0.0,0.0,-1.5262,-1.5236,-1.4823,-1.5151,-1.5432,-1.5389,-1.5651,-1.5832,-1.5785,-1.5799,0.0,0.0,0.0,0.0,0.0,0.0,0.0,0.0,0.0,-1.6281,-1.5864,-1.5676,-1.5174,-1.4365,-1.419,-1.3873,0.0,0.0,0.0,0.0,0.0,0.0,0.0,0.0,-1.3286,-1.343,0.0,0.0,0.0,0.0,0.0,0.0,0.0,0.0,0.0,0.0,0.0,0.0,-1.2461,-1.3613,-1.4906,-1.5481,-1.6219,-1.6881,-1.7181,-1.6446,-1.5504,-1.4917,-1.3874,-1.2919,-1.2525,-1.2365,-1.2331,-1.2425,-1.2859,-1.2648,-1.0918,-1.1925,-1.2398,-1.0805,-1.1856,0.0,0.0,0.0,0.0,0.0,0.0,0.0,0.0,0.0,0.0,0.0,0.0,-1.164,-1.1684,-1.1826,-1.1857,-1.1762,-1.1857,-1.1857,-1.1759,-1.1759,-1.1759,-1.1759,-1.1708,0.0,0.0,0.0,0.0,0.0,-1.1903,-1.2929,-1.4988,-1.6431,-1.8078,-1.9793,-2.1616,-2.2265,-2.2211,0.0,0.0,0.0,0.0,0.0,0.0,0.0,-1.5359,-1.5255,-1.5013,-1.5195,-1.5359,-1.5359,-1.561,-1.5799,-1.5799,-1.5799,0.0,0.0,0.0,0.0,0.0,0.0,0.0,-1.568,-1.581,-1.577,-1.5588,-1.5129,-1.4549,-1.3815,-1.3552,-1.3238,-1.2881,-1.2881,0.0,0.0,0.0,0.0,0.0,-1.2968,-1.3065,-1.319,0.0,0.0,0.0,0.0,0.0,0.0,0.0,0.0,0.0,0.0,0.0,0.0,0.0,-1.134,-1.2078,-1.3561,-1.4469,-1.5104,-1.5511,-1.503,-1.4369,-1.4008,-1.3307,-1.2583,-1.1906,-1.1694,-1.1694,-1.1694,-1.1843,-1.1462,-1.014,-1.1165,-1.1403,-0.9296,-1.0493,0.0,0.0,0.0,0.0,0.0,0.0,0.0,0.0,0.0,0.0,0.0,0.0,-1.1592,-1.1535,-1.1674,-1.1708,-1.1619,-1.1708,-1.1708,-1.1619,-1.1619,-1.1619,-1.1619,-1.1619,0.0,0.0,0.0,0.0,0.0,-1.1751,-1.3153,-1.5992,-1.6479,-1.8231,-2.0457,-2.1608,-2.1984,-2.1944,0.0,0.0,0.0,0.0,0.0,0.0,0.0,-1.5799,-1.5799,-1.5799,-1.5799,-1.5799,-1.5799,-1.5799,-1.5799,-1.5799,0.0,0.0,0.0,0.0,0.0,0.0,0.0,0.0,-1.5618,-1.509,-1.5045,-1.5543,-1.4365,-1.3789,-1.3784,-1.3192,-1.293,-1.293,-1.293,-1.291,0.0,0.0,0.0,0.0,-1.3152,-1.3238,0.0,0.0,0.0,0.0,0.0,0.0,0.0,0.0,0.0,0.0,0.0,0.0,0.0,0.0,0.0,0.0,0.0,-1.2786,-1.3594,-1.4182,-1.3921,-1.3439,-1.3459,-1.3113,0.0,-1.1135,-1.0938,-1.087,-1.0812,-1.0355,-0.9953,-0.9663,-1.0199,-0.993,-0.7941,-0.9011,0.0,0.0,0.0,0.0,0.0,0.0,0.0,0.0,0.0,0.0,0.0,0.0,-1.1531,-1.1409,-1.1525,-1.1592,-1.1603,-1.1592,-1.1592,-1.1603,-1.1603,-1.1603,-1.1603,-1.1603,0.0,0.0,0.0,0.0,0.0,-1.1902,-1.417,-1.8524,-1.7149,-1.8576,-2.1447,-2.183,-2.1937,-2.1911,0.0,0.0,0.0,0.0,0.0,0.0,0.0,0.0,0.0,0.0,-1.5799,-1.5799,-1.5799,-1.5799,-1.5799,0.0,0.0,0.0,0.0,0.0,0.0,0.0,0.0,0.0,-1.5092,-1.4897,-1.4841,-1.4926,-1.419,-1.3728,-1.3541,-1.341,-1.3359,-1.3359,-1.3359,-1.3184,0.0,0.0,0.0,0.0,-1.2978,-1.2968,0.0,0.0,0.0,0.0,-1.208,-1.1625,0.0,0.0,0.0,0.0,0.0,0.0,0.0,0.0,-0.9444,-0.9562,-1.0414,0.0,-1.1757,-1.2345,-1.2385,-1.2345,0.0,-1.2505,-1.2311,-1.2009,-1.1922,-1.1757,-1.1047,-1.1032,-1.0626,-0.9213,-1.0214,-1.0306,-0.8112,0.0,0.0,0.0,0.0,0.0,0.0,0.0,0.0,0.0,0.0,0.0,0.0,0.0,-1.1362,-1.1558,-1.1372,-1.1324,-1.1443,-1.1328,-1.1331,-1.1447,-1.1447,-1.1447,-1.1447,-1.1447,0.0,0.0,0.0,0.0,-1.1895,-1.1452,-1.2558,-1.4934,-1.5781,-1.7626,-1.9807,-2.0843,-2.1456,-2.1617,0.0,0.0,0.0,0.0,0.0,0.0,0.0,0.0,0.0,0.0,0.0,-1.5799,-1.5799,-1.5799,0.0,0.0,0.0,0.0,0.0,0.0,0.0,0.0,0.0,-1.429,-1.489,-1.4286,-1.4198,-1.4698,-1.3836,-1.342,-1.3506,-1.3311,-1.332,-1.3496,-1.3311,-1.3096,0.0,0.0,0.0,-1.2881,-1.2881,0.0,0.0,0.0,0.0,0.0,-1.1814,-1.1166,0.0,-0.9917,-0.9614,-0.9263,0.0,0.0,0.0,0.0,-0.9084,-0.9283,-0.9793,-1.0347,-1.0935,-1.1523,-1.1663,-1.1777,-1.2204,-1.1825,-1.1321,-1.1001,-1.0571,-1.0078,-0.9597,-0.9414,-0.916,-0.8623,-0.9509,-1.0019,0.0,0.0,0.0,0.0,0.0,0.0,0.0,0.0,0.0,0.0,0.0,0.0,0.0,0.0,-1.1209,-1.1307,-1.1151,-1.1172,-1.1389,-1.124,-1.1206,-1.1287,-1.1287,-1.1287,-1.1287,-1.1287,0.0,0.0,0.0,0.0,-1.1193,-1.2724,-1.3828,-1.479,-1.6493,-1.8323,-2.0015,-2.0775,-2.1209,-2.1329,0.0,0.0,0.0,0.0,0.0,0.0,0.0,0.0,0.0,0.0,0.0,0.0,0.0,0.0,0.0,0.0,0.0,0.0,0.0,0.0,0.0,0.0,-1.3425,-1.3675,-1.4723,-1.3616,-1.353,-1.456,-1.3562,-1.3281,-1.3691,-1.3398,-1.3389,-1.3584,-1.3096,-1.2881,0.0,0.0,-1.2881,-1.2881,-1.2881,0.0,0.0,0.0,0.0,0.0,0.0,0.0,0.0,-0.9666,-0.9263,-0.8804,-0.8804,0.0,0.0,0.0,0.0,0.0,-0.9659,-1.0085,-1.0601,-1.104,-1.1184,-1.1279,-1.1741,-1.0967,-1.0014,-0.9406,-0.8618,-0.803,-0.7854,-0.735,-0.7206,-0.8068,-0.8718,0.0,0.0,0.0,0.0,0.0,0.0,0.0,0.0,0.0,0.0,0.0,0.0,0.0,0.0,0.0,0.0,-1.0985,-1.0938,-1.1046,-1.1321,-1.1172,-1.1107,-1.1131,-1.1131,-1.1131,-1.1131,-1.1131,-1.1118,0.0,0.0,0.0,-1.117,-1.4173,-1.5529,-1.5654,-1.7731,-1.9419,-2.0722,-2.0982,-2.1109,-2.1109,0.0,0.0,0.0,0.0,0.0,0.0,0.0,0.0,0.0,0.0,0.0,0.0,0.0,0.0,0.0,0.0,0.0,0.0,0.0,0.0,0.0,-1.3323,-1.3232,-1.3483,-1.4134,-1.3383,-1.3303,-1.3956,-1.3922,-1.416,-1.46,-1.4893,-1.4668,-1.4004,-1.3232,-1.2881,-1.2881,-1.2881,-1.2881,-1.2881,-1.2881,0.0,0.0,0.0,0.0,0.0,0.0,0.0,0.0,-0.8956,-0.891,-0.8804,-0.8804,0.0,0.0,0.0,0.0,0.0,-0.99,-0.9937,-0.9879,-0.9946,-1.0071,-1.0026,-0.9679,-0.9501,-0.9406,-0.9291,-0.9145,-0.8875,-0.8265,-0.8176,-0.8002,0.0,0.0,0.0,0.0,0.0,0.0,0.0,0.0,0.0,0.0,0.0,0.0,0.0,0.0,0.0,0.0,0.0,0.0,-1.1121,-1.0887,-1.0839,-1.1012,-1.0863,-1.0853,-1.0982,-1.0982,-1.0982,-1.0982,-1.0982,-1.0911,0.0,0.0,-1.1017,-1.0884,-1.2947,-1.3713,-1.397,-1.7211,-1.864,-1.9024,-2.0589,-2.1109,-2.1109,0.0,0.0,0.0,0.0,0.0,0.0,0.0,0.0,0.0,0.0,0.0,0.0,0.0,0.0,0.0,0.0,0.0,0.0,0.0,0.0,-1.3552,-1.3695,-1.3337,-1.3394,-1.3974,-1.3542,-1.3693,-1.4485,-1.449,-1.4707,-1.5117,-1.4853,-1.4268,-1.3437,-1.3057,-1.2881,-1.2881,-1.2881,-1.2881,-1.2881,0.0,0.0,0.0,0.0,0.0,0.0,0.0,0.0,0.0,0.0,-0.8804,-0.8804,-0.8804,0.0,0.0,0.0,0.0,0.0,-0.9766,-0.991,-0.9906,-0.9747,-0.9656,-0.9532,-0.9293,-0.8861,-0.8498,-0.8686,-0.8233,-0.7841,-0.7526,0.0,-0.7909,0.0,0.0,0.0,0.0,0.0,0.0,0.0,0.0,0.0,0.0,0.0,0.0,0.0,0.0,0.0,0.0,0.0,0.0,0.0,-1.0792,-1.0755,-1.0822,-1.0755,-1.0755,-1.0826,-1.0826,-1.0826,-1.0826,-1.0826,-1.0785,-1.0721,0.0,-1.2153,-1.2285,-1.5009,-1.6172,-1.6307,-1.8896,-1.9935,-1.9941,-2.0849,-2.1109,-2.1109,0.0,0.0,0.0,0.0,0.0,0.0,0.0,0.0,0.0,0.0,0.0,0.0,0.0,0.0,0.0,0.0,0.0,0.0,0.0,-1.3391,-1.3421,-1.3871,-1.3354,-1.3372,-1.3947,-1.3734,-1.3965,-1.4718,-1.4894,-1.5098,-1.5391,-1.4531,-1.374,-1.3027,-1.293,-1.2881,-1.2881,-1.2881,-1.2774,-1.2608,0.0,0.0,0.0,0.0,0.0,0.0,0.0,0.0,0.0,0.0,0.0,0.0,0.0,0.0,0.0,-0.8804,-0.9058,-0.9349,-0.946,-0.9595,-0.9673,-0.9429,-0.9421,-0.9397,-0.913,-0.8444,-0.7939,-0.8034,-0.7384,-0.6905,0.0,-0.736,0.0,0.0,0.0,0.0,0.0,0.0,0.0,0.0,0.0,0.0,0.0,0.0,0.0,0.0,0.0,0.0,0.0,0.0,0.0,0.0,-1.0721,-1.0721,-1.0721,-1.0721,-1.0721,-1.0721,-1.0721,-1.0721,-1.0721,-1.0721,-1.0721,-1.085,-1.2541,-1.3325,-1.3582,-1.7082,-1.8506,-1.8634,-2.0456,-2.1109,-2.1109,-2.1109,-2.1109,-2.1109,0.0,0.0,0.0,0.0,0.0,0.0,0.0,0.0,0.0,0.0,0.0,0.0,0.0,0.0,0.0,0.0,0.0,0.0,0.0,-1.3232,-1.3223,-1.3248,-1.3112,-1.3315,-1.3902,-1.3722,-1.3616,-1.3606,-1.4766,-1.5381,-1.5391,-1.4531,-1.3896,-1.3447,-1.3057,-1.2881,-1.2881,-1.2881,-1.2501,-1.1864,-1.1814,0.0,0.0,0.0,0.0,0.0,0.0,0.0,0.0,0.0,0.0,0.0,0.0,0.0,-0.8804,-0.8804,-0.9212,-0.9531,-0.9005,-0.8712,-0.8503,-0.8466,-0.9182,-0.9553,-0.8529,-0.8355,-0.8213,-0.7717,-0.7513,-0.737,0.0,0.0,0.0,0.0,0.0,0.0,0.0,0.0,0.0,0.0,0.0,0.0,0.0,0.0,0.0,0.0,0.0,0.0,0.0,0.0,0.0,0.0,0.0,-1.0721,-1.0721,-1.0721,-1.0721,-1.0721,-1.0721,-1.0721,-1.0721,-1.0721,-1.0721,-1.085,-1.2541,-1.3325,-1.3582,-1.7082,-1.8506,-1.8634,-2.0456,-2.1109,-2.1109,-2.1109,-2.1109,-2.1109,0.0,0.0,0.0,0.0,0.0,0.0,0.0,0.0,0.0,0.0,0.0,0.0,0.0,0.0,0.0,0.0,0.0,0.0,0.0,-1.3198,-1.3348,-1.3722,-1.3673,-1.3716,-1.3915,-1.3652,-1.367,-1.3896,-1.4648,-1.4883,-1.4609,-1.4014,-1.3516,-1.3105,-1.2949,-1.2666,-1.2236,-1.2236,-1.1823,-1.1166,-1.0712,-1.0261,0.0,0.0,0.0,0.0,0.0,0.0,0.0,0.0,-0.8804,-0.8804,-0.8804,-0.8804,-0.8844,-0.9025,-0.9365,-0.9688,-0.9599,-0.9959,-1.0236,-1.0044,-1.0212,-1.001,-0.8443,-0.8484,-0.8592,-0.7865,-0.7906,-0.8079,0.0,0.0,0.0,0.0,0.0,0.0,0.0,0.0,0.0,0.0,0.0,0.0,0.0,0.0,0.0,0.0,0.0,0.0,0.0,0.0,0.0,0.0,0.0,-1.1713,-1.0578,-1.2637,-1.2584,-1.0446,-1.0534,-1.0578,-1.0578,-1.0578,-1.0578,-1.0713,-1.2497,-1.397,-1.5135,-1.7474,-1.9158,-2.0195,-2.0849,-2.1109,-2.1109,-2.1109,-2.1109,-2.1109,0.0,0.0,0.0,0.0,0.0,0.0,0.0,0.0,0.0,0.0,0.0,0.0,0.0,0.0,0.0,0.0,0.0,0.0,-1.3198,-1.3198,-1.3396,-1.3808,-1.3734,-1.3622,-1.3415,-1.3382,-1.3511,-1.3936,-1.4238,-1.4228,-1.3873,-1.3506,-1.3045,-1.2559,-1.2559,-1.2138,-1.1466,-1.1466,-1.1116,-1.0415,-0.9961,-0.9658,0.0,0.0,0.0,0.0,0.0,0.0,0.0,0.0,-0.8804,-0.8804,-0.8804,-0.8804,-0.8864,-0.9097,-0.9269,-0.9304,-0.9244,-0.9767,-1.0233,-0.9795,-1.0001,-0.993,-0.8615,-0.8759,-0.9005,-0.8355,-0.8404,-0.8554,-0.8554,0.0,0.0,0.0,0.0,0.0,0.0,0.0,0.0,0.0,0.0,0.0,0.0,0.0,0.0,0.0,0.0,0.0,0.0,0.0,0.0,0.0,0.0,0.0,-1.1184,-1.3966,-1.4154,-1.1779,-1.1834,-1.1389,-1.0426,-1.0426,-1.0449,-1.0627,-1.3047,-1.4651,-1.5941,-1.8256,-1.9935,-2.0969,-2.0969,-2.1029,-2.1109,-2.1109,-2.1109,-2.1109,0.0,0.0,0.0,0.0,0.0,0.0,0.0,0.0,0.0,0.0,0.0,0.0,0.0,0.0,0.0,0.0,0.0,0.0,-1.3198,-1.3198,-1.3198,-1.3198,-1.3143,-1.2877,-1.2413,-1.2786,-1.3138,-1.3496,-1.3496,-1.3496,-1.3496,-1.3076,-1.251,-1.1814,-1.1814,-1.1416,-1.0813,-1.0813,-1.0415,-0.9814,-0.9814,-0.9413,-0.8804,0.0,0.0,0.0,0.0,0.0,0.0,0.0,-0.8804,-0.8804,-0.8804,-0.8811,-0.8871,-0.9103,-0.8808,-0.824,-0.7532,-0.7623,-0.7821,-0.7098,-0.801,-0.9089,-0.8915,-0.9111,-0.9244,-0.9189,-0.892,-0.8713,-0.8716,-0.8842,0.0,0.0,0.0,0.0,0.0,0.0,0.0,0.0,0.0,0.0,0.0,0.0,0.0,0.0,0.0,0.0,0.0,0.0,0.0,0.0,0.0,0.0,-1.2637,-1.4255,-1.5003,-1.4998,-1.4901,-1.3199,-1.028,-1.028,-1.0483,-1.0743,-1.4175,-1.558,-1.5838,-1.9268,-2.0675,-2.0675,-2.0681,-2.0855,-2.1109,-2.1109,-2.1109,-2.1109,0.0,0.0,0.0,0.0,0.0,0.0,0.0,0.0,0.0,0.0,0.0,0.0,0.0,0.0,0.0,0.0,0.0,0.0,-1.3198,-1.3198,-1.3198,-1.3198,-1.3604,-1.3512,-1.2822,-1.2882,-1.2996,-1.3066,-1.3066,-1.279,-1.2304,-1.2184,-1.1774,-1.1116,-1.1116,-1.0712,-1.0115,-1.0115,-0.9718,-0.9113,-0.9113,-0.8956,-0.8804,0.0,0.0,0.0,0.0,0.0,0.0,0.0,0.0,0.0,-0.8804,-0.8945,-0.9172,-0.9466,-0.9147,-0.8665,-0.8731,-0.8614,-0.8472,-0.8203,-0.8348,-0.8986,-1.0324,-1.0062,-0.9431,-0.9352,-1.0051,-1.0377,-0.9387,0.0,0.0,0.0,0.0,0.0,0.0,0.0,0.0,0.0,0.0,0.0,0.0,0.0,0.0,0.0,0.0,0.0,0.0,0.0,0.0,0.0,0.0,0.0,-1.2457,-1.637,-1.7138,-1.4676,-1.5801,-1.5283,-1.3428,-1.3428,-1.3459,-1.3646,-1.6027,-1.6976,-1.7117,-1.9703,-2.0675,-2.0702,-2.0902,-2.1036,-2.1109,-2.1109,-2.1109,-2.1109,0.0,0.0,0.0,0.0,0.0,0.0,0.0,0.0,0.0,0.0,-1.5639,-1.5359,0.0,0.0,0.0,0.0,0.0,0.0,0.0,-1.3198,-1.3198,-1.3198,-1.3531,-1.3486,-1.3022,-1.2741,-1.2705,-1.2881,-1.2881,-1.251,-1.1814,-1.1814,-1.1316,-1.0415,-1.0415,-1.0012,-0.9413,-0.9413,-0.9159,-0.8804,-0.8804,-0.8804,-0.8804,0.0,0.0,0.0,0.0,0.0,0.0,0.0,0.0,0.0,-0.8804,-0.8925,-0.907,-0.9073,-0.8621,-0.8089,-0.8127,-0.8087,-0.7972,-0.7834,-0.8053,-0.8702,-0.9823,0.0,0.0,0.0,-1.0647,-1.1216,-0.9789,0.0,0.0,0.0,0.0,0.0,0.0,0.0,0.0,0.0,0.0,0.0,0.0,0.0,0.0,0.0,0.0,0.0,0.0,0.0,0.0,0.0,0.0,0.0,-1.4067,-1.7651,-1.8351,-1.6206,-1.7135,-1.7158,-1.6335,-1.523,-1.4716,-1.4923,-1.6658,-1.7833,-1.858,-1.9758,-2.0227,-2.0347,-2.0521,-2.0661,-2.0762,-2.0762,-2.0762,-2.0762,0.0,0.0,0.0,0.0,0.0,0.0,0.0,0.0,0.0,0.0,-1.5418,-1.4982,0.0,0.0,0.0,0.0,0.0,0.0,0.0,-1.3198,-1.3198,-1.3129,-1.308,-1.3036,-1.2976,-1.2523,-1.248,-1.2881,-1.2822,-1.2452,-1.1715,-1.1665,-1.0914,-0.9718,-0.9718,-0.9361,-0.8804,-0.8804,-0.8804,-0.8804,-0.8804,-0.8804,-0.8804,-0.8804,0.0,0.0,0.0,0.0,0.0,0.0,0.0,0.0,-0.8804,-0.8844,-0.8777,-0.8361,-0.7637,-0.6885,-0.6519,-0.6626,-0.6726,-0.6595,-0.7554,0.0,-0.8528,-1.0012,-1.1129,-1.0155,0.0,-1.1632,0.0,0.0,0.0,0.0,0.0,0.0,0.0,0.0,0.0,0.0,0.0,0.0,0.0,0.0,0.0,0.0,0.0,0.0,0.0,0.0,0.0,0.0,0.0,0.0,-1.643,-1.8064,-1.8751,0.0,-1.849,-1.8631,-1.8778,-1.6238,-1.5043,-1.525,-1.6714,-1.8295,-1.974,-1.9506,-1.9559,-1.9806,-1.9826,-2.0,-2.0234,-2.0234,-2.0234,-2.0234,0.0,0.0,0.0,0.0,0.0,0.0,0.0,0.0,0.0,0.0,0.0,0.0,0.0,0.0,0.0,0.0,0.0,0.0,0.0,-1.3198,-1.306,-1.2685,-1.2553,-1.2637,-1.2986,-1.2832,-1.2783,-1.2881,-1.2344,-1.1674,-1.1015,-1.0466,-0.9814,-0.9008,-0.9008,-0.8956,-0.8804,-0.8804,-0.8804,-0.8804,-0.8804,-0.8804,-0.8804,-0.8804,-0.8804,0.0,0.0,0.0,0.0,0.0,0.0,0.0,-0.8804,-0.9125,-0.9328,-0.8561,-0.7941,-0.7387,-0.6911,-0.6437,-0.6141,-0.6647,-0.8428,-0.9966,-1.0002,-1.0551,-1.1138,-1.0883,-1.2425,0.0,0.0,0.0,0.0,0.0,0.0,0.0,0.0,0.0,0.0,0.0,0.0,0.0,0.0,0.0,0.0,0.0,0.0,0.0,0.0,0.0,0.0,0.0,0.0,-1.622,-1.6168,-1.7776,-1.8551,0.0,-1.849,-1.8524,-1.8591,-1.8184,-1.8115,-1.8374,-1.8738,-1.9102,-1.9472,-1.9639,-1.974,-1.982,-2.0054,-2.018,-2.0234,-2.0234,-2.0234,-2.0234,0.0,0.0,0.0,0.0,0.0,0.0,0.0,0.0,0.0,0.0,0.0,0.0,0.0,0.0,0.0,0.0,0.0,0.0,0.0,0.0,-1.3057,-1.2743,-1.2968,-1.3028,-1.2969,-1.2898,-1.2715,-1.2344,-1.1674,-1.1166,-1.0762,-1.0115,-0.9465,-0.8804,-0.8804,-0.8804,-0.8804,-0.8804,-0.8804,-0.8804,-0.8804,-0.8804,-0.8804,-0.8804,-0.8804,-0.8804,-0.8804,0.0,0.0,0.0,0.0,0.0,0.0,0.0,-0.9062,-0.7971,-0.7805,-0.7673,-0.6486,-0.6379,-0.6791,-0.7872,0.0,-1.0388,-1.1078,-1.1463,-1.1894,-1.2634,0.0,0.0,0.0,0.0,0.0,0.0,0.0,0.0,0.0,0.0,0.0,0.0,0.0,0.0,0.0,0.0,0.0,0.0,0.0,0.0,0.0,0.0,0.0,0.0,-1.6703,-1.7166,-1.7029,-1.7825,-1.813,-1.7849,-1.7989,-1.8136,-1.829,-1.8584,-1.8798,-1.8945,-1.8945,-1.9025,-1.9165,-1.9319,-1.9466,-1.9606,-1.976,-1.982,-1.982,-1.982,-1.982,-1.982,0.0,0.0,0.0,0.0,0.0,0.0,0.0,0.0,0.0,0.0,0.0,0.0,0.0,0.0,0.0,0.0,0.0,0.0,0.0,0.0,0.0,-1.3173,-1.3444,-1.3363,-1.292,-1.2881,-1.2608,-1.1972,-1.1166,-1.0813,-1.0762,-1.0012,-0.9309,-0.8804,-0.8804,-0.8804,-0.8804,-0.8804,-0.8804,-0.8804,-0.8804,-0.8804,-0.8811,-0.8864,-0.8851,-0.8811,-0.8864,-0.8851,-0.8804,-0.8804,0.0,0.0,0.0,0.0,-0.8734,-0.7581,-0.7716,-0.7879,-0.6298,-0.6718,-0.8009,-0.9526,-1.0063,0.0,-1.2102,-1.236,-1.2751,0.0,0.0,0.0,0.0,0.0,0.0,0.0,0.0,0.0,0.0,0.0,0.0,0.0,0.0,0.0,0.0,0.0,0.0,0.0,0.0,0.0,0.0,0.0,-1.7869,-1.7816,-1.8056,-1.8063,-1.7816,-1.7816,-1.7569,-1.7074,-1.7315,-1.7595,-1.7903,-1.815,-1.8343,-1.849,-1.849,-1.8631,-1.8844,-1.8844,-1.8998,-1.9219,-1.9272,-1.9292,-1.9299,-1.9352,-1.9366,-1.9366,0.0,0.0,0.0,0.0,0.0,0.0,0.0,0.0,0.0,0.0,-1.5104,0.0,0.0,0.0,0.0,0.0,0.0,0.0,0.0,0.0,0.0,-1.376,-1.2896,-1.2572,-1.2871,-1.2881,-1.2832,-1.2764,-1.1434,-1.0813,-1.0762,-0.951,-0.891,-0.8804,-0.8804,-0.8804,-0.8804,-0.8804,-0.8804,-0.8804,-0.8804,-0.8804,-0.8838,-0.9085,-0.9025,-0.8838,-0.9037,-0.9018,-0.8804,-0.8804,-0.8971,0.0,0.0,0.0,-0.944,-0.8746,-0.8387,-0.8149,-0.7892,-0.8447,-0.9439,0.0,-1.1159,-1.1321,0.0,0.0,0.0,0.0,0.0,0.0,0.0,0.0,0.0,0.0,0.0,0.0,0.0,0.0,0.0,0.0,0.0,0.0,0.0,0.0,0.0,0.0,0.0,0.0,0.0,-1.7268,-1.7148,-1.6894,-1.6927,-1.6927,-1.6887,-1.6881,-1.6847,-1.6767,-1.6807,-1.6981,-1.7275,-1.7315,-1.7756,-1.849,-1.849,-1.851,-1.8551,-1.8551,-1.8571,-1.8631,-1.8885,-1.8985,-1.9011,-1.9272,-1.9366,-1.9366,0.0,0.0,0.0,0.0,0.0,0.0,0.0,0.0,0.0,0.0,0.0,-1.4278,0.0,0.0,0.0,0.0,0.0,0.0,0.0,0.0,0.0,-1.3388,-1.3201,-1.3037,-1.2881,-1.2881,-1.2715,-1.2286,-1.1275,-1.0618,-1.0218,-0.9386,-0.9051,-0.9045,-0.8878,-0.8898,-0.9051,-0.9051,-0.9051,-0.9065,-0.9232,-0.9198,-0.9078,-0.9379,-0.9305,-0.9092,-0.9379,-0.9406,-0.9299,-0.9299,-0.9385,-0.9486,-0.9486,0.0,0.0,0.0,-0.9011,-0.9191,-0.892,-0.8718,-0.9043,0.0,-1.1305,-1.1813,-1.3857,0.0,0.0,0.0,0.0,0.0,0.0,0.0,0.0,0.0,0.0,0.0,0.0,0.0,0.0,0.0,0.0,0.0,0.0,0.0,0.0,0.0,0.0,0.0,-1.6907,-1.6901,-1.684,-1.6707,-1.6707,-1.6707,-1.6707,-1.6707,-1.6707,-1.67,-1.654,-1.662,-1.6901,-1.6901,-1.7295,-1.7983,-1.7983,-1.8083,-1.8243,-1.8243,-1.8337,-1.8504,-1.8631,-1.8778,-1.8938,-1.9072,-1.9225,-1.9366,0.0,0.0,0.0,0.0,0.0,0.0,0.0,0.0,0.0,0.0,0.0,0.0,0.0,0.0,0.0,0.0,0.0,0.0,0.0,0.0,0.0,-1.3219,-1.346,-1.3372,-1.2929,-1.2881,-1.2618,-1.208,-1.1366,-1.0712,-1.0072,-0.9889,-0.9598,-0.9345,-0.9125,-0.9152,-0.9352,-0.9352,-0.9352,-0.9365,-0.9512,-0.9439,-0.921,-0.9486,-0.9432,-0.9223,-0.9579,-0.9686,-0.9686,-0.9686,-0.9733,-0.9793,-0.9793,-0.9793,0.0,0.0,0.0,-1.0102,-0.9548,0.0,-0.9122,-1.0513,-1.1264,-1.2154,0.0,0.0,0.0,0.0,0.0,0.0,0.0,0.0,0.0,0.0,0.0,0.0,0.0,0.0,0.0,0.0,0.0,0.0,0.0,0.0,0.0,0.0,0.0,0.0,-1.6607,-1.66,-1.656,-1.6486,-1.648,-1.648,-1.648,-1.648,-1.648,-1.648,-1.6266,-1.6313,-1.66,-1.66,-1.6874,-1.7361,-1.7442,-1.7649,-1.7929,-1.7929,-1.8056,-1.827,-1.835,-1.851,-1.8711,-1.8784,-1.8998,-1.9259,0.0,0.0,0.0,0.0,0.0,0.0,0.0,0.0,0.0,0.0,0.0,0.0,-1.3301,-1.3732,-1.4035,-1.4035,-1.4551,-1.4817,-1.4779,-1.4708,-1.4389,-1.3784,-1.3228,0.0,-1.2881,-1.2881,-1.2881,-1.2822,-1.2129,-1.1416,-1.0771,-1.1193,-1.0794,-0.9659,-0.9646,-0.9646,-0.9659,-0.9659,-0.9659,-0.9633,-0.9372,-0.9196,-0.9183,-0.9203,-0.9196,-0.9223,-0.9579,-0.9686,-0.9686,-0.9686,-0.9866,-1.0094,-1.0094,-1.0094,-1.0154,0.0,0.0,0.0,-0.9834,-1.023,0.0,-1.0664,-1.1447,0.0,0.0,0.0,0.0,0.0,0.0,0.0,0.0,0.0,0.0,0.0,0.0,0.0,0.0,0.0,0.0,0.0,0.0,0.0,0.0,0.0,0.0,0.0,0.0,0.0,-1.6293,-1.6293,-1.6166,-1.5885,-1.5872,-1.5872,-1.5872,-1.5872,-1.5872,-1.5872,-1.5858,-1.6005,-1.6293,-1.6293,-1.646,-1.6767,-1.7048,-1.7335,-1.7609,-1.7609,-1.7615,-1.7655,-1.7956,-1.8076,-1.813,-1.841,-1.8698,-1.8945,0.0,0.0,0.0,0.0,0.0,0.0,0.0,0.0,0.0,0.0,0.0,0.0,0.0,-1.45,-1.4462,-1.4065,-1.3836,-1.3816,-1.4136,-1.3788,-1.343,-1.3238,-1.3017,-1.2881,-1.2881,-1.2881,-1.2881,-1.2881,-1.2187,-1.1665,-1.1425,-1.093,-1.0856,-1.1069,-1.0679,-1.0291,-0.996,-0.996,-0.996,-0.9953,-0.9846,-0.9693,-0.9526,-0.9526,-0.9526,-0.9566,0.0,0.0,-1.0309,-1.0309,-1.0314,-1.0401,-1.0401,-1.0401,-1.0421,-1.0528,-1.0624,-1.0537,-1.0074,0.0,0.0,-1.0598,-1.094,-1.1363,0.0,0.0,0.0,0.0,0.0,0.0,0.0,0.0,0.0,0.0,0.0,0.0,0.0,0.0,0.0,0.0,0.0,0.0,0.0,0.0,0.0,0.0,0.0,0.0,-1.5999,-1.5985,-1.5939,-1.5832,-1.5832,-1.5832,-1.5832,-1.5832,-1.5832,-1.5832,-1.5832,-1.5885,-1.5985,-1.5985,-1.6152,-1.6433,-1.654,-1.686,-1.7301,-1.7301,-1.7415,-1.7595,-1.7702,-1.7869,-1.8056,-1.8163,-1.839,-1.8671,0.0,0.0,0.0,0.0,0.0,0.0,0.0,0.0,0.0,-1.406,0.0,0.0,0.0,0.0,-1.4683,-1.4273,-1.3806,-1.3627,-1.3794,-1.342,-1.3104,-1.2929,-1.2881,-1.2881,-1.2881,-1.2881,-1.2881,-1.2881,-1.2403,-1.203,-1.1774,-1.1506,-1.1498,-1.1666,-1.1631,-1.1272,-1.0669,-1.0275,-1.0174,-1.0247,-1.0047,-0.9913,-0.982,-0.9719,-0.9806,0.0,0.0,0.0,0.0,0.0,-1.0624,-1.0624,-1.0624,-1.0624,-1.0624,-1.0624,-1.0624,-1.0577,-1.0321,-1.0267,-1.0287,0.0,0.0,-1.0752,0.0,0.0,0.0,0.0,0.0,0.0,0.0,0.0,0.0,0.0,0.0,0.0,0.0,0.0,0.0,0.0,0.0,0.0,0.0,0.0,0.0,0.0,0.0,0.0,-1.5838,-1.5832,-1.5832,-1.5832,-1.5732,-1.5685,-1.5685,-1.5685,-1.5685,-1.5685,-1.5785,-1.5832,-1.5832,-1.5832,-1.5939,-1.6126,-1.6126,-1.646,-1.7007,-1.7108,-1.7261,-1.7442,-1.7542,-1.7709,-1.7889,-1.7889,-1.8083,-1.8384,0.0,0.0,0.0,0.0,0.0,0.0,0.0,0.0,-1.4727,-1.4198,0.0,0.0,0.0,0.0,0.0,-1.4664,-1.4663,-1.4376,-1.3826,-1.3768,-1.3505,-1.2929,-1.2881,-1.2881,-1.2881,-1.2881,-1.2881,-1.2881,-1.2881,-1.2501,-1.1873,-1.2909,-1.2687,-1.1436,-1.2329,-1.2397,-1.172,-1.0587,-1.0281,-1.0557,-0.9927,-0.9866,-1.0087,-0.9793,0.0,0.0,-1.0624,-1.0755,0.0,-1.0675,0.0,0.0,0.0,-1.0631,-1.0624,-1.0624,-1.0624,-1.0624,0.0,0.0,0.0,0.0,0.0,0.0,0.0,0.0,0.0,0.0,0.0,0.0,0.0,0.0,0.0,0.0,0.0,0.0,0.0,0.0,0.0,0.0,0.0,0.0,0.0,0.0,0.0,0.0,0.0,-1.5805,-1.5805,-1.5805,-1.5805,-1.5805,-1.5531,-1.5384,-1.5384,-1.5391,-1.5398,-1.5398,-1.5691,-1.5832,-1.5832,-1.5832,-1.5832,-1.5832,-1.5832,-1.6152,-1.67,-1.7001,-1.7134,-1.7181,-1.7462,-1.7575,-1.7582,-1.7582,-1.7776,-1.8076,0.0,0.0,0.0,0.0,0.0,0.0,-1.4387,-1.4714,-1.5004,0.0,0.0,0.0,-1.5124,-1.4496,-1.4049,-1.4039,-1.3647,-1.3344,-1.3152,-1.3152,-1.3055,-1.2929,-1.2881,-1.2881,-1.2881,-1.2881,-1.2881,-1.2881,-1.2344,-1.2295,-1.2559,-1.1395,-1.1533,-1.28,-1.0841,-1.0669,-1.1807,-1.1101,-1.0572,-1.0221,-1.006,-1.0047,0.0,0.0,0.0,0.0,0.0,-1.0882,-1.1263,0.0,-1.1009,-1.1149,0.0,-1.0728,-1.0624,-1.0624,-1.0624,-1.0624,-1.0624,0.0,0.0,0.0,0.0,0.0,0.0,0.0,0.0,0.0,0.0,0.0,0.0,0.0,0.0,0.0,0.0,0.0,0.0,0.0,0.0,0.0,0.0,0.0,0.0,0.0,0.0,0.0,-1.5317,-1.5204,-1.5204,-1.5204,-1.5204,-1.5204,-1.5124,-1.5084,-1.5084,-1.5291,-1.5398,-1.5398,-1.5691,-1.5832,-1.5832,-1.5832,-1.5832,-1.5832,-1.5832,-1.5919,-1.6092,-1.6393,-1.6767,-1.7257,-1.7241,-1.7402,-1.7582,-1.7582,-1.7635,-1.7782,0.0,0.0,0.0,0.0,0.0,-1.4538,-1.4865,-1.5266,-1.5593,0.0,0.0,0.0,-1.5252,-1.4143,-1.342,-1.342,-1.3104,-1.2881,-1.2881,-1.2881,-1.2881,-1.2881,-1.2881,-1.2881,-1.2881,-1.2881,-1.2881,-1.2881,-1.2187,-1.203,-1.2403,-1.0922,-1.1141,-1.2692,-1.0561,-1.0363,-1.1642,-1.1157,-1.0635,0.0,-1.0114,0.0,0.0,-1.0114,-1.0414,0.0,0.0,0.0,-1.173,-1.1316,-1.1283,0.0,0.0,0.0,-1.0715,-1.0658,-1.0624,-1.0624,-1.0624,-1.0624,-1.0624,-1.0624,0.0,0.0,0.0,-1.0067,0.0,0.0,0.0,0.0,0.0,0.0,0.0,0.0,0.0,0.0,0.0,0.0,0.0,0.0,0.0,0.0,0.0,0.0,0.0,0.0,-1.5057,-1.4963,-1.4963,-1.4963,-1.4963,-1.4963,-1.4843,-1.4776,-1.4776,-1.4943,-1.509,-1.5217,-1.5504,-1.5712,-1.5832,-1.5832,-1.5832,-1.5832,-1.5832,-1.5832,-1.5845,-1.6019,-1.6359,-1.6807,-1.7054,-1.7255,-1.7415,-1.7542,-1.7582,-1.7649,0.0,0.0,-1.4374,-1.4979,-1.5041,-1.5029,-1.5079,-1.5881,-1.6346,0.0,-1.6166,-1.592,-1.4744,-1.3658,-1.2968,-1.2929,-1.2881,-1.2881,-1.2881,-1.2881,-1.2881,-1.2881,-1.2881,-1.2881,-1.2881,-1.2881,-1.2881,-1.2881,-1.2187,-1.1864,-1.1922,-1.1166,-1.1216,-1.1873,-1.1065,-1.0892,-1.1219,-1.0766,0.0,-1.0027,-1.0087,-1.0294,0.0,0.0,-1.0875,-1.1376,-1.1376,-1.173,-1.2124,-1.1603,-1.1403,0.0,0.0,0.0,0.0,0.0,-1.0624,-1.0624,-1.0624,-1.0651,-1.0665,-1.0631,0.0,0.0,-0.9913,-0.9806,0.0,0.0,0.0,0.0,0.0,0.0,0.0,0.0,0.0,0.0,0.0,0.0,0.0,0.0,0.0,0.0,0.0,0.0,-1.4783,-1.4816,-1.4816,-1.4816,-1.4816,-1.485,-1.4863,-1.4863,-1.4609,-1.4476,-1.4476,-1.4502,-1.4656,-1.4917,-1.5244,-1.5531,-1.5785,-1.5812,-1.5832,-1.5832,-1.5832,-1.5832,-1.5832,-1.5832,-1.6005,-1.6326,-1.6881,-1.7121,-1.7188,-1.7475,-1.7582,-1.7622,0.0,-1.5054,-1.5067,-1.6019,-1.5831,-1.568,-1.6132,-1.6384,-1.6471,-1.6371,-1.6034,-1.532,-1.4097,-1.3779,-1.342,-1.2929,-1.2881,-1.2881,-1.2881,-1.2881,-1.2881,-1.2881,-1.2881,-1.2881,-1.2881,-1.2881,-1.2881,-1.2881,-1.2187,-1.208,-1.2666,-1.1375,-1.1484,-1.2618,-1.0779,-1.0352,-1.0843,-0.989,0.0,-0.9396,-0.9927,0.0,-1.0598,-1.0294,-1.0568,-1.1076,-1.1076,-1.1303,-1.1577,-1.1463,-1.1269,-1.1056,0.0,0.0,0.0,-1.0645,0.0,0.0,-1.0624,-1.0728,0.0,0.0,0.0,0.0,-1.0521,-1.0568,-1.0601,0.0,0.0,0.0,0.0,0.0,0.0,0.0,0.0,0.0,0.0,0.0,0.0,0.0,0.0,0.0,0.0,0.0,-1.3654,-1.3881,-1.3901,-1.3901,-1.3901,-1.4128,-1.4262,-1.4262,-1.4202,-1.4168,-1.4168,-1.4402,-1.4549,-1.4609,-1.5144,-1.5424,-1.5491,-1.5718,-1.5832,-1.5832,-1.5832,-1.5832,-1.5832,-1.5832,-1.6005,-1.6306,-1.666,-1.6941,-1.7188,-1.7475,-1.7582,-1.7622,-1.5683,-1.5467,-1.5542,-1.6371,-1.607,-1.5881,-1.6434,-1.6522,-1.6522,-1.6522,-1.5688,-1.5006,-1.4657,-1.3878,-1.3238,-1.2929,-1.2881,-1.2881,-1.2881,-1.3076,-1.3193,-1.3193,-1.3389,-1.3506,-1.3506,-1.3301,-1.3193,-1.3193,-1.228,-1.1972,-1.2344,-1.1275,-1.1375,-1.2295,-1.0922,-1.0657,-1.1206,-1.0313,-0.9907,-0.99,-0.99,0.0,-1.0321,-1.0174,-1.0481,-1.0995,-1.0995,-1.1276,-1.1623,-1.1476,-1.1523,0.0,0.0,-1.0995,-1.0995,0.0,-1.0788,-1.0658,0.0,0.0,0.0,-1.0775,0.0,0.0,0.0,-1.0555,0.0,0.0,0.0,0.0,0.0,0.0,0.0,0.0,0.0,0.0,0.0,0.0,0.0,0.0,0.0,0.0,0.0,0.0,-1.2879,-1.3173,-1.3193,-1.326,-1.342,-1.3567,-1.3714,-1.3861,-1.3868,-1.3935,-1.4088,-1.4229,-1.4376,-1.4522,-1.4816,-1.511,-1.5398,-1.5545,-1.5691,-1.5832,-1.5832,-1.5832,-1.5832,-1.5832,-1.5919,-1.6079,-1.6373,-1.6667,-1.6967,-1.7255,-1.7462,-1.7602,-1.5885,-1.5856,-1.5994,-1.6446,-1.6145,-1.6007,-1.6446,-1.6522,-1.6516,-1.6442,-1.5537,-1.4981,-1.5285,-1.3976,-1.3086,-1.3105,-1.2969,-1.2988,-1.3232,-1.3408,-1.3506,-1.3506,-1.3916,-1.4038,-1.4014,-1.376,-1.3633,-1.3633,-1.2604,-1.2177,-1.225,-1.1545,-1.1604,-1.22,-1.1385,-1.1375,-1.1894,-1.1168,0.0,-1.0737,0.0,-1.0127,-1.0194,-1.014,-1.0448,-1.0909,-1.0909,-1.1249,-1.1663,-1.1423,-1.1697,-1.2011,-1.1303,-1.1196,0.0,0.0,0.0,0.0,0.0,0.0,0.0,0.0,0.0,-1.0833,0.0,0.0,0.0,0.0,0.0,0.0,0.0,0.0,0.0,0.0,0.0,0.0,0.0,0.0,0.0,0.0,0.0,0.0,0.0,0.0,-1.2211,-1.2472,-1.2587,-1.2712,-1.3019,-1.3093,-1.3253,-1.3547,-1.3561,-1.3701,-1.4001,-1.4001,-1.4148,-1.4436,-1.4496,-1.4796,-1.5311,-1.5371,-1.5558,-1.5832,-1.5832,-1.5832,-1.5832,-1.5832,-1.5832,-1.5858,-1.6159,-1.642,-1.6667,-1.7021,-1.7295,-1.7508,-1.6494,-1.6421,-1.6446,-1.6509,-1.6471,-1.6446,-1.6509,-1.6522,-1.6467,-1.6323,-1.5851,-1.5234,-1.4595,-1.4052,-1.3775,-1.3978,0.0,0.0,-1.4492,0.0,-1.3506,-1.3506,-1.3916,-1.3902,-1.3584,-1.3896,-1.4009,-1.4009,-1.353,-1.351,-1.3806,-1.3013,-1.3061,-1.3787,-1.2342,-1.2162,-1.2887,-1.1834,-1.142,0.0,-1.1296,-1.0962,0.0,-1.0214,-1.0321,-1.0672,-1.0672,-1.0815,-1.1089,0.0,-1.1256,-1.1503,0.0,-1.1223,-1.1096,-1.1349,0.0,0.0,0.0,0.0,0.0,0.0,-1.1356,0.0,0.0,0.0,0.0,0.0,0.0,0.0,0.0,0.0,0.0,0.0,0.0,0.0,0.0,0.0,0.0,0.0,0.0,0.0,0.0,0.0,0.0,-1.1209,-1.1677,-1.2098,-1.2392,-1.2652,-1.2939,-1.3253,-1.326,-1.34,-1.3687,-1.3694,-1.3841,-1.4135,-1.4396,-1.4696,-1.5023,-1.5277,-1.5558,-1.5832,-1.5832,-1.5832,-1.5832,-1.5832,-1.5832,-1.5858,-1.6159,-1.6293,-1.6386,-1.6947,-1.7174,-1.7235,-1.6552,-1.6522,-1.6522,-1.6522,-1.6522,-1.6522,-1.6522,-1.681,-1.7122,-1.7345,-1.6563,-1.6037,0.0,0.0,0.0,0.0,0.0,-1.3838,0.0,0.0,-1.3984,-1.4238,-1.4648,-1.4795,-1.4619,-1.4551,-1.4512,-1.4512,-1.4082,-1.3912,-1.4077,-1.3769,-1.3799,-1.4058,-1.317,-1.2865,-1.2968,0.0,-1.2317,0.0,0.0,0.0,0.0,-1.0654,-1.0241,-1.0327,-1.0557,-1.0748,-1.0969,0.0,-1.1162,0.0,0.0,0.0,0.0,0.0,0.0,0.0,0.0,0.0,0.0,0.0,0.0,0.0,-1.0895,0.0,-1.0708,0.0,0.0,0.0,0.0,0.0,0.0,0.0,0.0,0.0,0.0,0.0,0.0,0.0,0.0,0.0,0.0,0.0,0.0,0.0,0.0,-1.1941,-1.1536,-1.1984,-1.2371,-1.2672,-1.2852,-1.3086,-1.3394,-1.3394,-1.354,-1.3834,-1.3955,-1.4255,-1.471,-1.483,-1.5137,-1.5578,-1.5578,-1.5671,-1.5832,-1.5832,-1.5832,-1.5838,-1.5965,-1.6119,-1.6299,-1.6553,-1.686,-1.7271,-1.6552,-1.6522,-1.6522,-1.6522,-1.6522,-1.6572,-1.6735,-1.6965,0.0,0.0,0.0,0.0,-1.6915,-1.5797,0.0,0.0,-1.499,-1.4717,0.0,0.0,-1.4473,0.0,0.0,0.0,-1.5068,-1.499,-1.4951,-1.4951,-1.4521,-1.4365,-1.4473,-1.4194,-1.4204,-1.4408,-1.3916,-1.359,-1.3406,0.0,-1.3191,-1.3122,-1.2797,-1.262,-1.2438,-1.1295,-1.0762,-1.0622,-1.0843,-1.088,-1.0855,-1.0722,-1.1102,0.0,-1.1223,0.0,0.0,0.0,0.0,0.0,-1.179,0.0,0.0,0.0,0.0,0.0,0.0,0.0,0.0,0.0,0.0,0.0,0.0,0.0,0.0,-1.0454,0.0,0.0,0.0,0.0,0.0,0.0,0.0,0.0,0.0,0.0,0.0,0.0,-1.1411,0.0,-1.118,-1.1606,-1.192,-1.2171,-1.2392,-1.2692,-1.308,-1.308,-1.3273,-1.3559,-1.3559,-1.3948,-1.4522,-1.4522,-1.4843,-1.5398,-1.5398,-1.5565,-1.5832,-1.5832,-1.5832,-1.5832,-1.5832,-1.5965,-1.6159,-1.6246,-1.6547,-1.6934,-1.671,-1.6522,-1.6522,-1.6522,-1.6522,-1.671,-1.7262,0.0,0.0,0.0,0.0,0.0,0.0,0.0,0.0,0.0,0.0,-1.6182,-1.6621,0.0,-1.4824,0.0,0.0,-1.5019,0.0,-1.498,-1.5391,-1.5391,-1.4971,-1.4971,-1.5352,-1.4467,-1.458,-1.5332,-1.4437,-1.4355,-1.4736,-1.4253,-1.3863,-1.3462,-1.3452,-1.2638,-1.1444,0.0,-1.2067,-1.1757,-1.1764,0.0,0.0,-1.0889,-1.0995,0.0,0.0,0.0,0.0,0.0,0.0,0.0,0.0,0.0,0.0,-1.157,0.0,0.0,0.0,0.0,-1.0902,0.0,0.0,0.0,0.0,-1.0624,-1.0468,-1.018,-1.0114,0.0,0.0,0.0,0.0,0.0,0.0,0.0,0.0,0.0,0.0,-1.1263,-1.1517,-1.1689,-1.1571,-1.1622,-1.1689,-1.1928,-1.1891,-1.2178,-1.2835,-1.2835,-1.306,-1.3559,-1.3559,-1.3948,-1.4522,-1.4522,-1.4843,-1.5398,-1.5398,-1.5565,-1.5832,-1.5832,-1.5832,-1.5832,-1.5832,-1.5838,-1.5879,-1.6166,-1.6286,-1.638,-1.6627,-1.7124,-1.74,-1.6647,0.0,0.0,0.0,-1.7387,0.0,0.0,0.0,0.0,0.0,-1.7972,-1.7842,0.0,0.0,-1.7295,-1.7168,-1.6611,0.0,0.0,0.0,-1.6016,0.0,0.0,-1.584,-1.584,-1.541,-1.5273,-1.54,-1.5117,-1.5137,-1.5391,-1.4814,-1.4492,0.0,0.0,0.0,0.0,0.0,-1.3588,-1.2943,0.0,0.0,-1.0704,-1.0913,-1.08,0.0,-1.0675,-1.0835,-1.0975,-1.0882,-1.1049,-1.1263,-1.1169,-1.1416,0.0,0.0,0.0,-1.2204,-1.1817,0.0,0.0,0.0,0.0,0.0,0.0,0.0,0.0,0.0,-1.0624,-1.0591,-1.0428,-1.0087,-0.9986,0.0,0.0,0.0,0.0,0.0,0.0,0.0,0.0,0.0,-1.0413,-1.1231,-1.1511,0.0,-1.0891,-1.1033,-1.1276,-1.1663,-1.2058,-1.2452,-1.2452,-1.2759,-1.336,-1.336,-1.3667,-1.4235,-1.4235,-1.4442,-1.483,-1.5023,-1.5277,-1.5558,-1.5752,-1.5832,-1.5832,-1.5832,-1.5832,-1.5838,-1.5945,-1.6226,-1.664,-1.6942,-1.7413,0.0,0.0,0.0,0.0,0.0,0.0,0.0,0.0,-1.8447,0.0,-1.9606,0.0,-1.9199,0.0,-1.9004,-1.8379,-1.7656,-1.748,0.0,-1.5879,-1.6406,0.0,0.0,0.0,-1.6125,-1.6125,-1.5781,-1.5644,-1.5644,-1.5488,-1.541,-1.54,-1.5127,-1.4687,-1.4077,-1.4077,-1.3912,0.0,0.0,-1.3477,0.0,0.0,-1.0968,-1.0857,0.0,-1.0863,-1.0624,-1.0624,-1.0681,-1.0808,-1.0678,-1.0815,-1.1082,-1.0895,-1.1256,-1.171,-1.171,-1.1997,0.0,-1.1944,-1.1724,0.0,-1.1082,0.0,0.0,0.0,0.0,0.0,0.0,0.0,-1.0624,-1.0624,-1.0067,-0.9886,0.0,-1.003,0.0,0.0,0.0,0.0,0.0,0.0,-1.1396,-1.0233,-1.0987,-1.115,0.0,0.0,-1.0733,-1.0828,-1.1403,-1.185,-1.2144,-1.2251,-1.2552,-1.3046,-1.316,-1.346,-1.3935,-1.4041,-1.4249,-1.4536,-1.4836,-1.513,-1.5418,-1.5712,-1.5832,-1.5832,-1.5832,-1.5832,-1.5832,-1.5832,-1.6199,-1.6774,0.0,0.0,0.0,0.0,-1.7124,0.0,0.0,0.0,-1.8294,0.0,-1.867,-1.8762,-1.876,-1.9473,-2.0026,-1.998,-1.9961,0.0,-1.8184,-1.8477,0.0,0.0,-1.6367,-1.6406,-1.5498,0.0,0.0,0.0,-1.6125,-1.6125,-1.6115,-1.5615,-1.542,-1.5439,-1.542,-1.4932,-1.4077,-1.4077,-1.3672,-1.2939,-1.292,-1.2486,-1.18,-1.1768,0.0,-1.2084,-1.1829,-1.1226,-1.0624,-1.0624,-1.0624,-1.0624,-1.0624,-1.0624,-1.0624,-1.0624,-1.0962,-1.1403,-1.1403,-1.1837,-1.2211,-1.1917,0.0,0.0,0.0,0.0,-1.167,0.0,0.0,0.0,0.0,0.0,-1.0624,-1.0624,-1.008,-0.972,-0.9798,0.0,0.0,0.0,0.0,0.0,0.0,-1.0364,-1.0762,-1.0762,-1.0762,-1.0609,0.0,0.0,-1.063,-1.0584,-1.1116,-1.157,-1.1864,-1.2158,-1.2458,-1.2849,-1.3066,-1.3367,-1.3674,-1.3955,-1.4242,-1.4516,-1.483,-1.5117,-1.5398,-1.5705,-1.5832,-1.5832,-1.5832,-1.5832,-1.5832,-1.5858,-1.6226,-1.6747,-1.7584,-1.7714,-1.8204,0.0,-1.8756,-1.8573,0.0,0.0,0.0,0.0,-2.054,-2.1108,-2.0613,-2.112,-2.1268,-2.0859,-2.0586,0.0,0.0,0.0,0.0,-1.7412,-1.7861,-1.7531,-1.6416,-1.6816,0.0,-1.6125,0.0,-1.6125,-1.6115,-1.5615,-1.5586,-1.5879,-1.5557,-1.4932,-1.4077,-1.4077,-1.3951,-1.3789,-1.3477,-1.3168,0.0,0.0,-1.1867,-1.1269,-1.0967,-1.0807,-1.0624,-1.0624,-1.0624,-1.0624,-1.0624,-1.0624,-1.0624,-1.0624,-1.0822,-1.1102,-1.1102,-1.153,-1.1911,-1.1617,-1.1543,-1.1443,0.0,0.0,0.0,0.0,0.0,0.0,0.0,0.0,0.0,-1.0624,-1.0247,-0.9932,-0.9726,0.0,0.0,-0.9735,0.0,0.0,0.0,-1.0115,-1.061,-1.0115,-1.0064,0.0,0.0,0.0,0.0,-1.0214,-1.1009,-1.157,-1.1864,-1.2158,-1.2565,-1.3093,-1.3173,-1.3474,-1.3975,-1.4055,-1.4128,-1.4229,-1.4743,-1.501,-1.5117,-1.5618,-1.5832,-1.5832,-1.5832,-1.5832,-1.5879,-1.6319,-1.658,-1.678,-1.8229,0.0,0.0,-2.0351,0.0,0.0,-1.9749,0.0,0.0,-2.0769,-2.155,0.0,-2.1262,-2.1444,-2.1477,-2.1017,-2.0713,0.0,-1.9941,0.0,0.0,-1.833,-1.833,-1.7852,-1.6694,-1.6777,0.0,-1.6357,0.0,-1.6074,-1.6621,-1.5801,-1.5752,-1.6328,-1.5693,-1.5146,-1.4658,-1.4092,-1.3857,-1.3838,-1.3603,0.0,0.0,-1.2453,-1.1981,-1.134,-1.1171,-1.0926,-1.0624,-1.0624,-1.0624,-1.0624,-1.0624,-1.0624,-1.0624,-1.0624,-1.0768,-1.0995,-1.0995,-1.1329,-1.1637,-1.147,-1.1423,-1.1349,-1.1056,-1.1089,-1.1142,0.0,0.0,0.0,0.0,0.0,0.0,-1.0388,-1.0227,-1.0013,0.0,0.0,0.0,0.0,-0.9532,0.0,0.0,0.0,-0.9762,-0.9413,0.0,0.0,0.0,0.0,0.0,-0.992,-1.1149,-1.1764,-1.1677,-1.2485,-1.2926,-1.3013,-1.3273,-1.3574,-1.3901,-1.4028,-1.4155,-1.4295,-1.4623,-1.4917,-1.5177,-1.5504,-1.5712,-1.5832,-1.5832,-1.5832,-1.5885,-1.6346,-1.66,-1.6774,0.0,0.0,0.0,0.0,0.0,0.0,0.0,-2.1463,0.0,-2.2127,0.0,-2.2254,-2.1544,-2.166,-2.1519,-2.1041,0.0,-2.0621,-2.0171,-2.0017,-1.9551,-1.876,-1.8271,-1.7607,-1.6748,-1.6289,-1.625,0.0,-1.5811,-1.6094,-1.7353,-1.6094,-1.5967,-1.6777,-1.5957,-1.5488,0.0,-1.4141,-1.3643,-1.3594,-1.3652,-1.2994,-1.2076,-1.2472,-1.2378,-1.195,-1.195,-1.1538,-1.0933,-1.0933,-1.0933,-1.0933,-1.0807,-1.0744,-1.0744,-1.0618,-1.0742,-1.0935,-1.0935,-1.1149,-1.1363,-1.1323,-1.1369,-1.1336,-1.1009,-1.1162,-1.1296,-1.1042,-1.0962,-1.1022,0.0,0.0,0.0,-1.0267,-1.02,-1.0087,0.0,0.0,0.0,0.0,0.0,0.0,0.0,0.0,0.0,0.0,0.0,0.0,0.0,0.0,0.0,-0.9908,-1.1397,0.0,-1.1543,0.0,-1.332,-1.3003,-1.3414,-1.3585,-1.3707,-1.3968,-1.4249,-1.4522,-1.4563,-1.489,-1.5398,-1.5438,-1.5605,-1.5832,-1.5832,-1.5832,-1.5858,-1.6119,-1.6426,-1.6747,0.0,0.0,0.0,0.0,0.0,-2.319,-2.3443,-2.4252,-2.4451,-2.3538,-2.4732,-2.5016,-2.3329,-2.3852,-2.3993,-2.3084,-2.2264,0.0,0.0,0.0,0.0,-1.9199,-1.8428,-1.7607,-1.6748,-1.6289,-1.6103,0.0,-1.5664,-1.6094,-1.7363,-1.6396,-1.6416,-1.7246,-1.6728,-1.5898,-1.4883,-1.4658,0.0,-1.4053,-1.4414,-1.4232,-1.377,-1.3841,-1.3434,-1.2765,-1.2765,-1.2704,-1.2581,-1.2581,-1.2581,-1.2458,-1.1779,-1.1593,-1.1469,-1.08,-1.0658,-1.0698,-1.0698,-1.0848,-1.1009,-1.0775,-1.1069,-1.1289,-1.0755,-1.0862,-1.1056,-1.1002,-1.0802,-1.0728,-1.1015,0.0,0.0,0.0,0.0,0.0,0.0,0.0,0.0,0.0,0.0,0.0,0.0,0.0,0.0,0.0,0.0,0.0,0.0,0.0,0.0,0.0,0.0,0.0,0.0,0.0,-1.322,-1.3854,-1.3714,-1.3774,-1.4008,-1.4062,-1.4249,-1.4536,-1.4776,-1.5084,-1.5418,-1.5658,-1.5785,-1.5832,-1.5832,-1.5832,-1.5838,-1.5885,-1.6246,-1.6747,0.0,0.0,0.0,0.0,0.0,0.0,0.0,-2.6389,0.0,-2.4857,-2.5018,-2.496,-2.3943,-2.4103,-2.4036,-2.3514,-2.3073,-2.2456,-2.1776,-2.0833,-1.9968,-1.8965,-1.835,0.0,-1.6748,-1.6074,-1.5947,-1.6406,-1.5518,-1.5986,-1.7686,-1.6582,-1.6596,-1.7344,-1.6445,-1.582,0.0,0.0,0.0,-1.4492,-1.4697,-1.444,-1.3934,-1.4132,-1.3965,-1.3606,-1.3606,-1.3906,-1.4145,-1.3312,-1.3009,-1.2948,-1.2512,-1.2143,-1.171,-1.1351,-1.0926,-1.0624,-1.0624,-1.0661,-1.0735,-1.0658,-1.0768,-1.0902,-1.0692,-1.0668,-1.0768,-1.0768,-1.0719,-1.0648,-1.0942,-1.0755,0.0,0.0,0.0,0.0,0.0,0.0,0.0,0.0,0.0,0.0,0.0,0.0,0.0,0.0,0.0,0.0,0.0,0.0,0.0,0.0,0.0,0.0,0.0,0.0,0.0,-1.3854,-1.3868,-1.3948,-1.4088,-1.4088,-1.4329,-1.475,-1.4736,-1.507,-1.5631,-1.5772,-1.5832,-1.5832,-1.5832,-1.5832,-1.5845,-1.6005,-1.6333,-1.6727,0.0,-2.4067,0.0,0.0,-2.6352,0.0,-2.7231,-2.7758,-2.7595,-2.6138,-2.5227,-2.4675,-2.4675,-2.4202,-2.3936,-2.3936,-2.3629,-2.2889,-2.1592,-2.0931,-2.0029,-1.8652,-1.8144,-1.7519,-1.6748,-1.5869,-1.5801,0.0,-1.5469,-1.5928,-1.7852,-1.6826,-1.6719,-1.7334,0.0,0.0,0.0,0.0,-1.4639,-1.4795,-1.4883,-1.4563,-1.402,-1.4332,-1.4451,-1.4451,-1.4451,-1.4874,-1.5235,-1.3965,-1.3485,-1.3485,-1.3312,-1.2696,-1.202,-1.1834,-1.1226,-1.0624,-1.0624,-1.0624,-1.0624,-1.0624,-1.0672,-1.0698,-1.0638,-1.0672,-1.0698,-1.0638,-1.0672,-1.0762,-1.1116,-1.0942,0.0,0.0,0.0,0.0,0.0,0.0,0.0,0.0,0.0,0.0,0.0,0.0,0.0,0.0,0.0,0.0,0.0,0.0,0.0,0.0,0.0,-1.2191,-1.2158,0.0,-1.3941,0.0,-1.4008,-1.4122,-1.4182,-1.4182,-1.4496,-1.5044,-1.481,-1.5137,-1.5832,-1.5832,-1.5832,-1.5832,-1.5832,-1.5832,-1.5865,-1.6166,-1.646,-1.6714,0.0,0.0,0.0,0.0,0.0,0.0,0.0,-2.7758,-2.7871,-2.7218,-2.6621,-2.6308,-2.6308,-2.5747,-2.5393,-2.5393,-2.4109,-2.2923,-2.1976,-2.07,-1.9551,-1.8633,-1.7871,-1.7227,-1.6685,-1.5869,-1.5644,0.0,0.0,-1.6064,-1.7441,-1.7314,-1.7305,0.0,0.0,0.0,0.0,-1.5771,-1.5459,-1.4814,-1.5205,-1.5293,-1.5235,-1.5274,-1.5294,-1.5294,-1.5294,-1.5352,-1.5352,-1.5235,-1.5167,-1.505,-1.4332,-1.3545,-1.2757,-1.202,-1.1226,-1.0624,-1.0624,-1.0624,-1.0624,-1.0624,-1.0755,-1.0882,-1.0685,-1.0762,-1.0875,-1.0678,-1.0768,-1.1122,-1.1683,-1.1543,-1.145,0.0,0.0,0.0,0.0,0.0,0.0,-1.0254,0.0,0.0,0.0,0.0,0.0,0.0,0.0,0.0,0.0,0.0,0.0,-1.2018,0.0,-1.2291,-1.308,-1.3487,0.0,-1.4436,-1.4202,-1.4222,-1.4482,-1.4482,-1.4803,-1.5351,-1.5324,-1.5511,-1.5832,-1.5832,-1.5832,-1.5832,-1.5832,-1.5832,-1.5865,-1.6166,-1.646,-1.674,0.0,0.0,0.0,0.0,0.0,0.0,0.0,-2.8185,-2.7908,-2.7356,-2.6804,-2.6533,-2.6533,-2.5937,-2.5598,-2.5598,-2.4756,-2.3502,-2.1767,-2.1084,-2.0058,-1.834,-1.7939,-1.7559,-1.7139,-1.626,-1.6016,0.0,0.0,-1.6348,-1.7373,-1.7119,0.0,0.0,0.0,-1.5811,-1.5781,-1.5439,-1.5244,-1.5176,-1.5342,-1.541,-1.541,-1.541,-1.541,-1.541,-1.541,-1.541,-1.541,-1.541,-1.541,-1.5352,-1.4991,-1.4392,-1.3666,-1.3356,-1.232,-1.1351,-1.1351,-1.0989,-1.0665,-1.0775,-1.0775,-1.0795,-1.1022,-1.0902,-1.0755,-1.0808,-1.0915,-1.1169,-1.1757,-1.1623,-1.1577,0.0,0.0,0.0,0.0,0.0,0.0,0.0,0.0,-1.0575,0.0,0.0,0.0,0.0,0.0,0.0,0.0,0.0,0.0,-1.1486,0.0,-1.2211,-1.2926,-1.3407,-1.3854,-1.4262,-1.4315,-1.4409,-1.4529,-1.4703,-1.501,-1.5404,-1.5578,-1.5718,-1.5832,-1.5832,-1.5832,-1.5832,-1.5832,-1.5832,-1.5885,-1.6359,-1.6607,-1.6774,-2.831,0.0,-2.8072,0.0,-2.8863,-2.8674,-2.89,-2.8461,-2.7908,-2.7356,-2.6804,-2.6533,-2.6533,-2.5937,-2.5536,-2.5385,-2.4883,-2.3732,-2.1675,-2.1303,-2.0357,-1.8472,-1.8144,0.0,-1.7207,-1.6582,-1.6289,-1.6348,-1.6152,0.0,-1.6992,0.0,0.0,0.0,-1.5488,-1.542,-1.583,-1.5225,-1.5137,-1.541,-1.541,-1.541,-1.541,-1.541,-1.541,-1.543,-1.5557,-1.5518,-1.543,-1.5557,-1.5518,-1.541,-1.541,-1.4874,-1.4213,-1.4213,-1.3053,-1.1787,-1.1884,-1.1298,-1.0755,-1.1049,-1.0969,-1.0922,-1.1329,-1.1109,-1.0895,-1.1189,-1.1249,-1.1403,-1.1904,-1.1824,-1.1817,-1.2238,0.0,0.0,0.0,0.0,0.0,0.0,-1.0581,-1.0668,-1.0281,0.0,0.0,0.0,0.0,0.0,0.0,0.0,0.0,0.0,0.0,0.0,0.0,-1.3601,-1.4008,-1.4215,-1.4509,-1.4696,-1.479,-1.5084,-1.5331,-1.5531,-1.5738,-1.5832,-1.5832,-1.5832,-1.5832,-1.5838,-1.5925,-1.5959,-1.6032,-1.662,-1.6834,-1.6907,-2.8812,-2.8913,-2.9089,-2.9679,-2.9779,-2.9578,-2.9013,-2.8461,-2.7908,-2.7356,-2.6804,-2.6533,-2.6533,-2.5937,-2.5385,-2.487,-2.433,-2.338,-2.1987,-2.1112,-2.0204,0.0,0.0,-1.7607,-1.6758,-1.6665,-1.6299,-1.543,0.0,0.0,-1.6154,0.0,-1.6494,-1.6125,-1.6115,-1.5811,-1.542,-1.541,-1.541,-1.541,-1.541,-1.541,-1.541,-1.541,-1.541,-1.5469,-1.5908,-1.5781,-1.5478,-1.5908,-1.5762,-1.541,-1.541,-1.4874,-1.4213,-1.4213,-1.3053,-1.1839,-1.2097,-1.1616,-1.1056,-1.1349,-1.1416,-1.1416,-1.1423,-1.1416,-1.1503,-1.1797,-1.1857,-1.1951,-1.2245,-1.2291,-1.2291,-1.2305,0.0,0.0,0.0,0.0,0.0,0.0,-1.1062,-1.1189,-1.0672,0.0,0.0,0.0,0.0,0.0,0.0,0.0,0.0,-1.1901,-1.2144,0.0,-1.3546,-1.4215,-1.4509,-1.4522,-1.4816,-1.511,-1.5398,-1.5685,-1.5818,-1.5825,-1.5832,-1.5832,-1.5832,-1.5832,-1.5832,-1.5858,-1.6152,-1.6266,-1.6339,-1.6927,-1.7148,-1.7188,-2.9402,-2.9202,-2.9114,-2.9691,-2.9465,-2.9139,-2.895,-2.8134,-2.7482,-2.7306,-2.6804,-2.6533,-2.6533,-2.5937,-2.5385,0.0,-2.4318,-2.343,0.0,-2.1101,-2.0462,-2.0204,-1.8787,-1.814,-1.85,-1.7332,-1.6529,-1.6318,0.0,0.0,0.0,-1.6211,-1.6045,-1.5615,-1.5615,-1.5537,-1.541,-1.541,-1.5586,-1.583,-1.5527,-1.5586,-1.582,-1.5527,-1.541,-1.543,-1.5566,-1.5527,-1.543,-1.5566,-1.5527,-1.541,-1.541,-1.5235,-1.5107,-1.5393,-1.4732,-1.3822,-1.355,-1.2933,-1.2236,-1.1859,-1.1577,-1.153,-1.1931,-1.187,-1.1757,-1.185,-1.187,-1.1957,-1.2245,-1.2138,-1.2004,-1.2004,-1.1597,0.0,0.0,0.0,0.0,0.0,-1.0601,-1.0681,0.0,-1.0708,0.0,0.0,0.0,0.0,0.0,0.0,0.0,0.0,-1.2552,0.0,-1.3941,-1.4529,-1.4823,-1.4823,-1.5117,-1.5411,-1.5698,-1.5785,-1.5832,-1.5832,-1.5832,-1.5832,-1.5832,-1.5832,-1.5945,-1.6139,-1.6239,-1.6393,-1.6613,-1.7007,-1.7148,-1.7194,-2.9679,-2.9327,-2.9114,-2.9691,-2.9315,-2.8863,-2.8649,-2.7858,-2.7205,-2.7005,-2.6747,-2.6533,-2.6533,-2.6138,0.0,-2.4883,-2.4506,-2.3779,-2.2432,-2.1553,-2.1101,-2.1101,-1.9431,-1.8639,-1.9047,0.0,0.0,-1.6484,-1.6035,-1.582,-1.582,-1.582,-1.5674,-1.541,-1.541,-1.541,-1.541,-1.541,-1.5566,-1.5791,-1.5527,-1.5576,-1.5791,-1.5518,-1.541,-1.543,-1.5596,-1.5557,-1.5439,-1.5596,-1.5547,-1.5439,-1.5605,-1.5537,-1.5498,-1.5928,-1.5671,-1.5043,-1.4841,-1.3953,-1.3035,-1.3145,-1.2445,-1.185,-1.2218,-1.2164,-1.2031,-1.2031,-1.2031,-1.2084,-1.2271,-1.2151,-1.1997,-1.1891,-1.147,-1.1122,-1.1009,0.0,0.0,0.0,0.0,0.0,0.0,-1.1142,0.0,0.0,0.0,0.0,0.0,0.0,0.0,-1.2351,-1.3026,0.0,-1.4409,-1.489,-1.5124,-1.513,-1.5424,-1.5651,-1.5832,-1.5832,-1.5832,-1.5832,-1.5832,-1.5832,-1.5832,-1.5832,-1.6005,-1.6286,-1.6393,-1.6613,-1.6907,-1.7201,-1.7315,-1.7335,-2.9679,-2.9289,0.0,0.0,-2.9252,0.0,-2.8185,-2.7607,-2.7042,-2.6596,-2.6533,-2.6508,-2.6471,-2.6496,-2.6013,-2.4921,0.0,0.0,0.0,-2.2347,-2.1939,-2.2002,-2.0333,0.0,-1.8722,-1.792,-1.6968,-1.6076,-1.5615,-1.541,-1.541,-1.541,-1.541,-1.541,-1.541,-1.541,-1.541,-1.541,-1.543,-1.5459,-1.542,-1.543,-1.5459,-1.542,-1.541,-1.5469,-1.5869,-1.5752,-1.5478,-1.5918,-1.5791,-1.5537,-1.5977,-1.585,-1.5625,-1.6035,-1.5898,-1.5614,-1.5891,-1.4788,-1.3785,-1.4939,-1.3803,-1.2378,-1.2298,-1.2305,-1.2305,-1.2305,-1.2318,-1.2325,-1.2305,-1.2305,-1.2198,-1.1891,-1.159,-1.1296,-1.1002,0.0,0.0,0.0,0.0,0.0,0.0,-1.1971,-1.2198,0.0,0.0,0.0,0.0,0.0,-1.2392,-1.3186,-1.3547,-1.4142,-1.4983,-1.5284,-1.5424,-1.5431,-1.5698,-1.5832,-1.5832,-1.5832,-1.5832,-1.5832,-1.5832,-1.5832,-1.5832,-1.5832,-1.6019,-1.6333,-1.66,-1.6901,-1.7215,-1.7482,-1.7582,-1.7582,0.0,0.0,-2.8612,-2.9616,-2.8612,-2.777,-2.8059,-2.7281,-2.6603,-2.6546,-2.6533,-2.6289,-2.585,-2.6189,-2.6013,-2.4921,-2.482,-2.4531,-2.3841,-2.2615,-2.2187,-2.2823,-2.1164,-2.0213,-2.0103,-1.8638,-1.7104,-1.5566,-1.5459,-1.541,-1.541,-1.541,-1.541,-1.541,-1.541,-1.541,-1.541,-1.541,-1.5605,-1.5879,-1.5547,-1.5615,-1.5879,-1.5537,-1.541,-1.542,-1.5527,-1.5498,-1.5478,-1.5918,-1.6056,-1.5986,-1.6436,-1.6728,-1.6934,-1.7041,-1.6776,-1.6417,-1.6446,-1.6147,-1.5748,-1.528,-1.4307,-1.3164,-1.2445,-1.2305,-1.2305,-1.2305,-1.2485,-1.2572,-1.2345,-1.2305,-1.2131,-1.161,-1.1283,-1.0995,-1.0701,-1.0795,0.0,0.0,-1.145,-1.1764,-1.1764,-1.2091,-1.2371,0.0,0.0,0.0,0.0,0.0,-1.3454,-1.322,-1.4148,-1.4856,-1.5291,-1.5578,-1.5732,-1.5732,-1.5798,-1.5832,-1.5832,-1.5832,-1.5832,-1.5832,-1.5832,-1.5832,-1.5832,-1.5832,-1.6139,-1.6607,-1.668,-1.7021,-1.7488,-1.7555,-1.7582,-1.7582,-2.9679,-2.8875,-2.8386,-2.9252,-2.8222,-2.7381,-2.7682,-2.7005,-2.6533,-2.6533,-2.6533,-2.6408,-2.6025,-2.6264,-2.6214,-2.5624,-2.5109,-2.4594,-2.4029,-2.301,-2.2628,-2.3065,-2.1865,-2.1175,-2.1175,-1.9291,-1.7421,-1.5703,-1.5508,-1.541,-1.541,-1.541,-1.541,-1.541,-1.541,-1.541,-1.541,-1.541,-1.5664,-1.6105,-1.5801,-1.5977,-1.6318,-1.5879,-1.5703,-1.5684,-1.5488,-1.541,-1.5478,-1.5918,-1.6125,-1.6243,-1.6826,-1.7061,-1.7168,-1.7549,-1.75,-1.728,-1.7241,-1.6922,-1.6349,-1.5438,-1.5084,-1.4705,-1.3417,-1.3163,-1.3063,-1.2761,-1.2846,-1.2866,-1.2559,-1.2505,-1.2265,-1.1543,-1.1289,-1.1089,-1.0795,-1.0895,0.0,-1.1363,-1.179,-1.2118,-1.2331,-1.2786,-1.3073,-1.2966,0.0,0.0,-1.342,-1.4222,-1.4416,-1.3828,-1.4689,-1.5297,-1.5591,-1.5752,-1.5832,-1.5832,-1.5832,-1.5832,-1.5832,-1.5832,-1.5832,-1.5832,-1.5832,-1.5832,-1.5838,-1.5979,-1.6299,-1.672,-1.6854,-1.7188,-1.7582,-1.7582,-1.7582,-1.7582,-2.9578,-2.8825,-2.8247,-2.8725,-2.7896,-2.718,-2.7268,-2.6816,-2.6533,-2.6533,-2.6533,-2.6496,-2.6339,-2.6483,-2.6496,-2.6339,-2.541,-2.4619,-2.4155,-2.3502,-2.3078,-2.3078,-2.2445,-2.2002,-2.1877,-1.972,-1.778,-1.6125,-1.5693,-1.5478,-1.541,-1.541,-1.541,-1.541,-1.541,-1.541,-1.542,-1.5488,-1.5723,-1.6135,-1.6194,-1.6396,-1.6626,-1.6309,-1.6162,-1.6113,-1.5742,-1.5615,-1.5674,-1.6113,-1.6321,-1.6468,-1.7227,-1.7227,-1.707,-1.7793,-1.8008,-1.8008,-1.8008,-1.7432,-1.6567,-1.5658,-1.6053,-1.6316,-1.4758,-1.4351,-1.4092,-1.354,-1.3319,-1.318,-1.2872,-1.2966,-1.277,-1.1757,-1.1619,-1.1539,-1.1162,0.0,-1.1376,-1.1877,-1.2311,-1.2672,-1.3003,-1.3674,-1.3981,-1.3574,-1.4382,-1.4609,0.0,-1.4856,-1.5164,-1.4669,-1.5177,-1.5578,-1.5825,-1.5832,-1.5832,-1.5832,-1.5832,-1.5832,-1.5832,-1.5832,-1.5832,-1.5832,-1.5832,-1.5832,-1.5852,-1.6152,-1.644,-1.6734,-1.7034,-1.7328,-1.7582,-1.7582,-1.7582,-1.7582,-2.9139,-2.8549,-2.8134,-2.8222,-2.7318,-2.6753,-2.7205,-2.6816,-2.6533,-2.6533,-2.6533,-2.6345,-2.5787,-2.6163,-2.6264,-2.5774,-2.5172,-2.4782,-2.4695,-2.3715,-2.3078,-2.3078,-2.3005,-2.258,-2.1877,-1.972,-1.778,-1.6125,-1.6056,-1.5771,-1.541,-1.541,-1.541,-1.541,-1.541,-1.541,-1.5439,-1.5801,-1.6006,-1.6154,-1.6475,-1.667,-1.6665,-1.665,-1.6631,-1.6621,-1.6553,-1.6523,-1.6592,-1.7031,-1.7178,-1.7266,-1.7764,-1.7871,-1.7832,-1.7969,-1.8008,-1.8008,-1.8008,-1.7872,-1.7579,-1.6645,-1.6758,-1.6803,-1.5756,-1.5114,-1.4665,-1.4562,-1.402,-1.3487,-1.3193,-1.3818,-1.3978,-1.275,-1.2841,-1.2683,-1.1877,0.0,-1.2131,-1.2225,-1.3166,-1.3828,-1.3874,-1.4229,-1.4623,-1.503,-1.4763,-1.475,-1.5104,-1.5297,-1.5357,-1.5264,-1.5585,-1.5785,-1.5832,-1.5832,-1.5832,-1.5832,-1.5832,-1.5832,-1.5832,-1.5832,-1.5832,-1.5832,-1.5832,-1.5832,-1.5852,-1.6152,-1.644,-1.6734,-1.7034,-1.7328,-1.7582,-1.7582,-1.7582,-1.7582,-2.8976,-2.8486,-2.8009,-2.7708,-2.6992,-2.6609,-2.6804,-2.6697,-2.6533,-2.6533,-2.6533,-2.642,-2.6088,-2.6302,-2.642,-2.6088,-2.531,-2.482,-2.482,-2.3766,-2.3078,-2.3078,-2.3078,-2.2627,-2.1522,-2.0087,-1.8582,-1.7134,-1.6663,-1.6318,-1.6123,-1.5879,-1.5762,-1.5752,-1.5518,-1.5537,-1.5771,-1.6037,-1.64,-1.6797,-1.7002,-1.7217,-1.7393,-1.7168,-1.708,-1.7051,-1.6816,-1.6665,-1.6797,-1.7236,-1.7383,-1.7461,-1.7881,-1.8008,-1.8008,-1.8008,-1.8008,-1.8008,-1.8008,-1.8174,-1.8201,-1.7754,-1.8005,-1.8145,-1.7301,-1.6486,-1.5881,-1.6087,-1.5375,-1.4664,-1.4351,-1.4915,-1.4904,-1.3092,-1.3114,0.0,0.0,-1.2458,-1.2719,-1.3206,-1.3888,-1.4382,-1.4543,-1.4823,-1.5037,-1.5157,-1.5204,-1.5271,-1.5391,-1.5545,-1.5631,-1.5631,-1.5758,-1.5832,-1.5832,-1.5832,-1.5832,-1.5832,-1.5832,-1.5912,-1.6072,-1.6072,-1.6152,-1.6293,-1.6132,-1.6072,-1.6092,-1.6386,-1.6587,-1.6747,-1.7208,-1.7462,-1.7582,-1.7582,-1.7582,-1.7582,-2.8762,-2.8298,-2.7745,-2.718,-2.6741,-2.6533,-2.6533,-2.6533,-2.6533,-2.6533,-2.6533,-2.6533,-2.6533,-2.6533,-2.6533,-2.6533,-2.546,-2.482,-2.482,-2.3766,-2.3078,-2.3078,-2.3078,-2.2565,-2.1404,-2.0711,-1.966,-1.8154,-1.7488,-1.7007,-1.6665,-1.6377,-1.6221,-1.6201,-1.5869,-1.5908,-1.623,-1.639,-1.6768,-1.7393,-1.749,-1.7715,-1.7978,-1.7656,-1.7529,-1.748,-1.7148,-1.7031,-1.708,-1.7412,-1.7529,-1.7578,-1.791,-1.8008,-1.8008,-1.8008,-1.8076,-1.8154,-1.8154,-1.8467,-1.8789,-1.8789,-1.9111,-1.929,-1.8757,-1.8013,-1.7431,-1.7806,-1.6966,-1.6147,-1.5975,-1.6353,-1.5988,-1.3839,0.0,0.0,0.0,-1.3138,-1.3493,-1.4503,-1.4669,-1.4898,-1.5473,-1.5501,-1.5404,-1.5177,-1.5578,-1.5732,-1.5504,-1.5705,-1.5832,-1.5832,-1.5832,-1.5832,-1.5832,-1.5832,-1.5832,-1.5832,-1.5899,-1.6052,-1.6279,-1.6339,-1.65,-1.6693,-1.6473,-1.6373,-1.6393,-1.6687,-1.6807,-1.686,-1.7375,-1.7582,-1.7582,-1.7582,-1.7582,-1.7582,-2.848,-2.772,-2.7168,-2.6615,-2.6559,-2.6533,-2.6533,-2.6533,-2.6533,-2.6533,-2.6533,-2.6533,-2.6533,-2.6533,-2.6533,-2.6533,-2.546,-2.482,-2.482,-2.3766,-2.3078,-2.3078,-2.3078,-2.2677,-2.1892,-2.1818,-2.0666,-1.8554,-1.849,-1.7849,-1.6665,-1.6699,-1.668,-1.668,-1.665,-1.6587,-1.6709,-1.7119,-1.7324,-1.7422,-1.7803,-1.7978,-1.8008,-1.7978,-1.7969,-1.7959,-1.793,-1.792,-1.792,-1.7949,-1.7969,-1.7969,-1.7998,-1.8008,-1.8008,-1.8008,-1.8281,-1.8594,-1.8594,-1.8906,-1.9238,-1.9238,-1.9551,-1.9873,-1.9752,-1.9571,-1.9371,-1.9407,-1.8585,-1.7837,-1.7804,-1.8028,-1.7553,-1.5784,0.0,0.0,-1.4227,-1.3988,-1.4517,-1.593,-1.5672,-1.5782,-1.6943,-1.6251,-1.5792,-1.5765,-1.5805,-1.5818,-1.5798,-1.5818,-1.5832,-1.5832,-1.5832,-1.5832,-1.5832,-1.5832,-1.5832,-1.5832,-1.6112,-1.6253,-1.6286,-1.6553,-1.6687,-1.6707,-1.6687,-1.6673,-1.6693,-1.6994,-1.7114,-1.7148,-1.7462,-1.7582,-1.7582,-1.7582,-1.7582,-1.7582,-2.91,-2.8341,-2.762,-2.7067,-2.6691,-2.6533,-2.6533,-2.6533,-2.6533,-2.6533,-2.6533,-2.6533,-2.6533,-2.6533,-2.6533,-2.6533,-2.5749,-2.531,-2.531,-2.428,-2.3502,-2.309,-2.3078,-2.2944,-2.2641,-2.2137,-2.146,-2.0626,-2.012,-1.9329,-1.8267,-1.7769,-1.7362,-1.7109,-1.6562,-1.6621,-1.7148,-1.7314,-1.7529,-1.7793,-1.7949,-1.8008,-1.8008,-1.8008,-1.8008,-1.8008,-1.8008,-1.8008,-1.8008,-1.8008,-1.8008,-1.8057,-1.832,-1.8398,-1.8447,-1.8721,-1.9102,-1.9424,-1.9424,-1.9551,-1.9678,-1.9678,-2.0205,-2.0732,-2.0732,-2.0348,-2.0154,-2.0853,-2.0163,-1.9393,-1.9393,-1.9797,-1.9558,-1.7777,0.0,-1.7809,-1.6977,-1.6908,-1.7204,-1.7977,-1.8002,-1.785,-1.7574,-1.7145,-1.6669,-1.5825,-1.5832,-1.5832,-1.5832,-1.5832,-1.5832,-1.5832,-1.5832,-1.5832,-1.5832,-1.5832,-1.5919,-1.6106,-1.6219,-1.6466,-1.682,-1.6927,-1.7081,-1.7241,-1.7061,-1.6981,-1.6987,-1.7101,-1.7148,-1.7181,-1.7468,-1.7582,-1.7582,-1.7582,-1.7582,-1.7582,-2.9614,-2.8569,-2.767,-2.7118,-2.6716,-2.6533,-2.6533,-2.6533,-2.6533,-2.6533,-2.6533,-2.6533,-2.6533,-2.6533,-2.6533,-2.6533,-2.5937,-2.5598,-2.5598,-2.4757,-2.3916,-2.3103,-2.3078,-2.3078,-2.3078,-2.2567,-2.2125,-2.1877,-2.1302,-2.059,-1.9672,-1.885,-1.8288,-1.7925,-1.7071,-1.7012,-1.7578,-1.7578,-1.7744,-1.8008,-1.8008,-1.8008,-1.8008,-1.8008,-1.8008,-1.8008,-1.8008,-1.8008,-1.8037,-1.8164,-1.8213,-1.8281,-1.8711,-1.8848,-1.8955,-1.9521,-1.9893,-2.0176,-2.0459,-2.0537,-2.0498,-2.0361,-2.0791,-2.1269,-2.1406,-2.1161,-2.1184,-2.1903,-2.1455,-2.0922,-2.0922,-2.1196,-2.0933,-1.9314,-1.9339,-1.9306,-1.8843,-1.8762,-1.8983,-1.9707,-1.9611,-1.9314,-1.8864,-1.8141,-1.7318,-1.648,-1.6015,-1.5872,-1.5965,-1.5879,-1.5912,-1.6099,-1.5925,-1.5872,-1.5965,-1.5879,-1.5979,-1.6273,-1.6366,-1.6673,-1.7154,-1.7241,-1.7395,-1.7569,-1.7375,-1.7288,-1.7288,-1.7288,-1.7288,-1.7301,-1.7502,-1.7582,-1.7582,-1.7582,-1.7582,-1.7582,-2.9648,-2.8318,-2.7105,-2.6634,-2.6533,-2.6533,-2.6533,-2.6533,-2.6533,-2.6533,-2.6533,-2.6533,-2.6533,-2.6533,-2.6533,-2.6533,-2.5937,-2.5598,-2.5598,-2.5109,-2.433,-2.3128,-2.3078,-2.3078,-2.3078,-2.3078,-2.2689,-2.1877,-2.1877,-2.1491,-2.059,-1.9748,-1.9299,-1.9243,-1.8395,-1.8008,-1.8008,-1.8008,-1.8008,-1.8008,-1.8008,-1.8008,-1.8008,-1.8008,-1.8008,-1.8008,-1.8018,-1.8018,-1.8076,-1.8496,-1.8643,-1.8721,-1.916,-1.9297,-1.9463,-2.0322,-2.0576,-2.0771,-2.165,-2.1885,-2.1777,-2.1348,-2.124,-2.1357,-2.1787,-2.2217,-2.2519,-2.2519,-2.2519,-2.2519,-2.2519,-2.2178,-2.1543,-2.0391,-2.0214,-2.0009,-1.9264,-1.9146,-1.9626,-2.1159,-2.0305,-2.0034,-2.1203,-1.9131,-1.7692,-1.7692,-1.6581,-1.5965,-1.6357,-1.5992,-1.6099,-1.6687,-1.6139,-1.5979,-1.6273,-1.5979,-1.5979,-1.6279,-1.6567,-1.6867,-1.7161,-1.7455,-1.7582,-1.7582,-1.7582,-1.7582,-1.7582,-1.7582,-1.7582,-1.7582,-1.7582,-1.7582,-1.7582,-1.7582,-1.7582,-1.7582,-2.998,-2.889,-2.7924,-2.7195,-2.6716,-2.6533,-2.6533,-2.6533,-2.6533,-2.6533,-2.6533,-2.6533,-2.6533,-2.6533,-2.6533,-2.6533,-2.637,-2.6025,-2.5624,-2.5448,-2.5046,-2.4343,-2.3941,-2.374,-2.374,-2.3339,-2.3005,-2.2763,-2.2763,-2.2322,-2.1479,-2.0931,-2.0191,-1.9288,-1.8702,-1.8227,-1.8008,-1.8008,-1.8008,-1.8008,-1.8008,-1.8008,-1.8008,-1.8008,-1.8008,-1.8047,-1.835,-1.8447,-1.8516,-1.8945,-1.9092,-1.917,-1.959,-2.0156,-2.0703,-2.0957,-2.125,-2.1553,-2.1816,-2.1885,-2.1855,-2.1728,-2.1914,-2.2168,-2.2295,-2.2646,-2.2949,-2.2949,-2.2949,-2.2949,-2.2949,-2.2852,-2.2668,-2.2303,-2.2207,-2.2168,-2.1933,-2.1864,-2.2086,-2.2482,-2.2227,-2.1854,-2.1382,-2.0666,-1.9962,-1.9386,-1.9352,-1.9343,-1.9445,-1.8409,-1.7967,-1.8057,-1.7014,-1.6486,-1.6573,-1.6286,-1.6286,-1.658,-1.6874,-1.7168,-1.7455,-1.7542,-1.7582,-1.7582,-1.7582,-1.7582,-1.7582,-1.7582,-1.7582,-1.7582,-1.7582,-1.7582,-1.7582,-1.7582,-1.8199,-1.8916,-3.0538,-2.9333,-2.8284,-2.758,-2.6942,-2.6533,-2.6533,-2.6533,-2.6533,-2.6533,-2.6533,-2.6533,-2.6533,-2.6533,-2.6533,-2.6533,-2.6533,-2.6382,-2.5963,-2.5937,-2.5799,-2.5485,-2.4933,-2.4431,-2.4004,-2.3427,-2.3078,-2.3078,-2.3078,-2.2823,-2.2372,-2.174,-2.1063,-2.0322,-1.964,-1.9036,-1.8529,-1.8529,-1.8337,-1.8027,-1.8193,-1.8262,-1.8281,-1.8447,-1.8516,-1.8555,-1.8809,-1.8896,-1.8955,-1.9394,-1.9648,-1.9863,-2.0303,-2.0801,-2.1299,-2.1641,-2.1934,-2.2168,-2.2334,-2.2383,-2.2383,-2.2383,-2.2451,-2.2559,-2.2725,-2.2959,-2.3135,-2.3135,-2.3135,-2.3135,-2.3135,-2.3135,-2.3135,-2.3135,-2.3135,-2.3135,-2.3135,-2.3135,-2.3135,-2.3135,-2.3135,-2.2775,-2.212,-2.1724,-2.1243,-2.0404,-2.0637,-2.082,-2.0962,-1.9493,-1.9056,-1.9813,-1.7803,-1.7055,-1.7666,-1.7,-1.6707,-1.6881,-1.7061,-1.7301,-1.7582,-1.7582,-1.7582,-1.7582,-1.7582,-1.7582,-1.7582,-1.7582,-1.7582,-1.7582,-1.7582,-1.7582,-1.7687,-1.8199,-1.8909,-1.9524,-3.1137,-2.9776,-2.8518,-2.7881,-2.7162,-2.6589,-2.6589,-2.6521,-2.6533,-2.6533,-2.6533,-2.6533,-2.6533,-2.6533,-2.6533,-2.6533,-2.6533,-2.6533,-2.6533,-2.6533,-2.6533,-2.6533,-2.59,-2.5134,-2.4167,-2.3527,-2.3128,-2.3078,-2.3078,-2.3078,-2.3065,-2.2384,-2.1939,-2.1877,-2.1037,-2.0204,-1.9431,-1.9299,-1.8875,-1.8232,-1.8477,-1.8662,-1.874,-1.9131,-1.9287,-1.9287,-1.9326,-1.9346,-1.9404,-1.9824,-2.0264,-2.0703,-2.1103,-2.1289,-2.1504,-2.2285,-2.2539,-2.2646,-2.3037,-2.3135,-2.3135,-2.3135,-2.2852,-2.2666,-2.3057,-2.3135,-2.3135,-2.3135,-2.3135,-2.3135,-2.3135,-2.3135,-2.3135,-2.3135,-2.3135,-2.3154,-2.3193,-2.3193,-2.3213,-2.3252,-2.3252,-2.3252,-2.3252,-2.2634,-2.199,-2.1266,-2.123,-2.1294,-2.1632,-2.0067,-1.9996,-2.1828,-1.8844,-1.7895,-1.9388,-1.8186,-1.7579,-1.7353,-1.7373,-1.7633,-1.7989,-1.7989,-1.7989,-1.7989,-1.7989,-1.7891,-1.7786,-1.7786,-1.7687,-1.7582,-1.7681,-1.7786,-1.7891,-1.9324,-1.9834,-1.9937,-3.0592,-3.0197,-2.9659,-2.8839,-2.7986,-2.7417,-2.7417,-2.6905,-2.6533,-2.6533,-2.6533,-2.6533,-2.6533,-2.6533,-2.6533,-2.6533,-2.6533,-2.6533,-2.6533,-2.6533,-2.6533,-2.6533,-2.59,-2.5485,-2.5247,-2.4305,-2.359,-2.3078,-2.3078,-2.3078,-2.3078,-2.2944,-2.2506,-2.1877,-2.169,-2.1101,-2.0268,-1.9562,-1.9375,-1.9435,-1.8864,-1.8848,-1.916,-1.9248,-1.9287,-1.9336,-1.9658,-1.9775,-1.9844,-2.0273,-2.0723,-2.1103,-2.1201,-2.1699,-2.2275,-2.2461,-2.2744,-2.3027,-2.3115,-2.3135,-2.3135,-2.3135,-2.3066,-2.3027,-2.3115,-2.3135,-2.3135,-2.3135,-2.3135,-2.3135,-2.3135,-2.3135,-2.3135,-2.3135,-2.3135,-2.3262,-2.3603,-2.3652,-2.3769,-2.4102,-2.4141,-2.4141,-2.4141,-2.4346,-2.4344,-2.4136,-2.4449,-2.4685,-2.4673,-2.3377,-2.2801,-2.3276,-2.1494,-2.0748,-2.1131,-2.0828,-2.0093,-1.8752,-1.9001,-1.9656,-2.0837,-2.0837,-2.0837,-2.0837,-2.0837,-2.0231,-1.9117,-1.9117,-1.8506,-1.7681,-1.8708,-1.9117,-1.9324,-2.0743,-2.1963,-2.282,-3.097,-3.0208,-2.9566,-2.9066,-2.7986,-2.7095,-2.7095,-2.6782,-2.6533,-2.6533,-2.6533,-2.6533,-2.6533,-2.6533,-2.6533,-2.6533,-2.6533,-2.6533,-2.6533,-2.6533,-2.6533,-2.6533,-2.6163,-2.5875,-2.5598,-2.5046,-2.4368,-2.3552,-2.3215,-2.3078,-2.3078,-2.3078,-2.2884,-2.2519,-2.2787,-2.2447,-2.1608,-2.1393,-2.0904,-2.0338,-2.0063,-1.9813,-1.9609,-1.9814,-1.9893,-1.9922,-2.0146,-2.0225,-2.0293,-2.0732,-2.1045,-2.1309,-2.1719,-2.2148,-2.2549,-2.2754,-2.2969,-2.3135,-2.3135,-2.3135,-2.3135,-2.3135,-2.3135,-2.3135,-2.3135,-2.3135,-2.3135,-2.3135,-2.3135,-2.3203,-2.3408,-2.3447,-2.3516,-2.3711,-2.375,-2.3828,-2.4053,-2.4092,-2.417,-2.4385,-2.4414,-2.4502,-2.4707,-2.4932,-2.5156,-2.5371,-2.5605,-2.583,-2.6035,-2.4514,-2.4089,-2.4998,-2.2863,-2.2055,-2.2667,-2.224,-2.1824,-2.1634,-2.0939,-2.0939,-2.1752,-2.1752,-2.1752,-2.1752,-2.1752,-2.1245,-2.0641,-2.0641,-2.0231,-1.962,-2.0333,-2.0641,-2.0743,-2.2165,-2.3076,-2.3818,-3.1482,-3.0269,-2.9192,-2.9192,-2.7868,-2.6714,-2.6714,-2.6589,-2.6533,-2.6533,-2.6533,-2.6533,-2.6533,-2.6533,-2.6533,-2.6533,-2.6533,-2.6533,-2.6533,-2.6533,-2.6533,-2.6533,-2.6533,-2.6239,-2.5749,-2.5649,-2.5071,-2.4004,-2.3615,-2.3315,-2.3215,-2.3215,-2.3265,-2.3439,-2.3828,-2.3652,-2.3087,-2.3389,-2.2662,-2.1398,-2.157,-2.1188,-2.0577,-2.0795,-2.0867,-2.0779,-2.0644,-2.0615,-2.0732,-2.1113,-2.1338,-2.1582,-2.2285,-2.2568,-2.2685,-2.3037,-2.3135,-2.3135,-2.3135,-2.3135,-2.3135,-2.3135,-2.3135,-2.3154,-2.3232,-2.3252,-2.3252,-2.3252,-2.331,-2.3467,-2.3828,-2.3896,-2.4014,-2.4365,-2.4414,-2.4443,-2.4521,-2.4531,-2.456,-2.4629,-2.4639,-2.4785,-2.5146,-2.5185,-2.5332,-2.5713,-2.581,-2.6006,-2.6367,-2.5073,-2.4974,-2.6484,-2.396,-2.3169,-2.4199,-2.3502,-2.365,-2.4785,-2.3318,-2.2655,-2.2655,-2.2655,-2.2621,-2.246,-2.246,-2.2316,-2.2055,-2.2055,-2.1954,-2.1752,-2.1954,-2.2055,-2.2156,-2.3583,-2.4044,-2.4306,-3.1482,-3.0777,-3.0133,-3.0133,-2.8684,-2.7537,-2.7537,-2.6973,-2.6533,-2.6533,-2.6533,-2.6533,-2.6533,-2.6533,-2.6533,-2.6533,-2.6533,-2.6533,-2.6533,-2.6533,-2.6533,-2.6533,-2.6533,-2.6496,-2.6352,-2.585,-2.5071,-2.4004,-2.4393,-2.4343,-2.3879,-2.3879,-2.4142,-2.4582,-2.418,-2.4192,-2.4449,-2.3821,-2.3561,-2.3699,-2.2987,-2.2828,-2.2911,-2.2081,-2.1811,-2.1735,-2.0857,-2.081,-2.1152,-2.1211,-2.1728,-2.2363,-2.248,-2.2764,-2.3066,-2.3125,-2.3135,-2.3135,-2.3135,-2.3135,-2.3135,-2.3135,-2.3135,-2.3242,-2.3613,-2.3701,-2.3701,-2.3701,-2.3994,-2.4258,-2.4316,-2.4336,-2.4346,-2.4404,-2.4414,-2.4551,-2.4922,-2.498,-2.5127,-2.5518,-2.5557,-2.5586,-2.5644,-2.5644,-2.5674,-2.5732,-2.6084,-2.6328,-2.6387,-2.6468,-2.6652,-2.6924,-2.655,-2.641,-2.6521,-2.6468,-2.6497,-2.6608,-2.6439,-2.6308,-2.6308,-2.6308,-2.6107,-2.5772,-2.5772,-2.4836,-2.3384,-2.3384,-2.2767,-2.1853,-2.2976,-2.3384,-2.3583,-2.4922,-2.5672,-2.609,-3.1482,-3.0837,-3.0133,-2.9628,-2.8556,-2.7537,-2.7095,-2.6714,-2.6533,-2.6533,-2.6533,-2.6533,-2.6533,-2.6533,-2.6533,-2.6533,-2.6533,-2.6533,-2.6533,-2.6533,-2.6533,-2.6533,-2.6533,-2.6533,-2.6533,-2.6214,-2.5686,-2.4883,-2.4845,-2.4695,-2.4456,-2.4456,-2.4594,-2.482,-2.487,-2.5034,-2.5272,-2.5172,-2.4941,-2.4589,-2.4237,-2.3853,-2.3441,-2.2999,-2.2478,-2.1886,-2.0934,-2.0859,-2.1269,-2.1514,-2.2002,-2.2549,-2.2783,-2.2988,-2.3135,-2.3135,-2.3135,-2.3135,-2.3135,-2.3135,-2.3135,-2.3135,-2.332,-2.3555,-2.375,-2.416,-2.4434,-2.4189,-2.4287,-2.4492,-2.4736,-2.4775,-2.4863,-2.5117,-2.5156,-2.5225,-2.541,-2.5439,-2.5518,-2.5713,-2.5742,-2.5742,-2.5742,-2.5742,-2.5742,-2.5742,-2.6143,-2.6494,-2.6728,-2.6914,-2.7129,-2.7373,-2.7139,-2.7012,-2.7012,-2.7256,-2.7373,-2.7383,-2.7617,-2.748,-2.7012,-2.7012,-2.6914,-2.6728,-2.6494,-2.5961,-2.5145,-2.4918,-2.4501,-2.3998,-2.4609,-2.4815,-2.4922,-2.543,-2.5859,-2.6055]},{"header":{"parameterUnit":"m.s-1","parameterCategory":1,"la1":30.6,"la2":28.766,"lo1":-90.7593,"lo2":-88.6598,"dy":0.0162,"dx":0.0183,"nx":116,"ny":114,"refTime":"2023-04-14T00:00:00:Z","depth":0,"parameterNumber":3,"parameterNumberName":"V-component_of_WINDS"},"data":[0.0,0.0,0.0,0.0,0.0,0.0,0.0,0.0,0.0,0.0,0.0,0.0,0.0,0.0,0.0,0.0,0.0,0.0,0.0,0.0,0.0,0.0,0.0,0.0,0.0,0.0,0.0,0.0,0.0,0.0,0.0,0.0,0.0,0.0,0.0,0.0,0.0,0.0,0.0,0.0,0.0,0.0,0.0,0.0,0.0,0.0,0.0,0.0,0.0,0.0,0.0,0.0,0.0,0.0,0.0,0.0,0.0,0.0,0.0,0.0,0.0,0.0,0.0,0.0,0.0,0.0,0.0,0.0,0.0,0.0,0.0,0.0,0.0,0.0,0.0,0.0,0.0,0.0,0.0,0.0,0.0,0.0,0.0,0.0,0.0,0.0,0.0,0.0,0.0,0.0,0.0,0.0,0.0,0.0,0.0,0.0,0.0,0.0,0.0,0.0,0.0,0.0,0.0,0.0,0.0,0.0,0.0,0.0,0.0,0.0,0.0,0.0,0.0,0.0,0.0,0.0,0.0,0.0,0.0,0.0,0.0,0.0,0.0,0.0,0.0,0.0,0.0,0.0,0.0,0.0,0.0,0.0,0.0,0.0,0.0,0.0,0.0,0.0,0.0,0.0,0.0,0.0,0.0,0.0,0.0,0.0,0.0,0.0,0.0,0.0,0.0,0.0,0.0,0.0,0.0,0.0,0.0,0.0,0.0,0.0,0.0,0.0,0.0,0.0,0.0,0.0,0.0,0.0,0.0,0.0,0.0,0.0,0.0,0.0,0.0,0.0,0.0,0.0,0.0,0.0,0.0,0.0,0.0,0.0,0.0,0.0,0.0,0.0,0.0,0.0,0.0,0.0,0.0,0.0,0.0,0.0,0.0,0.0,0.0,0.0,0.0,0.0,0.0,0.0,0.0,0.0,0.0,0.0,0.0,0.0,0.0,0.0,0.0,0.0,0.0,0.0,0.0,0.0,0.0,0.0,0.0,0.0,0.0,0.0,0.0,0.0,0.0,0.0,0.0,0.0,0.0,0.0,0.0,0.0,0.0,0.0,0.0,0.0,0.0,0.0,0.0,0.0,0.0,0.0,0.0,0.0,0.0,0.0,0.0,0.0,0.0,0.0,0.0,0.0,0.0,0.0,0.0,0.0,0.0,0.0,0.0,0.0,0.0,0.0,0.0,0.0,0.0,0.0,0.0,0.0,0.0,0.0,0.0,0.0,0.0,0.0,0.0,0.0,0.0,0.0,0.0,0.0,0.0,0.0,0.0,0.0,0.0,0.0,0.0,0.0,0.0,0.0,0.0,0.0,0.0,0.0,0.0,0.0,0.0,0.0,0.0,0.0,0.0,0.0,0.0,0.0,0.0,0.0,0.0,0.0,0.0,0.0,0.0,0.0,0.0,0.0,0.0,0.0,0.0,0.0,0.0,0.0,0.0,0.0,0.0,0.0,0.0,0.0,0.0,0.0,0.0,0.0,0.0,0.0,0.0,0.0,0.0,0.0,0.0,0.0,0.0,0.0,0.0,0.0,0.0,0.0,0.0,0.0,0.0,0.0,0.0,0.0,0.0,0.0,0.0,0.0,0.0,0.0,0.0,0.0,0.0,0.0,0.0,0.0,0.0,0.0,0.0,0.0,0.0,0.0,0.0,0.0,0.0,0.0,0.0,0.0,0.0,0.0,0.0,0.0,0.0,0.0,0.0,0.0,0.0,0.0,0.0,0.0,0.0,0.0,0.0,0.0,0.0,0.0,0.0,0.0,0.0,0.0,0.0,0.0,0.0,0.0,0.0,0.0,0.0,0.0,0.0,0.0,0.0,0.0,0.0,0.0,0.0,0.0,0.0,0.0,0.0,0.0,0.0,0.0,0.0,0.0,0.0,0.0,0.0,0.0,0.0,0.0,0.0,0.0,0.0,0.0,0.0,0.0,0.0,0.0,0.0,0.0,0.0,0.0,0.0,0.0,0.0,0.0,0.0,0.0,0.0,0.0,0.0,0.0,0.0,0.0,0.0,0.0,0.0,0.0,0.0,0.0,0.0,0.0,0.0,0.0,0.0,0.0,0.0,0.0,0.0,0.0,0.0,0.0,0.0,0.0,0.0,0.0,0.0,0.0,0.0,0.0,0.0,0.0,0.0,0.0,0.0,0.0,0.0,0.0,0.0,0.0,0.0,0.0,0.0,0.0,0.0,0.0,0.0,0.0,0.0,0.0,0.0,0.0,0.0,0.0,0.0,0.0,0.0,0.0,0.0,0.0,0.0,0.0,0.0,0.0,0.0,0.0,0.0,0.0,0.0,0.0,0.0,0.0,0.0,0.0,0.0,0.0,0.0,0.0,0.0,0.0,0.0,0.0,0.0,0.0,0.0,0.0,0.0,0.0,0.0,0.0,0.0,0.0,0.0,0.0,0.0,0.0,0.0,0.0,0.0,0.0,0.0,0.0,0.0,0.0,0.0,0.0,0.0,0.0,0.0,0.0,0.0,0.0,0.0,0.0,0.0,0.0,0.0,0.0,0.0,0.0,0.0,0.0,0.0,0.0,0.0,0.0,0.0,0.0,0.0,0.0,0.0,0.0,0.0,0.0,0.0,0.0,0.0,0.0,0.0,0.0,0.0,0.0,0.0,0.0,0.0,0.0,0.0,0.0,0.0,0.0,0.0,0.0,0.0,0.0,0.0,0.0,0.0,0.0,0.0,0.0,0.0,0.0,0.0,0.0,0.0,0.0,0.0,0.0,0.0,0.0,0.0,0.0,0.0,0.0,0.0,0.0,0.0,0.0,0.0,0.0,0.0,0.0,0.0,0.0,0.0,0.0,0.0,0.0,0.0,0.0,0.0,0.0,0.0,0.0,0.0,0.0,0.0,0.0,0.0,0.0,0.0,0.0,0.0,0.0,0.0,0.0,0.0,0.0,0.0,0.0,0.0,0.0,0.0,0.0,0.0,0.0,0.0,0.0,0.0,0.0,0.0,0.0,0.0,0.0,0.0,0.0,0.0,0.0,0.0,0.0,0.0,0.0,0.0,0.0,0.0,0.0,0.0,0.0,0.0,0.0,0.0,0.0,0.0,0.0,0.0,0.0,0.0,0.0,0.0,0.0,0.0,0.0,0.0,0.0,0.0,0.0,0.0,0.0,0.0,0.0,0.0,0.0,0.0,0.0,0.0,0.0,0.0,0.0,0.0,0.0,0.0,0.0,0.0,0.0,0.0,0.0,0.0,0.0,0.0,0.0,0.0,0.0,0.0,0.0,0.0,0.0,0.0,0.0,0.0,0.0,0.0,0.0,0.0,0.0,0.0,0.0,0.0,0.0,0.0,0.0,0.0,0.0,0.0,0.0,0.0,0.0,0.0,0.0,0.0,0.0,0.0,0.0,0.0,0.0,0.0,0.0,0.0,0.0,0.0,0.0,0.0,0.0,0.0,0.0,0.0,0.0,0.0,0.0,0.0,0.0,0.0,0.0,0.0,0.0,0.0,0.0,0.0,0.0,0.0,0.0,0.0,0.0,0.0,0.0,0.0,0.0,0.0,0.0,0.0,0.0,0.0,0.0,0.0,0.0,0.0,0.0,0.0,0.0,0.0,0.0,0.0,0.0,0.0,0.0,0.0,0.0,0.0,0.0,0.0,0.0,0.0,0.0,0.0,0.0,0.0,0.0,0.0,0.0,0.0,0.0,0.0,0.0,0.0,0.0,0.0,0.0,0.0,0.0,0.0,0.0,0.0,0.0,0.0,0.0,0.0,0.0,0.0,0.0,0.0,0.0,0.0,0.0,0.0,0.0,0.0,0.0,0.0,0.0,0.0,0.0,0.0,0.0,0.0,0.0,0.0,0.0,0.0,0.0,0.0,0.0,0.0,0.0,0.0,0.0,0.0,0.0,0.0,0.0,0.0,0.0,0.0,0.0,0.0,0.0,0.0,0.0,0.0,0.0,0.0,0.0,0.0,0.0,0.0,0.0,0.0,0.0,0.0,0.0,0.0,0.0,0.0,0.0,0.0,0.0,0.0,0.0,0.0,0.0,0.0,0.0,0.0,0.0,0.0,0.0,0.0,0.0,0.0,0.0,0.0,0.0,0.0,0.0,0.0,0.0,0.0,0.0,0.0,0.0,0.0,0.0,0.0,0.0,0.0,0.0,0.0,0.0,0.0,0.0,0.0,0.0,0.0,0.0,0.0,0.0,0.0,0.0,0.0,0.0,0.0,0.0,0.0,0.0,0.0,0.0,0.0,0.0,0.0,0.0,0.0,0.0,0.0,0.0,0.0,0.0,0.0,0.0,0.0,0.0,0.0,0.0,0.0,0.0,0.0,0.0,0.0,0.0,0.0,0.0,0.0,0.0,0.0,0.0,0.0,0.0,0.0,0.0,0.0,0.0,0.0,0.0,0.0,0.0,0.0,0.0,0.0,0.0,0.0,0.0,0.0,0.0,0.0,0.0,0.0,0.0,0.0,0.0,0.0,0.0,0.0,0.0,0.0,0.0,0.0,0.0,0.0,0.0,0.0,0.0,0.0,0.0,0.0,0.0,0.0,0.0,0.0,0.0,0.0,0.0,0.0,0.0,0.0,0.0,0.0,0.0,0.0,0.0,0.0,0.0,0.0,0.0,0.0,0.0,0.0,0.0,0.0,0.0,0.0,0.0,0.0,0.0,0.0,0.0,0.0,0.0,0.0,0.0,0.0,0.0,0.0,0.0,0.0,0.0,0.0,0.0,0.0,0.0,0.0,0.0,0.0,0.0,0.0,0.0,0.0,0.0,0.0,0.0,0.0,0.0,0.0,0.0,0.0,0.0,0.0,0.0,0.0,0.0,0.0,0.0,0.0,0.0,0.0,0.0,0.0,0.0,0.0,0.0,0.0,0.0,0.0,0.0,0.0,0.0,0.0,0.0,0.0,0.0,0.0,0.0,0.0,0.0,0.0,0.0,0.0,0.0,0.0,0.0,0.0,0.0,0.0,0.0,0.0,0.0,0.0,0.0,0.0,0.0,0.0,0.0,0.0,0.0,0.0,0.0,0.0,0.0,0.0,0.0,0.0,0.0,0.0,0.0,0.0,0.0,0.0,0.0,0.0,0.0,0.0,0.0,0.0,0.0,0.0,0.0,0.0,0.0,0.0,0.0,0.0,0.0,0.0,0.0,0.0,0.0,0.0,0.0,0.0,0.0,0.0,0.0,0.0,0.0,0.0,0.0,0.0,0.0,0.0,0.0,0.0,0.0,0.0,0.0,0.0,0.0,0.0,0.0,0.0,0.0,0.0,0.0,0.0,0.0,0.0,0.0,0.0,0.0,0.0,0.0,0.0,0.0,0.0,0.0,0.0,0.0,0.0,0.0,0.0,0.0,0.0,0.0,0.0,0.0,0.0,0.0,0.0,0.0,0.0,0.0,0.0,0.0,0.0,0.0,0.0,0.0,0.0,0.0,0.0,0.0,0.0,0.0,0.0,0.0,0.0,0.0,0.0,0.0,0.0,0.0,0.0,0.0,0.0,0.0,0.0,0.0,0.0,0.0,0.0,0.0,0.0,0.0,0.0,0.0,0.0,0.0,0.0,0.0,0.0,0.0,0.0,0.0,0.0,0.0,0.0,0.0,0.0,0.0,0.0,0.0,0.0,0.0,0.0,0.0,0.0,0.0,0.0,0.0,0.0,0.0,0.0,0.0,0.0,0.0,0.0,0.0,0.0,0.0,0.0,0.0,0.0,0.0,0.0,0.0,0.0,0.0,0.0,0.0,0.0,0.0,0.0,0.0,0.0,0.0,0.0,0.0,0.0,0.0,0.0,0.0,0.0,0.0,0.0,0.0,0.0,0.0,0.0,0.0,0.0,0.0,0.0,0.0,0.0,0.0,0.0,0.0,0.0,0.0,0.0,0.0,0.0,0.0,0.0,0.0,0.0,0.0,0.0,0.0,0.0,0.0,0.0,0.0,0.0,0.0,0.0,0.0,0.0,0.0,0.0,0.0,0.0,0.0,0.0,0.0,0.0,0.0,0.0,0.0,0.0,0.0,0.0,0.0,0.0,0.0,0.0,0.0,0.0,0.0,0.0,0.0,0.0,0.0,0.0,0.0,0.0,0.0,0.0,0.0,0.0,0.0,0.0,0.0,0.0,0.0,0.0,0.0,-2.5553,0.0,0.0,0.0,0.0,0.0,0.0,0.0,0.0,0.0,0.0,0.0,0.0,0.0,0.0,0.0,0.0,0.0,0.0,0.0,0.0,0.0,0.0,0.0,0.0,0.0,0.0,0.0,0.0,0.0,0.0,0.0,0.0,0.0,0.0,0.0,0.0,0.0,0.0,-1.9544,-2.0586,-2.1581,-2.25,-2.3254,-2.3375,-2.2964,0.0,0.0,0.0,0.0,0.0,0.0,0.0,0.0,0.0,0.0,0.0,0.0,0.0,0.0,0.0,0.0,0.0,0.0,0.0,0.0,0.0,0.0,0.0,0.0,0.0,0.0,0.0,0.0,0.0,0.0,0.0,0.0,0.0,0.0,0.0,0.0,0.0,0.0,0.0,0.0,0.0,0.0,0.0,0.0,0.0,0.0,0.0,0.0,0.0,0.0,0.0,0.0,0.0,0.0,0.0,0.0,0.0,0.0,0.0,0.0,0.0,0.0,0.0,0.0,0.0,0.0,0.0,0.0,0.0,0.0,0.0,-2.7641,0.0,0.0,0.0,0.0,0.0,0.0,0.0,0.0,0.0,0.0,0.0,0.0,0.0,0.0,0.0,0.0,0.0,0.0,0.0,0.0,0.0,0.0,0.0,-1.7569,-1.795,-1.8391,-1.8898,-1.9217,0.0,0.0,0.0,0.0,0.0,0.0,-1.9722,-1.9642,-2.0131,-2.1216,-2.1996,-2.3739,-2.6435,-2.8482,-2.8589,-2.7016,-2.6445,0.0,0.0,0.0,0.0,0.0,0.0,0.0,0.0,0.0,0.0,0.0,0.0,0.0,0.0,0.0,0.0,0.0,0.0,0.0,0.0,0.0,0.0,0.0,0.0,0.0,0.0,0.0,0.0,0.0,0.0,0.0,0.0,0.0,0.0,0.0,0.0,0.0,0.0,0.0,0.0,0.0,0.0,0.0,0.0,0.0,0.0,0.0,0.0,0.0,0.0,0.0,0.0,0.0,0.0,0.0,0.0,0.0,0.0,0.0,0.0,0.0,0.0,0.0,0.0,-3.6156,-3.7507,-3.7643,-3.711,-3.5944,-3.3954,-3.2228,-3.087,0.0,0.0,0.0,0.0,0.0,0.0,0.0,0.0,0.0,0.0,0.0,0.0,0.0,0.0,0.0,0.0,0.0,0.0,0.0,0.0,-1.7229,-1.7312,-1.863,-1.9584,-1.9663,-2.0162,-2.0459,-2.0459,0.0,0.0,0.0,0.0,0.0,-1.9197,-2.0713,-2.1797,-2.2368,-2.5264,-2.8062,-3.0698,-3.2387,-3.3556,-3.4085,-3.0598,-3.0148,-3.182,0.0,0.0,0.0,0.0,0.0,0.0,0.0,0.0,0.0,0.0,0.0,0.0,0.0,0.0,0.0,0.0,0.0,0.0,0.0,0.0,0.0,0.0,0.0,0.0,0.0,0.0,0.0,0.0,0.0,0.0,0.0,0.0,0.0,0.0,0.0,0.0,0.0,0.0,0.0,0.0,0.0,-2.7023,-2.7269,0.0,0.0,0.0,0.0,0.0,0.0,0.0,0.0,0.0,0.0,0.0,0.0,0.0,0.0,-3.5165,-3.5385,-3.5661,-3.5973,-3.678,-3.7276,-3.7514,-3.8212,-3.9184,-4.0286,-3.9974,0.0,-3.322,-3.1916,0.0,0.0,0.0,0.0,0.0,0.0,0.0,0.0,0.0,0.0,0.0,0.0,0.0,0.0,0.0,0.0,0.0,0.0,0.0,0.0,0.0,-2.0128,-2.1291,-2.1907,-2.3911,-2.4343,-2.2458,-2.2873,0.0,0.0,-2.0255,-2.0415,-2.1111,-2.1643,-2.3016,-2.5299,-2.9156,-3.199,-3.3845,-3.5836,-3.7492,-3.8652,-3.69,-3.5317,-3.3869,-3.2192,0.0,0.0,0.0,0.0,0.0,0.0,0.0,0.0,0.0,0.0,0.0,0.0,0.0,0.0,0.0,0.0,0.0,0.0,0.0,0.0,0.0,0.0,0.0,0.0,0.0,0.0,0.0,0.0,0.0,0.0,0.0,0.0,0.0,0.0,0.0,0.0,0.0,0.0,0.0,-2.8635,-3.0198,-2.9988,-3.1685,-3.2893,0.0,0.0,0.0,0.0,0.0,0.0,0.0,0.0,0.0,-3.4669,-3.5899,-3.6688,-3.6964,-3.7863,-3.8781,-3.968,-4.0946,-4.2029,-4.2928,-4.3736,-4.4488,-4.5168,-4.5168,-4.3681,-4.1056,-3.8083,-3.6468,-3.5844,0.0,0.0,0.0,0.0,0.0,-3.6046,0.0,0.0,0.0,0.0,0.0,0.0,0.0,0.0,0.0,0.0,0.0,0.0,-2.0206,-2.1858,-2.3393,-2.4746,-2.7156,-2.7545,-2.5046,-2.548,-2.4743,-2.2294,-2.1668,-2.1843,-2.2905,-2.3511,-2.5636,-2.9329,-3.3015,-3.5689,-3.7381,-3.9445,-4.1119,-4.2371,-4.2557,-4.0608,-3.7155,-3.5722,-3.3661,-3.1286,0.0,0.0,0.0,0.0,0.0,0.0,0.0,0.0,0.0,0.0,0.0,0.0,0.0,0.0,0.0,0.0,0.0,0.0,0.0,0.0,0.0,0.0,0.0,0.0,0.0,0.0,0.0,0.0,0.0,0.0,0.0,0.0,0.0,0.0,0.0,0.0,0.0,-3.0744,-3.2299,-3.1794,-3.386,-3.5247,0.0,0.0,0.0,0.0,0.0,0.0,-3.6174,-3.7257,-3.801,-3.8432,-3.9808,-4.0451,-4.0249,-4.1442,-4.2763,-4.4176,-4.5369,-4.6673,-4.8086,-4.8673,-4.8948,-4.8948,-4.8948,-4.8489,-4.7443,-4.3387,-4.0781,-3.9331,-3.9331,-3.9074,-3.8762,-3.9166,-3.9441,-3.968,0.0,0.0,0.0,0.0,0.0,0.0,0.0,0.0,0.0,0.0,0.0,-1.9598,-2.1599,-2.3954,-2.6195,-2.8188,-2.8502,-2.8532,-2.8368,-2.5465,-2.3684,-2.3507,-2.2909,-2.2894,-2.3537,-2.7196,-3.0907,-3.4518,-3.6625,-3.9174,-4.1999,-4.3555,-4.4722,-4.5517,-4.621,-4.5635,-4.3888,-4.0273,-3.7903,-3.6307,-3.2776,0.0,0.0,0.0,0.0,0.0,0.0,0.0,0.0,0.0,0.0,0.0,0.0,0.0,0.0,0.0,0.0,0.0,0.0,0.0,0.0,0.0,0.0,0.0,0.0,0.0,0.0,0.0,0.0,0.0,0.0,0.0,0.0,0.0,0.0,0.0,0.0,0.0,0.0,-3.1075,-3.4081,0.0,0.0,0.0,0.0,-3.7323,-3.8634,-3.9515,-3.9643,-4.113,-4.2708,-4.4232,-4.5094,-4.625,-4.7737,-4.7847,-4.8324,-4.9205,-4.9242,-4.9738,-5.0618,-5.0655,-5.0674,-5.0674,-5.0674,-5.0215,-4.915,-4.5057,-4.3754,-4.4121,-4.1864,-4.1423,-4.1974,-4.1258,-4.1479,-4.2029,0.0,0.0,0.0,0.0,0.0,0.0,0.0,0.0,-1.7568,-1.8344,-1.9836,-2.1684,-2.4059,-2.6966,-2.94,-3.0986,-3.3051,-3.338,-3.1255,-2.9609,-2.7949,-2.6228,-2.4732,-2.4836,-2.6841,-2.9923,-3.3093,-3.6307,-3.9732,-4.2252,-4.3792,-4.5297,-4.6413,-4.7141,-4.7394,-4.7479,-4.7192,-4.3436,-4.0433,-3.7939,-3.482,-3.2282,0.0,0.0,0.0,0.0,0.0,0.0,0.0,0.0,0.0,0.0,0.0,0.0,0.0,0.0,0.0,0.0,0.0,0.0,0.0,0.0,0.0,0.0,0.0,0.0,0.0,0.0,0.0,0.0,0.0,0.0,0.0,0.0,0.0,0.0,0.0,0.0,0.0,-3.6077,-3.8574,0.0,-3.9735,-3.9772,-4.0029,-4.0543,-4.1589,-4.2892,-4.4452,-4.5571,-4.6929,-4.8581,-4.8912,-4.9334,-4.9903,-4.9921,-5.0068,-5.038,-5.1408,-5.205,-5.238,-5.3427,-5.3885,-5.3849,-5.3335,-5.2949,-5.2491,-4.9994,-4.8196,-4.6948,-4.6085,-4.592,-4.614,-4.5847,-4.6269,-4.6948,0.0,0.0,0.0,0.0,0.0,0.0,0.0,0.0,-1.7842,-1.8644,-2.0739,-2.3128,-2.5657,-2.8876,-3.1569,-3.3365,-3.5295,-3.54,-3.3006,-3.118,-2.9415,-2.77,-2.6801,-2.7519,-3.007,-3.3206,-3.624,-3.9241,-4.2547,-4.4587,-4.5348,-4.6599,-4.7445,-4.7936,-4.8173,-4.8697,-4.9187,-4.6464,-4.3396,-4.0197,-3.7569,-3.5856,-3.4374,0.0,0.0,0.0,0.0,0.0,0.0,0.0,0.0,0.0,0.0,0.0,0.0,0.0,0.0,0.0,0.0,0.0,0.0,0.0,0.0,0.0,0.0,0.0,0.0,0.0,0.0,0.0,0.0,0.0,0.0,0.0,0.0,0.0,0.0,0.0,-3.8234,-4.0395,-4.2351,-4.3626,-4.3901,-4.3699,-4.3883,-4.469,-4.5755,-4.7186,-4.9077,-4.9921,-5.0986,-5.238,-5.2417,-5.2417,-5.2417,-5.2417,-5.2417,-5.2435,-5.35,-5.4014,-5.4051,-5.5097,-5.5592,-5.5556,-5.5042,-5.4803,-5.4711,-5.3647,-5.2252,-5.0655,-4.9572,-4.915,-4.915,-4.915,-4.9517,-4.9994,0.0,0.0,0.0,0.0,0.0,0.0,-1.6522,-1.7435,-1.8106,-1.812,-2.084,-2.3759,-2.6363,-2.9624,-3.2677,-3.531,-3.4861,-3.4173,-3.3529,-2.9759,-2.7595,-2.7625,-2.8953,-3.0717,-3.2999,-3.7129,-4.0592,-4.3453,-4.501,-4.6126,-4.6836,-4.7597,-4.797,-4.802,-4.8731,-4.9458,-5.0101,-4.9373,-4.6989,-4.3504,-4.1187,-3.9865,-3.8877,0.0,0.0,0.0,0.0,0.0,0.0,0.0,0.0,0.0,0.0,0.0,0.0,0.0,0.0,0.0,0.0,0.0,0.0,0.0,0.0,0.0,0.0,0.0,0.0,0.0,0.0,0.0,0.0,0.0,0.0,0.0,0.0,0.0,-3.4514,-3.8451,-4.1846,-4.3479,-4.5131,-4.6434,-4.7223,-4.8031,-4.8838,-4.9682,-5.1206,-5.2454,-5.328,-5.4051,-5.4821,-5.5592,-5.5629,-5.5611,-5.5592,-5.5592,-5.5592,-5.5592,-5.5611,-5.5629,-5.5629,-5.5647,-5.5666,-5.5666,-5.5647,-5.5629,-5.5629,-5.5592,-5.5592,-5.528,-5.2142,-5.0912,-5.0912,-5.0875,-5.0875,-5.0875,0.0,0.0,0.0,0.0,0.0,0.0,-1.6522,-1.7435,-1.8258,-1.8781,-2.2309,-2.563,-2.7814,-3.142,-3.4352,-3.6073,-3.4711,-3.3694,-3.3499,-2.9325,-2.7066,-2.7595,-2.8841,-3.1518,-3.5685,-3.8446,-4.13,-4.4265,-4.6312,-4.7411,-4.7631,-4.8359,-4.8984,-4.9492,-4.9712,-5.049,-5.1657,-5.0913,-5.0321,-4.9475,-4.5111,-4.2621,-4.1043,0.0,0.0,0.0,0.0,0.0,0.0,0.0,0.0,0.0,0.0,0.0,0.0,0.0,0.0,0.0,0.0,0.0,0.0,0.0,0.0,0.0,0.0,0.0,0.0,0.0,0.0,0.0,0.0,0.0,0.0,0.0,0.0,-3.9209,-3.9995,-4.22,-4.4745,-4.7517,-4.9829,-5.1279,-5.1518,-5.2252,-5.2821,-5.3059,-5.4014,-5.495,-5.5776,-5.6033,-5.6253,-5.6455,-5.6473,-5.6198,-5.5592,-5.5592,-5.5592,-5.5592,-5.6198,-5.6473,-5.6492,-5.706,-5.7336,-5.7299,-5.673,-5.6473,-5.6418,-5.5831,-5.5592,-5.5445,-5.3977,-5.3408,-5.3335,-5.2766,-5.2546,-5.2637,0.0,0.0,0.0,0.0,0.0,0.0,-1.6522,-1.7435,-1.823,-1.8616,-2.2717,-2.6153,-2.7604,-3.1031,-3.344,-3.3933,-3.2916,-3.1779,-3.0672,-2.8607,-2.7911,-2.8885,-3.0935,-3.401,-3.8209,-4.0669,-4.3071,-4.55,-4.7428,-4.8376,-4.8392,-4.912,-4.9678,-5.0101,-5.0422,-5.1217,-5.2266,-5.1843,-5.1911,-5.2046,-4.9018,-4.7276,-4.6034,-4.2148,-4.1043,-4.1218,-3.8382,-3.7816,-3.8187,-3.6208,0.0,0.0,0.0,0.0,0.0,0.0,0.0,0.0,0.0,0.0,0.0,0.0,0.0,0.0,0.0,0.0,0.0,0.0,0.0,0.0,0.0,0.0,0.0,0.0,-4.168,-4.3993,-4.6526,-4.6801,-4.7957,-5.1169,-5.2839,-5.3977,-5.4656,-5.5133,-5.5684,-5.6363,-5.6528,-5.695,-5.7776,-5.7501,-5.7464,-5.7795,-5.7483,-5.7244,-5.7116,-5.6767,-5.6602,-5.6602,-5.7079,-5.7299,-5.7317,-5.7795,-5.7997,0.0,-5.7519,-5.7299,-5.7281,-5.6804,-5.6602,0.0,0.0,0.0,0.0,0.0,-5.3427,-5.372,0.0,0.0,0.0,0.0,0.0,0.0,-1.6522,-1.7435,-1.8106,-1.8106,-2.2367,-2.56,-2.6198,-2.9146,-3.0866,-3.0328,-3.0148,-2.9071,-2.6737,-2.7709,-2.9152,-3.0907,-3.3882,-3.7076,-4.0414,-4.3053,-4.5219,-4.6921,-4.8325,-4.9001,-4.9018,-4.9661,-5.0016,-5.0118,-5.0879,-5.1623,-5.2317,-5.2401,-5.2435,-5.2435,-5.2435,-5.2283,-5.1606,-4.7597,-4.643,-4.6549,-4.3792,-4.1644,-3.9986,-3.9089,0.0,0.0,0.0,0.0,0.0,0.0,0.0,0.0,0.0,0.0,0.0,0.0,0.0,0.0,0.0,0.0,0.0,0.0,0.0,0.0,0.0,0.0,0.0,0.0,-4.5993,-4.8233,-5.2949,-5.183,-5.1555,-5.4344,-5.4913,-5.5611,-5.695,-5.7152,-5.7776,-5.9116,-5.8621,-5.8547,-5.9189,0.0,0.0,0.0,0.0,-5.8492,-5.9208,-5.84,-5.7997,-5.7997,-5.7997,-5.7997,-5.7997,-5.7997,-5.7997,-5.7997,-5.7997,-5.7997,-5.7997,-5.7997,-5.7997,-5.785,-5.6326,-5.5244,-5.4454,-5.3739,-5.3922,0.0,0.0,0.0,0.0,0.0,0.0,0.0,-1.6522,-1.7435,-1.8106,-1.8106,-2.1524,-2.4044,-2.4163,-2.6662,-2.8502,-2.8936,-2.7979,-2.7141,-2.6617,-2.6841,-2.8561,-3.1995,-3.3894,-3.7046,-4.1652,-4.3506,-4.5469,-4.7699,-4.8578,-4.9001,-4.9001,-4.9154,-4.9526,-5.0118,-5.0879,-5.1623,-5.2334,-5.2993,-5.3264,-5.3264,-5.3264,-5.2164,-5.0355,-4.8917,-4.8088,-4.7547,-4.6346,-4.6413,-4.6769,-4.484,-4.369,-4.2574,-3.9698,-3.6557,0.0,0.0,0.0,0.0,0.0,0.0,0.0,0.0,0.0,0.0,0.0,0.0,0.0,0.0,0.0,0.0,0.0,0.0,0.0,-4.8012,-4.9829,-5.205,-5.5611,-5.6253,-5.6363,-5.6345,-5.8052,-5.9116,-5.8786,-5.9336,-5.9575,-5.9245,-5.9667,-5.9722,-5.9245,-5.9685,0.0,-6.0162,-5.941,-5.9061,-5.9208,-5.84,-5.7997,-5.7997,0.0,0.0,-5.7997,-5.7997,-5.7997,-5.7997,-5.7997,-5.7997,-5.7997,-5.7997,-5.7997,-5.7905,-5.695,-5.6088,-5.5335,-5.5188,-5.5225,-5.5427,0.0,0.0,0.0,0.0,0.0,0.0,-1.6522,-1.7188,-1.7706,-1.7706,-2.043,-2.2337,-2.2337,-2.4109,-2.5287,-2.525,-2.4566,-2.4986,-2.6946,-2.7709,-3.0051,-3.4439,-3.5521,-3.8072,-4.2445,-4.3263,-4.4756,-4.722,-4.7938,-4.8513,-4.9018,-4.9373,-4.9932,-5.0676,-5.1437,-5.2181,-5.2942,-5.3331,-5.3501,-5.3501,-5.3501,-5.2824,-5.1758,-5.1386,-5.0777,-5.0067,-4.9678,-4.9306,-4.8781,-4.731,-4.6075,-4.4621,-4.1593,-3.9106,-3.6941,0.0,0.0,0.0,0.0,0.0,0.0,0.0,0.0,0.0,0.0,0.0,0.0,0.0,0.0,-4.3816,-4.6122,0.0,-4.926,-5.2087,-5.3922,-5.5849,-5.8272,-5.9281,-5.9501,-5.8712,-5.9667,-6.0254,-5.985,-6.0162,-6.0401,-6.0401,-6.0401,-6.0401,-6.0401,-6.0401,-6.0584,-6.0988,-6.0236,-5.9997,-6.0401,-5.9593,-5.9208,-5.9208,-5.8786,-5.8602,-5.8602,-5.8602,-5.8382,-5.8015,-5.8437,-5.8382,-5.7997,-5.7997,-5.7997,-5.796,-5.7556,-5.6914,-5.6143,-5.5739,-5.5849,-5.6198,0.0,0.0,0.0,0.0,0.0,0.0,0.0,-1.6951,-1.7312,-1.7312,-1.9287,-2.0662,-2.055,-2.1573,-2.2112,-2.1744,-2.1798,-2.3565,-2.7515,-2.8906,-3.1717,-3.6554,-3.7147,-3.91,-4.2658,-4.266,-4.3822,-4.6258,-4.6815,-4.7589,-4.845,-4.9244,-4.9914,-5.0536,-5.1626,-5.2452,-5.3078,-5.3382,-5.3501,-5.3501,-5.3501,-5.3501,-5.3484,-5.3331,-5.2858,-5.2283,-5.2147,-5.0574,-4.8477,-4.7902,-4.6616,-4.484,-4.2405,-4.1035,-3.98,-3.7077,-3.6005,0.0,0.0,0.0,0.0,0.0,0.0,0.0,0.0,-4.157,-4.3791,-4.5718,-4.6764,-4.8012,-5.0325,-5.2068,-5.3849,-5.5959,-5.7519,-5.8969,-6.0438,-6.119,-6.1355,-6.0713,-6.0768,-6.0805,-6.0658,-6.0768,-6.108,-6.1557,-6.1135,-6.108,-6.1557,-6.1135,-6.1172,-6.1814,-6.1043,-6.0933,-6.1575,-6.0805,-6.0401,-6.0401,-5.9758,-5.9446,-5.9446,-5.9446,-5.9006,-5.8253,-5.8767,-5.8602,-5.7997,-5.7997,-5.7997,-5.7997,-5.7997,-5.7593,-5.695,-5.6308,-5.6473,-5.695,0.0,0.0,0.0,0.0,0.0,0.0,0.0,0.0,-1.7312,-1.7312,-1.8494,-1.9086,-1.8505,-1.9086,-1.9922,-2.0936,-2.2002,-2.4253,-2.8233,-2.9175,-3.1672,-3.636,-3.7098,-3.8857,-4.1875,-4.193,-4.3072,-4.5339,-4.5419,-4.5842,-4.6523,-4.7455,-4.7886,-4.8101,-5.0354,-5.1386,-5.1572,-5.2926,-5.3501,-5.3501,-5.3501,-5.3501,-5.3416,-5.2706,-5.2384,-5.2215,-5.1572,-4.9492,-4.7022,-4.6938,-4.5466,-4.3623,-4.3284,-4.2219,-4.0747,-3.9106,-3.753,-3.6143,-3.5376,-3.5366,-3.6077,-3.8198,-3.9264,-4.0918,0.0,-4.6342,-4.7443,-5.0545,-5.183,-5.2913,-5.4601,-5.6235,-5.7648,-5.8657,-5.9557,-6.0438,-6.1337,-6.1539,-6.1557,-6.1465,-6.2108,-6.2254,-6.1539,-6.2108,-6.2273,-6.1649,-6.2181,-6.2273,-6.163,-6.2199,-6.2585,-6.2677,-6.1887,-6.1502,-6.1594,-6.0805,-6.0401,-6.0401,-6.0309,-6.0272,-6.0272,-6.0272,-5.9832,-5.9043,-5.8419,-5.807,-5.7997,-5.7997,-5.7997,-5.7997,-5.7997,-5.7941,-5.785,-5.7758,-5.7776,-5.785,0.0,0.0,0.0,0.0,0.0,0.0,0.0,0.0,-1.6837,-1.6837,-1.7284,-1.7492,-1.7214,-1.7689,-1.8385,-1.9218,-2.037,-2.2891,-2.7171,-2.8427,-3.1076,-3.5714,-3.6522,-3.7985,-4.037,-4.0416,-4.1724,-4.4378,-4.4378,-4.5276,-4.702,-4.744,-4.81,-4.9103,-5.0534,-5.1454,-5.1911,-5.3044,-5.3501,-5.3501,-5.3501,-5.323,-5.2672,-5.1471,-5.0219,-4.9052,-4.8748,-4.7293,0.0,-4.4468,-4.3538,-4.276,-4.276,-4.2049,-4.0916,-3.9428,-3.8503,-3.7974,-3.829,-3.8939,-3.9966,-4.19,-4.3613,-4.5571,-4.8581,-4.9994,-5.1444,-5.4216,-5.5427,-5.6492,-5.8107,-5.8933,-5.9667,0.0,-6.0878,-6.1208,-6.1539,-6.1594,-6.1245,-6.0309,-6.0915,-6.1282,-6.0933,-6.163,-6.1961,-6.163,-6.2346,-6.2658,-6.2328,-6.2622,-6.2805,-6.2805,-6.2475,-6.231,-6.231,-6.1961,-6.1814,-6.1796,-6.1318,-6.1098,-6.1098,-6.1098,-6.0658,-5.9832,-5.8547,-5.7997,-5.7997,-5.7997,-5.7997,-5.7997,-5.7997,-5.7997,-5.7997,-5.7997,-5.7997,-5.7997,0.0,0.0,0.0,0.0,0.0,0.0,0.0,0.0,0.0,0.0,-1.6522,-1.6522,-1.6522,-1.6993,-1.7504,-1.8066,-1.9208,-2.1651,-2.5762,-2.7305,-3.0118,-3.4756,-3.5579,-3.6851,-3.8826,-3.905,-4.0251,-4.2575,-4.2759,-4.3981,-4.6164,-4.6455,-4.7321,-4.868,-4.9924,-5.0942,-5.1681,-5.2757,-5.3179,-5.3179,-5.3179,-5.2452,-5.1217,-4.9526,-4.7378,-4.528,-4.5483,-4.4215,-4.2219,-4.0899,-4.0324,-4.0172,-4.0392,-4.051,-4.0341,-3.9073,-3.8755,-3.9129,-4.0677,-4.1832,-4.313,-4.5186,-4.7352,-4.9554,-5.1646,-5.3206,-5.495,-5.7593,-5.8419,-5.9079,-6.0474,-6.0548,-6.0584,-6.1172,-6.1263,-6.1263,-6.1263,-6.108,-6.0419,-5.9043,-5.8988,-5.9171,-5.9391,-6.0529,-6.1355,-6.1575,-6.2144,-6.2585,-6.2805,-6.3044,-6.3062,-6.2823,-6.3264,-6.3392,-6.3172,-6.3172,-6.3172,-6.3154,-6.2328,-6.2004,-6.2159,-6.1937,-6.1437,-6.0658,-5.9263,-5.8547,-5.8327,-5.8327,-5.8198,-5.8015,-5.8235,-5.8198,-5.8052,-5.8492,-5.8382,-5.7997,0.0,0.0,0.0,0.0,0.0,0.0,0.0,0.0,0.0,0.0,0.0,0.0,0.0,-1.6993,-1.7504,-1.8066,-1.9208,-2.1231,-2.4462,-2.5914,-2.8727,-3.335,-3.4188,-3.5459,-3.7434,-3.8093,-3.8781,-3.9499,-4.0216,-4.119,-4.2604,-4.351,-4.4293,-4.5083,-4.761,-4.9189,-4.9967,-5.1648,-5.2334,-5.2334,-5.2334,-5.1048,-4.8866,-4.6684,-4.3978,-4.1457,-4.2168,-4.0087,-3.6891,-3.6096,-3.5334,-3.4861,-3.5588,-3.7313,-3.892,-3.8159,-3.8104,-3.8904,-4.1537,-4.2821,-4.4213,-4.7407,-4.9481,-5.1555,-5.4711,-5.6106,-5.7611,-6.0805,-6.086,-6.0584,-6.141,-6.0933,-6.0419,-6.0438,-6.0438,-6.0438,-6.0438,-5.9777,-5.8988,-5.8125,-5.6675,-5.6051,0.0,-5.9061,-6.0768,-6.1539,-6.1612,-6.1979,-6.2768,-6.3594,-6.3668,-6.2842,-6.4383,-6.4861,-6.4053,-6.4053,-6.4053,-6.4035,-6.3191,-6.3055,-6.3512,-6.2737,-6.2094,-6.152,-6.0694,-5.9887,-5.9171,-5.9171,-5.8712,-5.807,-5.8877,-5.8694,-5.818,-5.9758,-5.9336,-5.7997,0.0,0.0,0.0,0.0,0.0,0.0,0.0,0.0,0.0,0.0,0.0,0.0,0.0,0.0,0.0,0.0,-1.8259,-1.9874,-2.263,-2.4372,-2.6572,-2.9445,-3.1465,-3.3245,-3.4771,-3.5908,-3.7225,-3.8736,-3.896,-3.9843,-4.1377,-4.1628,-4.2473,-4.3802,-4.5169,-4.6502,-4.7787,-4.8779,-4.9871,-5.071,-4.9238,-4.8189,-4.7073,-4.2861,-4.002,-3.7973,0.0,-3.4438,-3.3609,-3.2374,-3.2121,-3.251,-3.3761,-3.4675,-3.5508,-3.6576,-3.8591,-4.0955,-4.3464,-4.5789,-4.8379,-5.2197,-5.3977,-5.5629,-5.8841,-5.9795,-6.0291,-6.1374,-6.0548,-5.9373,-5.8565,-5.7758,-5.7391,-5.7923,-5.8455,-5.8988,-5.9538,-5.9391,-5.8529,-5.662,-5.64,0.0,0.0,0.0,0.0,-6.0658,-6.13,-6.1942,-6.2768,-6.3631,-6.3704,-6.2842,-6.4439,-6.4916,-6.409,-6.4961,-6.5422,-6.5422,-6.4918,-6.4462,-6.408,-6.3255,-6.2762,-6.2545,-6.1441,-6.0469,-5.9721,-5.9928,-5.952,-5.8896,-5.9685,-5.9832,-5.9667,-6.0199,-5.9722,-5.8804,0.0,0.0,0.0,0.0,0.0,0.0,0.0,0.0,0.0,0.0,0.0,0.0,0.0,0.0,0.0,0.0,0.0,-1.8781,-2.1037,-2.2526,-2.4268,-2.6437,-2.8382,-3.0028,-3.1345,-3.2706,-3.3993,-3.525,-3.5714,-3.6688,-3.8181,-3.8181,-3.9125,-4.0871,-4.1625,-4.2943,-4.4642,-4.5483,-4.6234,-4.678,-4.5351,-4.3995,-4.2371,-3.8481,-3.591,0.0,-3.1055,-3.0108,-3.0176,-2.9516,-2.9786,-3.0603,-3.1674,-3.3105,-3.4743,-3.6773,-3.9736,-4.3007,-4.5939,-4.8912,-5.2087,-5.5574,-5.7281,-5.8712,-6.1062,-6.1374,-6.1006,-6.0419,-5.9024,-5.7336,-5.5427,-5.4179,-5.3794,-5.4913,-5.5519,-5.6345,-5.7721,-5.7923,-5.7518,-5.6411,-5.6208,-5.6274,0.0,0.0,0.0,-5.9795,-6.0913,-6.1853,-6.275,-6.4033,-6.4451,-6.3723,-6.5501,-6.6044,-6.5232,-6.6284,-6.6668,-6.6368,-6.6031,-6.55,-6.4823,-6.41,-6.3722,-6.3521,-6.2707,-6.1874,-6.1125,-6.1273,-6.0807,-5.9973,-6.0785,-6.0811,-6.0474,-6.1062,-6.0584,-5.9612,0.0,0.0,0.0,0.0,0.0,0.0,0.0,0.0,0.0,0.0,0.0,0.0,0.0,0.0,0.0,0.0,0.0,0.0,-1.962,-2.0402,-2.1883,-2.4253,-2.5106,-2.6108,-2.7445,-2.8742,-2.9445,-2.9475,-3.0731,-3.1973,-3.3185,-3.3185,-3.4218,-3.6139,-3.703,-3.8542,-4.0563,-4.1406,-4.1427,-4.0783,-4.0671,-3.8533,-3.5222,-3.3677,-3.1765,-2.9736,-2.8212,-2.7249,-2.6759,-2.752,-2.8349,-2.9238,-2.9713,-3.2809,-3.6648,-3.8761,-4.1722,-4.5119,-4.8852,-5.2123,-5.5097,-5.7519,-5.9245,-6.0548,-6.13,-6.0823,-5.9758,-5.8143,-5.6418,-5.4491,-5.2123,-5.0453,-4.9976,-5.1555,-5.1977,-5.2949,-5.5317,-5.5684,-5.6141,0.0,0.0,0.0,0.0,0.0,0.0,-5.9302,0.0,-6.1756,-6.2867,-6.4958,-6.5895,-6.5386,-6.7425,-6.8148,-6.7346,-6.7921,-6.7788,-6.7052,-6.6669,-6.6212,-6.5653,-6.528,-6.4885,-6.4463,-6.4463,-6.3953,-6.316,-6.3161,-6.2408,-6.1363,-6.2164,-6.1659,-6.0713,-6.2254,-6.1796,-6.0291,0.0,0.0,0.0,0.0,0.0,0.0,0.0,0.0,0.0,0.0,0.0,0.0,0.0,0.0,0.0,0.0,0.0,0.0,-1.7199,-1.8679,-1.9953,-2.0917,-2.2981,-2.4507,-2.536,-2.6677,-2.759,-2.8135,-2.8412,-2.8757,-2.9071,-2.9071,-2.9624,-3.0612,-3.086,-3.1873,-3.3427,-3.3652,-3.4336,-3.5136,-3.3765,-3.3011,-3.2402,-2.9488,-2.8061,-2.7435,-2.6505,-2.6048,-2.5998,-2.6725,-2.887,-3.1515,-3.3124,-3.6238,-3.9752,-4.2139,-4.5344,-4.8904,-5.2247,-5.4656,-5.6767,-5.9189,-5.9667,-5.9575,-5.9777,-5.8731,-5.7262,-5.5647,-5.2564,-4.9609,-4.7792,-4.7609,-4.8086,-4.9077,-5.1793,0.0,-5.6235,-5.7005,0.0,-5.75,0.0,-5.8203,-5.9068,-5.9534,0.0,0.0,-6.2447,-6.3134,-6.4289,-6.6387,-6.724,-6.6514,-6.8175,-6.8711,-6.7924,-6.9019,-6.937,-6.8961,-6.8225,-6.7477,-6.6682,-6.6027,-6.5616,-6.5485,-6.5086,-6.4443,-6.372,-6.3986,-6.331,-6.214,-6.2979,-6.2863,-6.2254,-6.2658,-6.1796,-6.0382,0.0,0.0,0.0,0.0,0.0,0.0,0.0,0.0,0.0,0.0,0.0,0.0,0.0,0.0,0.0,0.0,0.0,0.0,0.0,-1.7572,-1.8619,-1.9317,-2.0965,-2.2054,-2.2443,-2.349,-2.4193,-2.4567,-2.4852,-2.5136,-2.5467,-2.5467,-2.5944,-2.6856,-2.6856,-2.7648,-2.8965,-2.9187,-2.9542,0.0,0.0,-2.8728,-2.8327,-2.6455,-2.5727,-2.571,-2.5642,-2.6251,-2.7334,-2.8938,-3.1428,-3.4306,-3.7059,-4.042,-4.3761,-4.5895,-4.8974,-5.2252,-5.4766,-5.6895,-5.8712,-6.007,-6.0346,-5.9887,-5.8474,-5.6914,-5.4876,-5.183,-4.882,-4.6122,-4.4158,-4.4176,-4.5094,0.0,0.0,0.0,-5.5372,-5.6748,-5.7685,0.0,-5.9103,0.0,-6.0586,-6.1694,-6.2871,0.0,-6.4029,-6.4537,-6.5726,-6.7429,-6.8281,-6.7956,-6.9058,-6.9566,-6.9322,-7.0069,-7.0392,-7.0206,-6.8994,-6.834,-6.8186,-6.6609,-6.609,-6.6397,0.0,-6.5178,-6.4795,-6.4978,-6.436,-6.3319,-6.3769,-6.3479,-6.2805,-6.2805,-6.2016,-6.0878,0.0,0.0,0.0,0.0,0.0,0.0,0.0,0.0,0.0,0.0,0.0,0.0,0.0,0.0,0.0,0.0,0.0,0.0,0.0,0.0,-1.7697,-1.8809,-1.9398,-1.969,-1.969,-2.0273,-2.0572,-2.0572,-2.1156,-2.1724,-2.2319,-2.2319,-2.2892,-2.3969,-2.3969,-2.4612,-2.5723,-2.6135,-2.5878,-2.5282,-2.5756,-2.5225,-2.411,0.0,-2.4218,-2.4289,-2.5033,-2.6776,-2.9151,-3.2041,-3.4635,-3.7327,-4.0925,-4.4581,-4.7957,-4.9719,-5.2289,-5.4932,-5.6657,-5.8657,-6.0254,-6.0254,-6.0694,-6.0254,-5.6932,-5.484,-5.227,-4.7609,-4.5278,-4.3424,-4.1332,-4.113,-4.2249,-4.5241,0.0,-4.9994,-5.3867,-5.5794,-5.7402,-5.9137,-6.0238,-6.1197,-6.2081,-6.3668,-6.4849,-6.5337,-6.5467,-6.5998,-6.7127,-6.8377,-6.9211,-6.9512,-6.9973,-7.0413,-7.0898,-7.0898,-7.0898,-7.0879,-6.9321,-6.8917,-6.9456,-6.7244,-6.6494,-6.6898,0.0,0.0,-6.5897,-6.5897,-6.5329,-6.45,-6.4426,-6.379,-6.2886,-6.2805,-6.2291,-6.1502,0.0,0.0,0.0,0.0,0.0,0.0,0.0,0.0,0.0,0.0,-1.4771,-1.4492,0.0,0.0,0.0,0.0,0.0,0.0,0.0,0.0,0.0,-1.8663,-1.9355,-1.969,-1.969,-1.9794,-1.9869,-1.9869,-1.9974,-2.0094,-2.0198,-2.0198,-2.0333,-2.0543,-2.0543,-2.0662,-2.091,-2.0963,-2.1105,-2.1307,-2.1792,-2.2018,-2.2159,-2.255,0.0,0.0,-2.3528,-2.5203,-2.7708,-3.1808,-3.5837,-3.9792,-4.3318,-4.7074,-5.0618,-5.2894,-5.4418,-5.5886,-5.818,-5.9098,-5.9428,-5.9428,-5.9024,-5.7611,-5.372,-5.1022,-4.8361,-4.4837,-4.2323,-4.0598,-4.0175,-4.1203,-4.2708,-4.4617,-4.7994,-5.1316,-5.4014,-5.5794,-5.7309,0.0,-6.051,-6.1898,-6.2451,-6.4038,0.0,0.0,0.0,0.0,-6.8502,-6.9823,-7.0547,-7.0622,-7.07,-7.0824,-7.0898,-7.0898,-7.0898,-7.0898,-6.9937,-6.9186,-6.8609,-6.8167,-6.7282,-6.6128,0.0,0.0,-6.5897,-6.5897,-6.5542,-6.4952,-6.4554,-6.3997,-6.3408,-6.2965,-6.2291,-6.1575,0.0,0.0,0.0,0.0,0.0,0.0,0.0,-1.4679,-1.5442,-1.6236,-1.6235,-1.6016,-1.5684,-1.4812,-1.4259,0.0,0.0,0.0,0.0,0.0,0.0,-1.8315,-1.9243,-1.969,-1.969,-1.969,-1.969,-1.969,0.0,-1.969,-1.969,-1.969,-1.969,-1.969,-1.969,-1.969,-1.9726,-2.0174,-2.033,-2.0348,-2.1039,-2.1306,-2.1306,-2.1554,0.0,0.0,-2.3199,-2.4814,-2.7216,-3.048,-3.4547,-3.916,-4.461,-4.8684,-5.193,-5.3836,-5.5262,-5.6565,-5.8162,-5.9189,-5.9722,-5.9318,-5.8602,-5.673,-5.1848,-4.882,-4.5902,-4.1846,-4.0084,-3.9148,-3.8726,-3.9955,-4.1699,-4.3754,-4.5718,-4.8434,-5.2564,-5.4049,-5.5643,-5.8356,-6.0567,-6.2262,0.0,-6.4775,0.0,0.0,0.0,0.0,-6.9279,-7.0335,-7.0898,-7.0898,-7.0898,-7.0898,-7.0898,-7.0898,-7.0898,-7.0898,-7.0071,-6.9706,-6.9667,-6.8802,-6.7955,-6.7205,-6.7128,0.0,-6.5897,-6.5897,-6.5437,-6.4696,-6.45,-6.3915,-6.3121,-6.2886,-6.2291,-6.1594,0.0,0.0,0.0,0.0,0.0,0.0,0.0,-1.5223,-1.6045,-1.6983,-1.7571,-1.762,-1.6855,-1.5249,-1.4284,0.0,0.0,0.0,0.0,0.0,0.0,0.0,0.0,0.0,-1.969,0.0,0.0,0.0,-1.969,0.0,0.0,0.0,0.0,0.0,-1.969,-1.9747,-1.9874,-2.0565,-2.0748,0.0,0.0,-2.1337,0.0,0.0,0.0,0.0,0.0,-2.4374,-2.6353,-2.8805,-3.2145,-3.6404,-4.2887,-4.7723,-5.1274,-5.2601,-5.4452,-5.6319,-5.7419,-5.8914,-5.996,-5.9153,-5.8088,-5.5831,-5.0527,-4.715,-4.3864,-3.9368,-3.8303,-3.8046,-3.7569,-3.867,-4.0377,-4.2616,-4.3424,-4.5553,-5.0747,-5.2247,-5.4205,0.0,-6.0492,0.0,-6.3447,-6.5118,0.0,0.0,0.0,0.0,-6.9379,-7.0206,-7.0648,-7.0648,-7.0802,-7.0898,-7.0898,-7.0898,-7.0898,-7.0898,-7.0264,-7.0206,-7.0591,-6.9283,-6.8475,-6.809,-6.7398,0.0,0.0,-6.5897,-6.5437,-6.468,-6.45,-6.3873,-6.3121,-6.2886,-6.2401,-6.1832,0.0,0.0,0.0,0.0,0.0,0.0,0.0,-1.5373,-1.6557,-1.704,-1.7988,-1.8208,-1.7175,-1.6061,-1.4963,0.0,0.0,0.0,0.0,0.0,0.0,0.0,0.0,0.0,0.0,0.0,0.0,0.0,0.0,0.0,0.0,0.0,0.0,0.0,0.0,0.0,-2.0246,-2.0348,0.0,0.0,0.0,0.0,0.0,0.0,0.0,0.0,0.0,-2.297,-2.4137,-2.7046,-2.9214,-3.1389,-3.5366,-4.1467,-4.7366,-4.8158,-5.0991,-5.4262,-5.6319,-5.8088,-5.9134,-5.8309,-5.6418,-5.3628,-4.9389,-4.5424,-4.168,-3.8285,-3.7019,-3.6707,-3.7367,-3.8212,-3.9368,-4.1056,-4.3167,-4.581,-4.9315,-5.1724,-5.4271,-5.7258,0.0,0.0,-6.2647,0.0,0.0,0.0,0.0,0.0,0.0,-6.934,-6.9821,-6.9821,-7.0514,-7.0898,-7.0898,-7.0898,-7.0898,-7.0898,-7.0821,-7.0456,-6.9821,-6.9648,-6.8725,-6.7225,0.0,0.0,0.0,-6.5897,-6.5853,-6.5663,-6.4769,-6.4351,-6.4138,-6.3168,-6.2768,-6.2603,0.0,0.0,0.0,0.0,0.0,0.0,-1.4654,-1.5454,-1.6273,-1.7313,-1.7625,-1.7321,-1.6236,-1.5503,-1.4762,-1.3987,0.0,0.0,0.0,0.0,0.0,0.0,0.0,0.0,0.0,0.0,0.0,0.0,0.0,0.0,0.0,0.0,0.0,0.0,0.0,0.0,0.0,-2.0975,0.0,0.0,0.0,0.0,0.0,0.0,0.0,0.0,0.0,0.0,-2.3054,-2.5118,-2.681,-2.8335,-2.9761,-3.3805,-3.8933,-4.3502,-4.7474,-5.0976,-5.3879,-5.651,-5.829,-5.7483,-5.5097,-5.1885,-4.7792,-4.3736,-3.9937,-3.667,-3.6156,-3.6229,-3.6028,-3.7074,-3.8412,-3.97,-4.073,-4.2693,-4.6437,-4.8006,-5.0598,-5.5473,-5.8236,0.0,0.0,0.0,0.0,0.0,0.0,0.0,0.0,-6.8186,-6.8917,-6.8917,-6.9744,-6.9937,-6.9398,-6.9917,-6.9917,-6.9398,-6.9398,-6.9225,-6.8917,-6.8917,-6.8244,-6.709,0.0,0.0,0.0,-6.5897,-6.5709,-6.534,-6.468,-6.4197,-6.385,-6.3091,-6.2493,-6.2034,0.0,0.0,0.0,0.0,0.0,-1.3621,-1.4836,-1.5188,-1.5719,-1.6888,-1.6973,-1.6525,-1.54,-1.499,-1.4488,-1.3754,-1.3391,0.0,0.0,0.0,0.0,0.0,0.0,0.0,0.0,0.0,-1.969,-1.969,-1.9818,0.0,0.0,0.0,0.0,0.0,0.0,0.0,0.0,0.0,0.0,0.0,0.0,0.0,0.0,0.0,0.0,0.0,0.0,0.0,0.0,0.0,0.0,-2.5761,-2.5964,-2.8203,-3.1944,-3.8366,-4.3193,-4.7189,-5.0501,-5.3757,-5.6143,-5.5831,-5.3133,-4.9664,-4.6305,-4.2249,-3.8377,-3.5559,-3.5312,-3.5459,-3.5064,-3.6174,-3.7495,-3.8561,-3.9181,-4.0812,-4.4479,-4.5707,-4.8145,0.0,0.0,0.0,0.0,0.0,0.0,0.0,0.0,0.0,0.0,-6.7013,-6.7782,-6.8013,-6.8859,-6.9033,-6.8417,-6.9013,-6.9013,-6.8398,-6.8398,-6.8398,-6.8398,-6.8129,-6.7686,-6.709,0.0,0.0,0.0,-6.5808,-6.5341,-6.4505,-6.4423,-6.3928,-6.3189,-6.2922,-6.2456,-6.1887,0.0,0.0,0.0,0.0,0.0,0.0,-1.3835,-1.4424,-1.4969,-1.5446,-1.611,-1.6076,-1.4919,-1.4796,-1.4363,-1.3304,-1.3198,0.0,0.0,0.0,0.0,0.0,0.0,0.0,0.0,0.0,-1.969,-1.969,-2.0089,-2.0314,-2.0314,0.0,0.0,0.0,0.0,0.0,0.0,0.0,0.0,0.0,0.0,0.0,-2.1023,0.0,0.0,0.0,0.0,0.0,0.0,0.0,0.0,0.0,0.0,-2.5605,-2.7812,-3.2588,-3.7879,-4.2898,-4.6245,-4.9572,-5.2252,-5.3041,-5.0178,-4.6746,-4.5094,-4.0983,-3.7037,-3.5367,-3.4376,-3.4082,-3.4844,-3.5734,-3.6666,-3.7724,-3.9266,-4.1297,-4.4116,-4.5894,-4.7993,0.0,0.0,0.0,0.0,0.0,0.0,0.0,0.0,0.0,0.0,-6.5917,-6.6282,-6.709,-6.7955,-6.8417,-6.8398,-6.8417,-6.8417,-6.8398,-6.8398,-6.8398,-6.8379,-6.7513,-6.7109,0.0,0.0,0.0,0.0,-6.569,-6.4794,-6.3218,-6.4086,-6.3571,-6.2451,-6.2719,-6.2805,-6.2567,0.0,0.0,0.0,0.0,0.0,0.0,0.0,-1.4047,-1.4333,-1.4759,-1.476,-1.458,-1.4226,-1.3908,-1.3582,-1.3245,-1.3198,0.0,0.0,0.0,0.0,0.0,0.0,0.0,0.0,0.0,-1.9839,-2.0124,-2.0246,-2.0601,-2.1197,-2.1337,-2.1568,0.0,0.0,0.0,0.0,0.0,0.0,0.0,0.0,-2.2003,-2.1915,0.0,0.0,0.0,0.0,0.0,0.0,0.0,0.0,0.0,0.0,0.0,0.0,-2.8658,-3.3069,-3.8085,-4.1962,-4.4562,-4.6379,-4.7205,-4.5186,-4.2598,-4.0983,-3.812,-3.5495,-3.4412,-3.3972,-3.388,-3.4137,-3.533,-3.6731,-3.8075,-3.9937,-4.1855,-4.3744,-4.6259,0.0,0.0,0.0,0.0,0.0,0.0,0.0,0.0,0.0,0.0,0.0,0.0,-6.6013,-6.6263,-6.7071,-6.7244,-6.6705,-6.7244,-6.7244,-6.6686,-6.6686,-6.6686,-6.6686,-6.6397,0.0,0.0,0.0,0.0,0.0,-6.5827,-6.4996,-6.365,-6.3535,-6.3045,-6.2302,-6.1466,-6.1172,-6.1025,0.0,0.0,0.0,0.0,0.0,0.0,0.0,-1.3648,-1.3735,-1.4,-1.3802,-1.3648,-1.3648,-1.3391,-1.3198,-1.3198,-1.3198,0.0,0.0,0.0,0.0,0.0,0.0,0.0,-1.8687,-1.9265,-1.9825,-2.0314,-2.0634,-2.107,-2.1582,-2.1794,-2.2032,-2.231,-2.231,0.0,0.0,0.0,0.0,0.0,-2.2237,-2.218,-2.2061,0.0,0.0,0.0,0.0,0.0,0.0,0.0,0.0,0.0,0.0,0.0,0.0,0.0,-2.9162,-3.3183,-3.7257,-3.9753,-4.1497,-4.2616,-4.1295,-3.9478,-3.8487,-3.656,-3.4807,-3.4094,-3.3961,-3.3961,-3.3961,-3.5395,-3.6914,-3.7845,-3.9588,-4.1469,-4.327,-4.5906,0.0,0.0,0.0,0.0,0.0,0.0,0.0,0.0,0.0,0.0,0.0,0.0,-6.5743,-6.5416,-6.6205,-6.6397,-6.5897,-6.6397,-6.6397,-6.5897,-6.5897,-6.5897,-6.5897,-6.5897,0.0,0.0,0.0,0.0,0.0,-6.4981,-6.3934,-6.2397,-6.2593,-6.2045,-6.1141,-6.0599,-6.0401,-6.0291,0.0,0.0,0.0,0.0,0.0,0.0,0.0,-1.3198,-1.3198,-1.3198,-1.3198,-1.3198,-1.3198,-1.3198,-1.3198,-1.3198,0.0,0.0,0.0,0.0,0.0,0.0,0.0,0.0,-1.8612,-1.9142,-1.9696,-2.0348,-2.1197,-2.1645,-2.1741,-2.2173,-2.2395,-2.2395,-2.2395,-2.2361,0.0,0.0,0.0,0.0,-2.2106,-2.2032,0.0,0.0,0.0,0.0,0.0,0.0,0.0,0.0,0.0,0.0,0.0,0.0,0.0,0.0,0.0,0.0,0.0,-3.5128,-3.7349,-3.8964,-3.8248,-3.7177,-3.7232,-3.6028,0.0,-3.4271,-3.4171,-3.4213,-3.4293,-3.5818,-3.7147,-3.7364,-3.8738,-4.058,-4.2844,-4.5304,0.0,0.0,0.0,0.0,0.0,0.0,0.0,0.0,0.0,0.0,0.0,0.0,-6.5397,-6.4705,-6.5359,-6.5743,-6.5801,-6.5743,-6.5743,-6.5801,-6.5801,-6.5801,-6.5801,-6.5801,0.0,0.0,0.0,0.0,0.0,-6.3444,-6.1995,-6.0121,-6.1319,-6.0759,-5.9328,-5.9979,-6.0272,-6.0199,0.0,0.0,0.0,0.0,0.0,0.0,0.0,0.0,0.0,0.0,-1.3198,-1.3198,-1.3198,-1.3198,-1.3198,0.0,0.0,0.0,0.0,0.0,0.0,0.0,0.0,0.0,-1.7906,-1.8897,-1.9875,-2.0829,-2.1337,-2.2076,-2.2988,-2.311,-2.3139,-2.3139,-2.3139,-2.2835,0.0,0.0,0.0,0.0,-2.2254,-2.2237,0.0,0.0,0.0,0.0,-2.2599,-2.2815,0.0,0.0,0.0,0.0,0.0,0.0,0.0,0.0,-2.5599,-2.645,-2.8613,0.0,-3.2302,-3.3917,-3.4027,-3.3917,0.0,-3.4357,-3.4054,-3.3913,-3.3902,-3.4146,-3.5038,-3.6085,-3.7366,-3.9125,-4.059,-4.2117,-4.3766,0.0,0.0,0.0,0.0,0.0,0.0,0.0,0.0,0.0,0.0,0.0,0.0,0.0,-6.4436,-6.5551,-6.4493,-6.4224,-6.4897,-6.4243,-6.4262,-6.4916,-6.4916,-6.4916,-6.4916,-6.4916,0.0,0.0,0.0,0.0,-6.3406,-6.3328,-6.2421,-6.1031,-6.102,-6.0472,-5.9628,-5.886,-5.8951,-5.9391,0.0,0.0,0.0,0.0,0.0,0.0,0.0,0.0,0.0,0.0,0.0,-1.3198,-1.3198,-1.3198,0.0,0.0,0.0,0.0,0.0,0.0,0.0,0.0,0.0,-1.6511,-1.7667,-1.8703,-1.9813,-2.0991,-2.1615,-2.2446,-2.3393,-2.3054,-2.3071,-2.3376,-2.3054,-2.2682,0.0,0.0,0.0,-2.231,-2.231,0.0,0.0,0.0,0.0,0.0,-2.2695,-2.3021,0.0,-2.3649,-2.3795,-2.3976,0.0,0.0,0.0,0.0,-2.5127,-2.5678,-2.6906,-2.8429,-3.0044,-3.1659,-3.2045,-3.2357,-3.3532,-3.3626,-3.3593,-3.411,-3.4307,-3.4577,-3.52,-3.64,-3.7792,-3.9299,-4.0781,-4.2968,0.0,0.0,0.0,0.0,0.0,0.0,0.0,0.0,0.0,0.0,0.0,0.0,0.0,0.0,-6.357,-6.4128,-6.3243,-6.3358,-6.4589,-6.3743,-6.3551,-6.4012,-6.4012,-6.4012,-6.4012,-6.4012,0.0,0.0,0.0,0.0,-6.268,-6.1849,-6.1111,-6.0443,-5.9981,-5.9468,-5.8961,-5.8262,-5.8272,-5.8602,0.0,0.0,0.0,0.0,0.0,0.0,0.0,0.0,0.0,0.0,0.0,0.0,0.0,0.0,0.0,0.0,0.0,0.0,0.0,0.0,0.0,0.0,-1.558,-1.6443,-1.7782,-1.857,-1.9686,-2.1086,-2.2132,-2.3004,-2.3714,-2.3207,-2.319,-2.3528,-2.2682,-2.231,0.0,0.0,-2.231,-2.231,-2.231,0.0,0.0,0.0,0.0,0.0,0.0,0.0,0.0,-2.3774,-2.3976,-2.419,-2.419,0.0,0.0,0.0,0.0,0.0,-2.6539,-2.8088,-2.9729,-3.0962,-3.1366,-3.1851,-3.3386,-3.3505,-3.3537,-3.4502,-3.4889,-3.5129,-3.5429,-3.6952,-3.8412,-3.9218,-4.1017,0.0,0.0,0.0,0.0,0.0,0.0,0.0,0.0,0.0,0.0,0.0,0.0,0.0,0.0,0.0,0.0,-6.23,-6.2031,-6.2647,-6.4205,-6.3358,-6.2993,-6.3128,-6.3128,-6.3128,-6.3128,-6.3128,-6.3051,0.0,0.0,0.0,-6.1771,-6.019,-5.9511,-5.9458,-5.8913,-5.8461,-5.8115,-5.8042,-5.7997,-5.7997,0.0,0.0,0.0,0.0,0.0,0.0,0.0,0.0,0.0,0.0,0.0,0.0,0.0,0.0,0.0,0.0,0.0,0.0,0.0,0.0,0.0,-1.5668,-1.577,-1.6576,-1.8254,-1.8763,-1.9816,-2.1491,-2.3284,-2.4526,-2.5287,-2.5795,-2.5406,-2.4255,-2.2919,-2.231,-2.231,-2.231,-2.231,-2.231,-2.231,0.0,0.0,0.0,0.0,0.0,0.0,0.0,0.0,-2.4113,-2.4151,-2.419,-2.419,0.0,0.0,0.0,0.0,0.0,-2.72,-2.9484,-3.1331,-3.0838,-3.1229,-3.2042,-3.3208,-3.397,-3.4502,-3.4675,-3.4734,-3.5268,-3.6898,-3.8057,-3.9331,0.0,0.0,0.0,0.0,0.0,0.0,0.0,0.0,0.0,0.0,0.0,0.0,0.0,0.0,0.0,0.0,0.0,0.0,-6.307,-6.1743,-6.1473,-6.2454,-6.1608,-6.155,-6.2281,-6.2281,-6.2281,-6.2281,-6.2281,-6.1877,0.0,0.0,-6.0926,-6.095,-6.0265,-5.9996,-5.9916,-5.9047,-5.8673,-5.8549,-5.8142,-5.7997,-5.7997,0.0,0.0,0.0,0.0,0.0,0.0,0.0,0.0,0.0,0.0,0.0,0.0,0.0,0.0,0.0,0.0,0.0,0.0,0.0,0.0,-1.5728,-1.6249,-1.6543,-1.7221,-1.8376,-1.9796,-2.1289,-2.2846,-2.4355,-2.5473,-2.6184,-2.5727,-2.4712,-2.3274,-2.2615,-2.231,-2.231,-2.231,-2.231,-2.231,0.0,0.0,0.0,0.0,0.0,0.0,0.0,0.0,0.0,0.0,-2.419,-2.419,-2.419,0.0,0.0,0.0,0.0,0.0,-2.6833,-2.8378,-2.9823,-3.0451,-3.2339,-3.4083,-3.4088,-3.4888,-3.5742,-3.6179,-3.6385,-3.6891,-3.8271,0.0,-4.1658,0.0,0.0,0.0,0.0,0.0,0.0,0.0,0.0,0.0,0.0,0.0,0.0,0.0,0.0,0.0,0.0,0.0,0.0,0.0,-6.1204,-6.0993,-6.1377,-6.0993,-6.0993,-6.1396,-6.1396,-6.1396,-6.1396,-6.1396,-6.1166,-6.08,0.0,-6.0411,-6.0384,-5.9644,-5.9319,-5.9303,-5.8591,-5.8307,-5.8326,-5.807,-5.7997,-5.7997,0.0,0.0,0.0,0.0,0.0,0.0,0.0,0.0,0.0,0.0,0.0,0.0,0.0,0.0,0.0,0.0,0.0,0.0,0.0,-1.561,-1.5994,-1.6458,-1.7325,-1.8071,-1.8763,-2.0749,-2.2457,-2.3783,-2.516,-2.615,-2.6657,-2.5169,-2.3799,-2.2564,-2.2395,-2.231,-2.231,-2.231,-2.2349,-2.2398,0.0,0.0,0.0,0.0,0.0,0.0,0.0,0.0,0.0,0.0,0.0,0.0,0.0,0.0,0.0,-2.419,-2.4887,-2.5862,-2.6714,-2.7867,-2.9119,-3.0367,-3.2856,-3.5071,-3.5303,-3.6216,-3.7349,-3.8626,-3.8895,-3.9161,0.0,-4.1739,0.0,0.0,0.0,0.0,0.0,0.0,0.0,0.0,0.0,0.0,0.0,0.0,0.0,0.0,0.0,0.0,0.0,0.0,0.0,0.0,-6.08,-6.08,-6.08,-6.08,-6.08,-6.08,-6.08,-6.08,-6.08,-6.08,-6.08,-6.0757,-6.0291,-6.0103,-6.0025,-5.9084,-5.8694,-5.8654,-5.8168,-5.7997,-5.7997,-5.7997,-5.7997,-5.7997,0.0,0.0,0.0,0.0,0.0,0.0,0.0,0.0,0.0,0.0,0.0,0.0,0.0,0.0,0.0,0.0,0.0,0.0,0.0,-1.577,-1.5829,-1.5858,-1.7801,-1.9193,-1.9855,-2.1131,-2.2328,-2.3448,-2.5575,-2.664,-2.6657,-2.5169,-2.4069,-2.3291,-2.2615,-2.231,-2.231,-2.231,-2.2436,-2.2669,-2.2695,0.0,0.0,0.0,0.0,0.0,0.0,0.0,0.0,0.0,0.0,0.0,0.0,0.0,-2.419,-2.419,-2.5309,-2.673,-2.7714,-2.9889,-3.1732,-3.1054,-3.1502,-3.3041,-3.6577,-3.8079,-3.9487,-4.2151,-4.2069,-4.1797,0.0,0.0,0.0,0.0,0.0,0.0,0.0,0.0,0.0,0.0,0.0,0.0,0.0,0.0,0.0,0.0,0.0,0.0,0.0,0.0,0.0,0.0,0.0,-6.08,-6.08,-6.08,-6.08,-6.08,-6.08,-6.08,-6.08,-6.08,-6.08,-6.0757,-6.0291,-6.0103,-6.0025,-5.9084,-5.8694,-5.8654,-5.8168,-5.7997,-5.7997,-5.7997,-5.7997,-5.7997,0.0,0.0,0.0,0.0,0.0,0.0,0.0,0.0,0.0,0.0,0.0,0.0,0.0,0.0,0.0,0.0,0.0,0.0,0.0,-1.5799,-1.5978,-1.6353,-1.7819,-1.9053,-1.9965,-2.1847,-2.3207,-2.4069,-2.5372,-2.5778,-2.5304,-2.4272,-2.341,-2.2699,-2.2429,-2.2388,-2.2537,-2.2537,-2.2712,-2.3021,-2.3236,-2.3459,0.0,0.0,0.0,0.0,0.0,0.0,0.0,0.0,-2.419,-2.419,-2.419,-2.419,-2.43,-2.4795,-2.5731,-2.6799,-2.768,-2.9765,-3.1504,-3.0683,-3.1901,-3.4067,-3.6938,-3.9489,-4.1762,-4.3494,-4.4836,-4.5817,0.0,0.0,0.0,0.0,0.0,0.0,0.0,0.0,0.0,0.0,0.0,0.0,0.0,0.0,0.0,0.0,0.0,0.0,0.0,0.0,0.0,0.0,0.0,-6.0259,-5.9992,-5.9453,-5.9205,-5.9242,-5.9742,-5.9992,-5.9992,-5.9992,-5.9992,-5.9988,-6.0081,-5.9916,-5.9592,-5.899,-5.8526,-5.8238,-5.807,-5.7997,-5.7997,-5.7997,-5.7997,-5.7997,0.0,0.0,0.0,0.0,0.0,0.0,0.0,0.0,0.0,0.0,0.0,0.0,0.0,0.0,0.0,0.0,0.0,0.0,-1.5799,-1.5799,-1.5964,-1.6383,-1.75,-1.8493,-1.9338,-2.1416,-2.3051,-2.4137,-2.4661,-2.4644,-2.415,-2.3393,-2.2824,-2.2426,-2.2426,-2.259,-2.2873,-2.2873,-2.3045,-2.3392,-2.361,-2.3756,0.0,0.0,0.0,0.0,0.0,0.0,0.0,0.0,-2.419,-2.419,-2.419,-2.419,-2.4355,-2.5164,-2.5994,-2.6831,-2.7429,-2.9191,-3.0806,-3.0599,-3.2459,-3.5208,-3.8461,-4.1208,-4.3771,-4.6204,-4.7663,-4.8509,-4.8509,0.0,0.0,0.0,0.0,0.0,0.0,0.0,0.0,0.0,0.0,0.0,0.0,0.0,0.0,0.0,0.0,0.0,0.0,0.0,0.0,0.0,0.0,0.0,-5.8909,-5.8171,-5.7844,-5.7896,-5.8164,-5.8591,-5.9127,-5.9127,-5.9261,-5.9508,-5.9464,-5.9311,-5.8977,-5.8343,-5.7894,-5.7611,-5.7611,-5.7776,-5.7997,-5.7997,-5.7997,-5.7997,0.0,0.0,0.0,0.0,0.0,0.0,0.0,0.0,0.0,0.0,0.0,0.0,0.0,0.0,0.0,0.0,0.0,0.0,-1.5799,-1.5799,-1.5799,-1.5799,-1.6822,-1.7562,-1.7893,-1.9689,-2.1545,-2.3376,-2.3376,-2.3376,-2.3376,-2.2649,-2.2453,-2.2695,-2.2695,-2.2898,-2.3189,-2.3189,-2.3392,-2.3692,-2.3692,-2.3896,-2.419,0.0,0.0,0.0,0.0,0.0,0.0,0.0,-2.419,-2.419,-2.419,-2.4208,-2.4373,-2.5182,-2.6134,-2.6952,-2.7159,-2.8449,-2.9973,-3.1055,-3.3047,-3.612,-4.1495,-4.333,-4.5436,-5.0816,-5.0587,-4.9413,-4.9433,-5.0144,0.0,0.0,0.0,0.0,0.0,0.0,0.0,0.0,0.0,0.0,0.0,0.0,0.0,0.0,0.0,0.0,0.0,0.0,0.0,0.0,0.0,0.0,-5.7595,-5.7175,-5.6984,-5.6965,-5.6101,-5.6606,-5.83,-5.83,-5.87,-5.9407,-5.8482,-5.8144,-5.8094,-5.7172,-5.6804,-5.6804,-5.6822,-5.7299,-5.7997,-5.7997,-5.7997,-5.7997,0.0,0.0,0.0,0.0,0.0,0.0,0.0,0.0,0.0,0.0,0.0,0.0,0.0,0.0,0.0,0.0,0.0,0.0,-1.5799,-1.5799,-1.5799,-1.5799,-1.6502,-1.7451,-1.8655,-2.0716,-2.2062,-2.2632,-2.2632,-2.2722,-2.29,-2.2676,-2.2738,-2.3045,-2.3045,-2.3236,-2.3544,-2.3544,-2.3753,-2.4054,-2.4054,-2.4113,-2.419,0.0,0.0,0.0,0.0,0.0,0.0,0.0,0.0,0.0,-2.419,-2.4575,-2.5199,-2.6007,-2.6947,-2.7904,-2.8558,-3.0039,-3.1619,-3.2597,-3.4774,-3.7794,-4.2193,-4.4021,-4.6355,-5.172,-5.1708,-5.1006,-5.1912,0.0,0.0,0.0,0.0,0.0,0.0,0.0,0.0,0.0,0.0,0.0,0.0,0.0,0.0,0.0,0.0,0.0,0.0,0.0,0.0,0.0,0.0,0.0,-5.6774,-5.5711,-5.5193,-5.5252,-5.4656,-5.5107,-5.6472,-5.6472,-5.6605,-5.6842,-5.6826,-5.6855,-5.6874,-5.6817,-5.6804,-5.6877,-5.7428,-5.7795,-5.7997,-5.7997,-5.7997,-5.7997,0.0,0.0,0.0,0.0,0.0,0.0,0.0,0.0,0.0,0.0,-1.3357,-1.3648,0.0,0.0,0.0,0.0,0.0,0.0,0.0,-1.5799,-1.5799,-1.5799,-1.6562,-1.7815,-1.9581,-2.11,-2.2006,-2.231,-2.231,-2.2453,-2.2695,-2.2695,-2.2947,-2.3392,-2.3392,-2.3588,-2.3896,-2.3896,-2.4016,-2.419,-2.419,-2.419,-2.419,0.0,0.0,0.0,0.0,0.0,0.0,0.0,0.0,0.0,-2.419,-2.452,-2.509,-2.5981,-2.673,-2.7528,-2.8817,-3.0448,-3.2272,-3.4272,-3.6705,-3.9662,-4.3855,0.0,0.0,0.0,-5.2924,-5.2207,-5.3467,0.0,0.0,0.0,0.0,0.0,0.0,0.0,0.0,0.0,0.0,0.0,0.0,0.0,0.0,0.0,0.0,0.0,0.0,0.0,0.0,0.0,0.0,0.0,-5.4886,-5.3923,-5.3296,-5.3008,-5.2735,-5.32,-5.4275,-5.4919,-5.5403,-5.5692,-5.5789,-5.5711,-5.5529,-5.5411,-5.5574,-5.5904,-5.6381,-5.6767,-5.7042,-5.7042,-5.7042,-5.7042,0.0,0.0,0.0,0.0,0.0,0.0,0.0,0.0,0.0,0.0,-1.3581,-1.4032,0.0,0.0,0.0,0.0,0.0,0.0,0.0,-1.5799,-1.5799,-1.5856,-1.697,-1.853,-2.0565,-2.1049,-2.1617,-2.231,-2.2321,-2.2463,-2.2746,-2.2772,-2.3141,-2.3753,-2.3753,-2.3917,-2.419,-2.419,-2.419,-2.419,-2.419,-2.419,-2.419,-2.419,0.0,0.0,0.0,0.0,0.0,0.0,0.0,0.0,-2.419,-2.43,-2.4615,-2.5541,-2.5991,-2.6624,-2.8522,-3.02,-3.2335,-3.6022,-3.8862,0.0,-4.6013,-4.9765,-5.2924,-5.4789,0.0,-5.3016,0.0,0.0,0.0,0.0,0.0,0.0,0.0,0.0,0.0,0.0,0.0,0.0,0.0,0.0,0.0,0.0,0.0,0.0,0.0,0.0,0.0,0.0,0.0,0.0,-5.2509,-5.2093,-5.1518,0.0,-5.0802,-5.1187,-5.1944,-5.3529,-5.4708,-5.5461,-5.5099,-5.4677,-5.4234,-5.3592,-5.3739,-5.4418,-5.4473,-5.495,-5.5592,-5.5592,-5.5592,-5.5592,0.0,0.0,0.0,0.0,0.0,0.0,0.0,0.0,0.0,0.0,0.0,0.0,0.0,0.0,0.0,0.0,0.0,0.0,0.0,-1.5799,-1.5913,-1.6163,-1.801,-1.9553,-2.0582,-2.1569,-2.2141,-2.231,-2.25,-2.2789,-2.3093,-2.3369,-2.3692,-2.4094,-2.4094,-2.4113,-2.419,-2.419,-2.419,-2.419,-2.419,-2.419,-2.419,-2.419,-2.419,0.0,0.0,0.0,0.0,0.0,0.0,0.0,-2.419,-2.5071,-2.616,-2.6544,-2.7245,-2.831,-3.0236,-3.1637,-3.3544,-3.77,-4.1895,-4.5423,-4.7054,-4.9114,-5.0765,-5.12,-5.2254,0.0,0.0,0.0,0.0,0.0,0.0,0.0,0.0,0.0,0.0,0.0,0.0,0.0,0.0,0.0,0.0,0.0,0.0,0.0,0.0,0.0,0.0,0.0,0.0,-5.1838,-5.167,-5.1263,-5.0967,0.0,-5.0802,-5.0894,-5.1077,-5.2072,-5.2985,-5.3743,-5.3658,-5.3571,-5.35,-5.3959,-5.4234,-5.4454,-5.5097,-5.5445,-5.5592,-5.5592,-5.5592,-5.5592,0.0,0.0,0.0,0.0,0.0,0.0,0.0,0.0,0.0,0.0,0.0,0.0,0.0,0.0,0.0,0.0,0.0,0.0,0.0,0.0,-1.6342,-1.7539,-1.8957,-2.0254,-2.1373,-2.2006,-2.236,-2.25,-2.2789,-2.3021,-2.3212,-2.3544,-2.3876,-2.419,-2.419,-2.419,-2.419,-2.419,-2.419,-2.419,-2.419,-2.419,-2.419,-2.419,-2.419,-2.419,-2.419,0.0,0.0,0.0,0.0,0.0,0.0,0.0,-2.5591,-2.6278,-2.6776,-2.7667,-3.019,-3.2067,-3.4534,-3.9576,0.0,-4.591,-4.6592,-4.7745,-4.8605,-4.8418,0.0,0.0,0.0,0.0,0.0,0.0,0.0,0.0,0.0,0.0,0.0,0.0,0.0,0.0,0.0,0.0,0.0,0.0,0.0,0.0,0.0,0.0,0.0,0.0,-5.1027,-5.0935,-5.0528,-5.0335,-4.9811,-4.904,-4.9426,-4.9829,-5.0251,-5.1059,-5.1646,-5.205,-5.205,-5.227,-5.2656,-5.3078,-5.3482,-5.3867,-5.4289,-5.4454,-5.4454,-5.4454,-5.4454,-5.4454,0.0,0.0,0.0,0.0,0.0,0.0,0.0,0.0,0.0,0.0,0.0,0.0,0.0,0.0,0.0,0.0,0.0,0.0,0.0,0.0,0.0,-1.9077,-1.9838,-2.0874,-2.2265,-2.231,-2.2398,-2.2634,-2.3021,-2.3189,-2.3212,-2.3588,-2.3937,-2.419,-2.419,-2.419,-2.419,-2.419,-2.419,-2.419,-2.419,-2.419,-2.4208,-2.4355,-2.4318,-2.4208,-2.4355,-2.4318,-2.419,-2.419,0.0,0.0,0.0,0.0,-2.4837,-2.6008,-2.6049,-2.6388,-2.9631,-3.2297,-3.5394,-4.0456,-4.3159,0.0,-4.5164,-4.6127,-4.6769,0.0,0.0,0.0,0.0,0.0,0.0,0.0,0.0,0.0,0.0,0.0,0.0,0.0,0.0,0.0,0.0,0.0,0.0,0.0,0.0,0.0,0.0,0.0,-4.9095,-4.8948,-4.9609,-4.9627,-4.8948,-4.8948,-4.8269,-4.6911,-4.7572,-4.8343,-4.9187,-4.9866,-5.0398,-5.0802,-5.0802,-5.1187,-5.1775,-5.1775,-5.2197,-5.2803,-5.2949,-5.3004,-5.3023,-5.317,-5.3206,-5.3206,0.0,0.0,0.0,0.0,0.0,0.0,0.0,0.0,0.0,0.0,-1.3901,0.0,0.0,0.0,0.0,0.0,0.0,0.0,0.0,0.0,0.0,-1.9835,-2.0638,-2.145,-2.2293,-2.231,-2.2338,-2.2332,-2.2933,-2.3189,-2.3212,-2.3837,-2.4151,-2.419,-2.419,-2.419,-2.419,-2.419,-2.419,-2.419,-2.419,-2.419,-2.4281,-2.4961,-2.4795,-2.4281,-2.4999,-2.4777,-2.419,-2.419,-2.4649,0.0,0.0,0.0,-2.6473,-2.7531,-2.6804,-2.6449,-2.9975,-3.326,-3.6171,0.0,-4.0583,-4.2624,0.0,0.0,0.0,0.0,0.0,0.0,0.0,0.0,0.0,0.0,0.0,0.0,0.0,0.0,0.0,0.0,0.0,0.0,0.0,0.0,0.0,0.0,0.0,0.0,0.0,-4.7443,-4.7113,-4.6416,-4.6507,-4.6507,-4.6397,-4.6379,-4.6287,-4.6067,-4.6177,-4.6654,-4.7462,-4.7572,-4.8783,-5.0802,-5.0802,-5.0857,-5.0967,-5.0967,-5.1022,-5.1187,-5.1885,-5.216,-5.2234,-5.2949,-5.3206,-5.3206,0.0,0.0,0.0,0.0,0.0,0.0,0.0,0.0,0.0,0.0,0.0,-1.4721,0.0,0.0,0.0,0.0,0.0,0.0,0.0,0.0,0.0,-2.0323,-2.1023,-2.1697,-2.231,-2.231,-2.236,-2.251,-2.2989,-2.33,-2.35,-2.4452,-2.4869,-2.485,-2.4392,-2.4447,-2.4869,-2.4869,-2.4869,-2.4905,-2.5364,-2.5273,-2.4942,-2.5768,-2.5566,-2.4979,-2.5768,-2.5841,-2.5548,-2.5548,-2.5786,-2.6062,-2.6062,0.0,0.0,0.0,-2.7528,-2.7468,-3.0113,-3.1977,-3.3751,0.0,-3.786,-3.9563,-4.1415,0.0,0.0,0.0,0.0,0.0,0.0,0.0,0.0,0.0,0.0,0.0,0.0,0.0,0.0,0.0,0.0,0.0,0.0,0.0,0.0,0.0,0.0,0.0,-4.6452,-4.6434,-4.6269,-4.5902,-4.5902,-4.5902,-4.5902,-4.5902,-4.5902,-4.5883,-4.5443,-4.5663,-4.6434,-4.6434,-4.7517,-4.9407,-4.9407,-4.9682,-5.0123,-5.0123,-5.038,-5.0839,-5.1187,-5.1591,-5.2032,-5.2399,-5.2821,-5.3206,0.0,0.0,0.0,0.0,0.0,0.0,0.0,0.0,0.0,0.0,0.0,0.0,0.0,0.0,0.0,0.0,0.0,0.0,0.0,0.0,0.0,-2.085,-2.1437,-2.1928,-2.2282,-2.231,-2.2415,-2.2599,-2.2923,-2.3236,-2.3584,-2.4632,-2.5333,-2.5676,-2.5071,-2.5144,-2.5695,-2.5695,-2.5695,-2.5731,-2.6135,-2.5933,-2.5476,-2.6062,-2.5915,-2.5513,-2.6319,-2.6612,-2.6612,-2.6612,-2.6741,-2.6906,-2.6906,-2.6906,0.0,0.0,0.0,-2.8331,-2.9386,0.0,-3.1295,-3.3343,-3.4928,-3.6589,0.0,0.0,0.0,0.0,0.0,0.0,0.0,0.0,0.0,0.0,0.0,0.0,0.0,0.0,0.0,0.0,0.0,0.0,0.0,0.0,0.0,0.0,0.0,0.0,-4.5626,-4.5608,-4.5498,-4.5296,-4.5278,-4.5278,-4.5278,-4.5278,-4.5278,-4.5278,-4.469,-4.4819,-4.5608,-4.5608,-4.6361,-4.77,-4.7921,-4.8489,-4.926,-4.926,-4.9609,-5.0196,-5.0417,-5.0857,-5.1408,-5.161,-5.2197,-5.2913,0.0,0.0,0.0,0.0,0.0,0.0,0.0,0.0,0.0,0.0,0.0,0.0,-1.5712,-1.6293,-1.6652,-1.6652,-1.7264,-1.8135,-1.926,-2.0337,-2.1133,-2.1532,-2.2015,0.0,-2.231,-2.231,-2.231,-2.2321,-2.2573,-2.2898,-2.323,-2.4003,-2.5123,-2.6539,-2.6502,-2.6502,-2.6539,-2.6539,-2.6539,-2.6465,-2.575,-2.5439,-2.5403,-2.5458,-2.5439,-2.5513,-2.6319,-2.6612,-2.6612,-2.6612,-2.7108,-2.7732,-2.7732,-2.7732,-2.7897,0.0,0.0,0.0,-2.7203,-2.8493,0.0,-2.9499,-3.1666,0.0,0.0,0.0,0.0,0.0,0.0,0.0,0.0,0.0,0.0,0.0,0.0,0.0,0.0,0.0,0.0,0.0,0.0,0.0,0.0,0.0,0.0,0.0,0.0,0.0,-4.4764,-4.4764,-4.4415,-4.3644,-4.3608,-4.3608,-4.3608,-4.3608,-4.3608,-4.3608,-4.3571,-4.3975,-4.4764,-4.4764,-4.5223,-4.6067,-4.6838,-4.7627,-4.8379,-4.8379,-4.8398,-4.8508,-4.9334,-4.9664,-4.9811,-5.0582,-5.1371,-5.205,0.0,0.0,0.0,0.0,0.0,0.0,0.0,0.0,0.0,0.0,0.0,0.0,0.0,-1.7204,-1.7466,-1.7762,-1.8869,-1.9915,-2.0762,-2.1437,-2.1915,-2.2032,-2.2209,-2.231,-2.231,-2.231,-2.231,-2.231,-2.2563,-2.2772,-2.2915,-2.4124,-2.5117,-2.5919,-2.6103,-2.6636,-2.7365,-2.7365,-2.7365,-2.7346,-2.7053,-2.6631,-2.6172,-2.6172,-2.6172,-2.6282,0.0,0.0,-2.8132,-2.8132,-2.8338,-2.8576,-2.8576,-2.8576,-2.8631,-2.8925,-2.8994,-2.8755,-2.7677,0.0,0.0,-2.892,-2.9855,-3.1219,0.0,0.0,0.0,0.0,0.0,0.0,0.0,0.0,0.0,0.0,0.0,0.0,0.0,0.0,0.0,0.0,0.0,0.0,0.0,0.0,0.0,0.0,0.0,0.0,-4.3956,-4.392,-4.3791,-4.3497,-4.3497,-4.3497,-4.3497,-4.3497,-4.3497,-4.3497,-4.3497,-4.3644,-4.392,-4.392,-4.4378,-4.5149,-4.5443,-4.6324,-4.7535,-4.7535,-4.7847,-4.8343,-4.8636,-4.9095,-4.9609,-4.9903,-5.0527,-5.1298,0.0,0.0,0.0,0.0,0.0,0.0,0.0,0.0,0.0,-1.6682,0.0,0.0,0.0,0.0,-1.8543,-1.9202,-2.0183,-2.0983,-2.1549,-2.1899,-2.2135,-2.2282,-2.231,-2.231,-2.231,-2.231,-2.231,-2.231,-2.249,-2.2625,-2.2738,-2.3854,-2.4658,-2.5161,-2.5522,-2.6554,-2.7976,-2.7852,-2.7952,-2.8154,-2.7603,-2.7236,-2.6979,-2.6704,-2.6943,0.0,0.0,0.0,0.0,0.0,-2.8994,-2.8994,-2.8994,-2.8994,-2.8994,-2.8994,-2.8994,-2.8865,-2.8356,-2.8209,-2.8264,0.0,0.0,-2.9342,0.0,0.0,0.0,0.0,0.0,0.0,0.0,0.0,0.0,0.0,0.0,0.0,0.0,0.0,0.0,0.0,0.0,0.0,0.0,0.0,0.0,0.0,0.0,0.0,-4.3516,-4.3497,-4.3497,-4.3497,-4.3222,-4.3094,-4.3094,-4.3094,-4.3094,-4.3094,-4.3369,-4.3497,-4.3497,-4.3497,-4.3791,-4.4305,-4.4305,-4.5223,-4.6728,-4.7003,-4.7425,-4.7921,-4.8196,-4.8655,-4.915,-4.915,-4.9682,-5.0508,0.0,0.0,0.0,0.0,0.0,0.0,0.0,0.0,-1.7473,-1.6846,0.0,0.0,0.0,0.0,0.0,-2.0943,-2.1039,-2.1213,-2.1598,-2.1612,-2.1823,-2.2282,-2.231,-2.231,-2.231,-2.231,-2.231,-2.231,-2.231,-2.2436,-2.2686,-2.317,-2.3736,-2.4385,-2.4865,-2.6286,-2.8294,-2.7944,-2.8246,-2.881,-2.7273,-2.7108,-2.7714,-2.6906,0.0,0.0,-2.8994,-2.9549,0.0,-2.9329,0.0,0.0,0.0,-2.9012,-2.8994,-2.8994,-2.8994,-2.8994,0.0,0.0,0.0,0.0,0.0,0.0,0.0,0.0,0.0,0.0,0.0,0.0,0.0,0.0,0.0,0.0,0.0,0.0,0.0,0.0,0.0,0.0,0.0,0.0,0.0,0.0,0.0,0.0,0.0,-4.3424,-4.3424,-4.3424,-4.3424,-4.3424,-4.2671,-4.2268,-4.2268,-4.2286,-4.2304,-4.2304,-4.3112,-4.3497,-4.3497,-4.3497,-4.3497,-4.3497,-4.3497,-4.4378,-4.5883,-4.6709,-4.7076,-4.7205,-4.7976,-4.8288,-4.8306,-4.8306,-4.8838,-4.9664,0.0,0.0,0.0,0.0,0.0,0.0,-1.7146,-1.7458,-1.7802,0.0,0.0,0.0,-1.971,-2.0512,-2.1126,-2.1413,-2.1735,-2.1991,-2.2106,-2.2106,-2.2163,-2.2282,-2.231,-2.231,-2.231,-2.231,-2.231,-2.231,-2.25,-2.2527,-2.2426,-2.3235,-2.3646,-2.3698,-2.4207,-2.5134,-2.6364,-2.7133,-2.772,-2.8081,-2.764,-2.7603,0.0,0.0,0.0,0.0,0.0,-2.9898,-3.0944,0.0,-3.0246,-3.0632,0.0,-2.9475,-2.8994,-2.8994,-2.8994,-2.8994,-2.8994,0.0,0.0,0.0,0.0,0.0,0.0,0.0,0.0,0.0,0.0,0.0,0.0,0.0,0.0,0.0,0.0,0.0,0.0,0.0,0.0,0.0,0.0,0.0,0.0,0.0,0.0,0.0,-4.2084,-4.1772,-4.1772,-4.1772,-4.1772,-4.1772,-4.1552,-4.1442,-4.1442,-4.2011,-4.2304,-4.2304,-4.3112,-4.3497,-4.3497,-4.3497,-4.3497,-4.3497,-4.3497,-4.3736,-4.4213,-4.5039,-4.6067,-4.7094,-4.737,-4.781,-4.8306,-4.8306,-4.8453,-4.8857,0.0,0.0,0.0,0.0,0.0,-1.7249,-1.7637,-1.8194,-1.8583,0.0,0.0,0.0,-2.0518,-2.1368,-2.1899,-2.1899,-2.2135,-2.231,-2.231,-2.231,-2.231,-2.231,-2.231,-2.231,-2.231,-2.231,-2.231,-2.231,-2.2563,-2.2625,-2.249,-2.3159,-2.3358,-2.3134,-2.3583,-2.4266,-2.5108,-2.6285,-2.7172,0.0,-2.7787,0.0,0.0,-2.7787,-2.8613,0.0,0.0,0.0,-3.2228,-3.1091,-3.0999,0.0,0.0,0.0,-2.9439,-2.9085,-2.8994,-2.8994,-2.8994,-2.8994,-2.8994,-2.8994,0.0,0.0,0.0,-2.7658,0.0,0.0,0.0,0.0,0.0,0.0,0.0,0.0,0.0,0.0,0.0,0.0,0.0,0.0,0.0,0.0,0.0,0.0,0.0,0.0,-4.1368,-4.1111,-4.1111,-4.1111,-4.1111,-4.1111,-4.0781,-4.0598,-4.0598,-4.1056,-4.146,-4.1809,-4.2598,-4.3167,-4.3497,-4.3497,-4.3497,-4.3497,-4.3497,-4.3497,-4.3534,-4.4011,-4.4947,-4.6177,-4.6856,-4.7407,-4.7847,-4.8196,-4.8306,-4.8489,0.0,0.0,-1.7055,-1.7772,-1.7847,-1.7832,-1.7891,-1.8927,-1.948,0.0,-1.9351,-2.0104,-2.0959,-2.1751,-2.2237,-2.2282,-2.231,-2.231,-2.231,-2.231,-2.231,-2.231,-2.231,-2.231,-2.231,-2.231,-2.231,-2.231,-2.2563,-2.2669,-2.266,-2.3021,-2.2996,-2.2686,-2.3069,-2.3626,-2.4335,-2.5517,0.0,-2.7548,-2.7714,-2.8282,0.0,0.0,-2.9879,-3.1256,-3.1256,-3.2228,-3.3311,-3.188,-3.1329,0.0,0.0,0.0,0.0,0.0,-2.8994,-2.8994,-2.8994,-2.9067,-2.9104,-2.9012,0.0,0.0,-2.7236,-2.6943,0.0,0.0,0.0,0.0,0.0,0.0,0.0,0.0,0.0,0.0,0.0,0.0,0.0,0.0,0.0,0.0,0.0,0.0,-4.0616,-4.0708,-4.0708,-4.0708,-4.0708,-4.0799,-4.0836,-4.0836,-4.0139,-3.9772,-3.9772,-3.9845,-4.0267,-4.0983,-4.1882,-4.2671,-4.3369,-4.3442,-4.3497,-4.3497,-4.3497,-4.3497,-4.3497,-4.3497,-4.3975,-4.4856,-4.6379,-4.704,-4.7223,-4.8012,-4.8306,-4.8416,0.0,-1.7861,-1.7876,-1.9091,-1.8867,-1.8687,-1.9226,-1.9525,-1.963,-1.951,-1.9889,-2.0516,-2.1399,-2.1628,-2.1899,-2.2282,-2.231,-2.231,-2.231,-2.231,-2.231,-2.231,-2.231,-2.231,-2.231,-2.231,-2.231,-2.231,-2.2563,-2.2599,-2.2388,-2.294,-2.2908,-2.2415,-2.3248,-2.3526,-2.3519,-2.4947,0.0,-2.5991,-2.7273,0.0,-2.892,-2.8282,-2.9035,-3.043,-3.043,-3.1054,-3.1806,-3.1494,-3.0962,-3.0375,0.0,0.0,0.0,-2.9049,0.0,0.0,-2.8994,-2.9475,0.0,0.0,0.0,0.0,-2.8906,-2.9035,-2.9127,0.0,0.0,0.0,0.0,0.0,0.0,0.0,0.0,0.0,0.0,0.0,0.0,0.0,0.0,0.0,0.0,0.0,-3.7514,-3.8138,-3.8193,-3.8193,-3.8193,-3.8817,-3.9184,-3.9184,-3.9019,-3.8927,-3.8927,-3.957,-3.9974,-4.0139,-4.1607,-4.2378,-4.2561,-4.3185,-4.3497,-4.3497,-4.3497,-4.3497,-4.3497,-4.3497,-4.3975,-4.48,-4.5773,-4.6544,-4.7223,-4.8012,-4.8306,-4.8416,-1.8608,-1.8433,-1.8523,-1.951,-1.9151,-1.8927,-1.9585,-1.969,-1.969,-1.969,-2.0261,-2.094,-2.173,-2.1889,-2.2032,-2.2282,-2.231,-2.231,-2.231,-2.2649,-2.2852,-2.2852,-2.319,-2.3393,-2.3393,-2.3038,-2.2852,-2.2852,-2.2735,-2.2634,-2.25,-2.2989,-2.294,-2.2527,-2.3159,-2.3797,-2.4449,-2.5366,-2.6322,-2.72,-2.72,0.0,-2.8356,-2.7952,-2.8796,-3.021,-3.021,-3.098,-3.1935,-3.1531,-3.1659,0.0,0.0,-3.021,-3.021,0.0,-2.9641,-2.9085,0.0,0.0,0.0,-2.9604,0.0,0.0,0.0,-2.8998,0.0,0.0,0.0,0.0,0.0,0.0,0.0,0.0,0.0,0.0,0.0,0.0,0.0,0.0,0.0,0.0,0.0,0.0,-3.5385,-3.6193,-3.6248,-3.6431,-3.6872,-3.7276,-3.7679,-3.8083,-3.8102,-3.8285,-3.8707,-3.9093,-3.9496,-3.99,-4.0708,-4.1515,-4.2304,-4.2708,-4.3112,-4.3497,-4.3497,-4.3497,-4.3497,-4.3497,-4.3736,-4.4176,-4.4984,-4.5792,-4.6617,-4.7407,-4.7976,-4.8361,-1.8847,-1.8897,-1.9061,-1.96,-1.9241,-1.9076,-1.96,-1.969,-1.9771,-2.0035,-2.0525,-2.1198,-2.2034,-2.2151,-2.2327,-2.2699,-2.2462,-2.2496,-2.2919,-2.3224,-2.3393,-2.3393,-2.4103,-2.4438,-2.4272,-2.3833,-2.3613,-2.3613,-2.3093,-2.2901,-2.3039,-2.303,-2.3022,-2.3066,-2.3087,-2.3982,-2.5508,-2.5685,0.0,-2.7971,0.0,-2.6907,-2.8007,-2.786,-2.8705,-2.9971,-2.9971,-3.0907,-3.2045,-3.1384,-3.2137,-3.2999,-3.1054,-3.076,0.0,0.0,0.0,0.0,0.0,0.0,0.0,0.0,0.0,-2.9562,0.0,0.0,0.0,0.0,0.0,0.0,0.0,0.0,0.0,0.0,0.0,0.0,0.0,0.0,0.0,0.0,0.0,0.0,0.0,0.0,-3.355,-3.4037,-3.4348,-3.4926,-3.5771,-3.5973,-3.6413,-3.7221,-3.7257,-3.7643,-3.8469,-3.8469,-3.8872,-3.9662,-3.9827,-4.0653,-4.2066,-4.2231,-4.2745,-4.3497,-4.3497,-4.3497,-4.3497,-4.3497,-4.3497,-4.3571,-4.4397,-4.5112,-4.5792,-4.6764,-4.7517,-4.8104,-1.9483,-1.957,-1.96,-1.9675,-1.963,-1.96,-1.9675,-1.969,-2.0065,-2.1177,-2.0752,-2.0968,-2.2474,-2.2057,-2.2368,-2.409,0.0,0.0,-2.5101,0.0,-2.3393,-2.3393,-2.4103,-2.4201,-2.3528,-2.4069,-2.4388,-2.4388,-2.3672,-2.3638,-2.4279,-2.3,-2.3085,-2.4245,-2.3212,-2.3614,-2.5021,-2.4672,-2.463,0.0,-2.4644,-2.6303,0.0,-2.8062,-2.8356,-2.9122,-2.9122,-2.9714,-3.0467,0.0,-3.0925,-3.1604,0.0,-3.0834,-3.0485,-3.1182,0.0,0.0,0.0,0.0,0.0,0.0,-3.1201,0.0,0.0,0.0,0.0,0.0,0.0,0.0,0.0,0.0,0.0,0.0,0.0,0.0,0.0,0.0,0.0,0.0,0.0,0.0,0.0,0.0,0.0,-3.0797,-3.2082,-3.3238,-3.4045,-3.4761,-3.555,-3.6413,-3.6431,-3.6817,-3.7606,-3.7624,-3.8028,-3.8836,-3.9551,-4.0377,-4.1277,-4.1974,-4.2745,-4.3497,-4.3497,-4.3497,-4.3497,-4.3497,-4.3497,-4.3571,-4.4397,-4.4764,-4.5021,-4.6562,-4.7186,-4.7352,-1.9639,-1.969,-1.969,-1.969,-1.969,-1.969,-1.969,-2.0034,-2.0587,-2.1516,-2.1781,-2.2484,0.0,0.0,0.0,0.0,0.0,-2.3968,0.0,0.0,-2.4222,-2.4661,-2.5372,-2.5625,-2.5321,-2.5203,-2.5135,-2.5135,-2.4391,-2.4218,-2.4506,-2.3849,-2.39,-2.4472,-2.3516,-2.3818,-2.5045,0.0,-2.5393,0.0,0.0,0.0,0.0,-2.6703,-2.7031,-2.8374,-2.881,-2.9531,-3.0136,0.0,-3.0668,0.0,0.0,0.0,0.0,0.0,0.0,0.0,0.0,0.0,0.0,0.0,0.0,0.0,-2.9934,0.0,-2.942,0.0,0.0,0.0,0.0,0.0,0.0,0.0,0.0,0.0,0.0,0.0,0.0,0.0,0.0,0.0,0.0,0.0,0.0,0.0,0.0,-3.1107,-3.1696,-3.2926,-3.399,-3.4816,-3.5312,-3.5954,-3.6798,-3.6798,-3.7202,-3.801,-3.834,-3.9166,-4.0414,-4.0744,-4.1589,-4.28,-4.28,-4.3057,-4.3497,-4.3497,-4.3497,-4.3516,-4.3864,-4.4287,-4.4782,-4.548,-4.6324,-4.713,-1.9639,-1.969,-1.969,-1.969,-1.969,-1.975,-1.9944,-2.0489,0.0,0.0,0.0,0.0,-2.5436,-2.5779,0.0,0.0,-2.5964,-2.549,0.0,0.0,-2.5067,0.0,0.0,0.0,-2.6099,-2.5964,-2.5896,-2.5896,-2.5152,-2.4881,-2.5067,-2.4709,-2.4726,-2.5082,-2.4103,-2.4266,-2.5212,0.0,-2.5611,-2.6608,-2.6093,-2.631,-2.6827,-2.5821,-2.647,-2.8036,-2.862,-2.9295,-2.9824,-2.9457,-3.0503,0.0,-3.0834,0.0,0.0,0.0,0.0,0.0,-3.2394,0.0,0.0,0.0,0.0,0.0,0.0,0.0,0.0,0.0,0.0,0.0,0.0,0.0,0.0,-2.8723,0.0,0.0,0.0,0.0,0.0,0.0,0.0,0.0,0.0,0.0,0.0,0.0,-2.7893,0.0,-2.9704,-3.0837,-3.2096,-3.344,-3.4045,-3.4871,-3.5936,-3.5936,-3.6468,-3.7507,-3.7507,-3.8322,-3.99,-3.99,-4.0781,-4.2304,-4.2304,-4.2763,-4.3497,-4.3497,-4.3497,-4.3497,-4.3497,-4.3864,-4.4397,-4.4635,-4.5461,-4.6526,-1.9479,-1.969,-1.969,-1.969,-1.969,-1.9914,-2.0572,0.0,0.0,0.0,0.0,0.0,0.0,0.0,0.0,0.0,0.0,-2.8027,-2.8789,0.0,-2.5676,0.0,0.0,-2.6015,0.0,-2.5947,-2.6657,-2.6657,-2.593,-2.593,-2.659,-2.5184,-2.5253,-2.6556,-2.5133,-2.4864,-2.5524,-2.4811,-2.4133,-2.3553,-2.3536,-2.3895,-2.4683,0.0,-2.7424,-2.8384,-2.8402,0.0,0.0,-2.9916,-3.021,0.0,0.0,0.0,0.0,0.0,0.0,0.0,0.0,0.0,0.0,-3.1788,0.0,0.0,0.0,0.0,-2.9953,0.0,0.0,0.0,0.0,-2.8994,-2.876,-2.797,-2.7787,0.0,0.0,0.0,0.0,0.0,0.0,0.0,0.0,0.0,0.0,-2.4573,-2.5273,-2.6565,-2.846,-2.8587,-2.9864,-3.2551,-3.2669,-3.3458,-3.5027,-3.5027,-3.5881,-3.7507,-3.7507,-3.8322,-3.99,-3.99,-4.0781,-4.2304,-4.2304,-4.2763,-4.3497,-4.3497,-4.3497,-4.3497,-4.3497,-4.3516,-4.3626,-4.4415,-4.4745,-4.5002,-1.9728,-2.0408,-2.0737,-1.9839,0.0,0.0,0.0,-2.1858,0.0,0.0,0.0,0.0,0.0,-3.051,-3.0903,0.0,0.0,-2.9956,-2.9736,-2.8772,0.0,0.0,0.0,-2.774,0.0,0.0,-2.7435,-2.7435,-2.6691,-2.6454,-2.6674,-2.6184,-2.6218,-2.6657,-2.5659,-2.5101,0.0,0.0,0.0,0.0,0.0,-2.5026,-2.6391,0.0,0.0,-2.8067,-2.8615,-2.8887,0.0,-2.9329,-2.9769,-3.0155,-2.9898,-3.0356,-3.0944,-3.0687,-3.1366,0.0,0.0,0.0,-3.3532,-3.2467,0.0,0.0,0.0,0.0,0.0,0.0,0.0,0.0,0.0,-2.8994,-2.8902,-2.865,-2.7714,-2.671,0.0,0.0,0.0,0.0,0.0,0.0,0.0,0.0,0.0,-2.3947,-2.4931,-2.5704,0.0,-2.7827,-2.9509,-3.098,-3.2045,-3.3128,-3.4211,-3.4211,-3.5055,-3.6707,-3.6707,-3.7551,-3.9111,-3.9111,-3.968,-4.0744,-4.1277,-4.1974,-4.2745,-4.3277,-4.3497,-4.3497,-4.3497,-4.3497,-4.3516,-4.3809,-4.458,-4.5718,-2.0102,-2.0752,0.0,0.0,0.0,0.0,0.0,0.0,0.0,0.0,-2.8542,0.0,-3.231,0.0,-3.3254,0.0,-3.2916,-3.1833,-3.0581,-3.0277,0.0,-2.7503,-2.8416,0.0,0.0,0.0,-2.7789,-2.7789,-2.7334,-2.7097,-2.7097,-2.6826,-2.6691,-2.6674,-2.6201,-2.5439,-2.4506,-2.4506,-2.4218,0.0,0.0,-2.4952,0.0,0.0,-2.6977,-2.8469,0.0,-2.8863,-2.8994,-2.8994,-2.9347,-2.9696,-2.914,-2.9714,-3.0448,-2.9934,-3.0925,-3.2173,-3.2173,-3.2963,0.0,-3.2816,-3.221,0.0,-3.0448,0.0,0.0,0.0,0.0,0.0,0.0,0.0,-2.8994,-2.8994,-2.7658,-2.6267,0.0,-2.4364,0.0,0.0,0.0,0.0,0.0,0.0,-2.3626,-2.3535,-2.4248,-2.4753,0.0,0.0,-2.8516,-2.9751,-3.1329,-3.2559,-3.3366,-3.366,-3.4486,-3.5844,-3.6156,-3.6982,-3.8285,-3.8579,-3.9148,-3.9937,-4.0763,-4.157,-4.2359,-4.3167,-4.3497,-4.3497,-4.3497,-4.3497,-4.3497,-4.3497,-4.4507,-4.6085,0.0,0.0,0.0,0.0,-2.0408,0.0,0.0,0.0,-2.7122,0.0,-3.1072,-3.2334,-3.2493,-3.3728,-3.4513,-3.4607,-3.4573,0.0,-3.1495,-3.2002,0.0,0.0,-2.8349,-2.8416,-2.6843,0.0,0.0,0.0,-2.7789,-2.7789,-2.7772,-2.7046,-2.6708,-2.6742,-2.6708,-2.5862,-2.4506,-2.4506,-2.368,-2.2412,-2.2378,-2.3732,-2.5745,-2.5674,0.0,-2.9538,-2.8735,-2.8682,-2.8994,-2.8994,-2.8994,-2.8994,-2.8994,-2.8994,-2.8994,-2.8994,-3.0118,-3.1329,-3.1329,-3.2522,-3.355,-3.2742,0.0,0.0,0.0,0.0,-3.2063,0.0,0.0,0.0,0.0,0.0,-2.8994,-2.8994,-2.7695,-2.5996,-2.41,0.0,0.0,0.0,0.0,0.0,0.0,-2.3414,-2.3212,-2.3212,-2.3212,-2.369,0.0,0.0,-2.6986,-2.8883,-3.054,-3.1788,-3.2596,-3.3403,-3.4229,-3.5064,-3.5899,-3.6725,-3.7569,-3.834,-3.9129,-3.9882,-4.0744,-4.1534,-4.2304,-4.3149,-4.3497,-4.3497,-4.3497,-4.3497,-4.3497,-4.3571,-4.458,-4.6012,-2.0863,-2.1111,-2.1695,0.0,-2.2353,-2.2733,0.0,0.0,0.0,0.0,-3.1328,-3.2659,-3.5346,-3.4977,-3.5048,-3.6129,-3.5656,0.0,0.0,0.0,0.0,-3.0159,-3.0937,-3.0518,-2.8433,-2.9127,0.0,-2.7789,0.0,-2.7789,-2.7772,-2.7046,-2.6996,-2.7503,-2.6945,-2.5862,-2.4506,-2.4506,-2.4286,-2.3883,-2.3342,-2.5161,0.0,0.0,-2.7957,-2.9942,-2.9137,-2.8905,-2.8994,-2.8994,-2.8994,-2.8994,-2.8994,-2.8994,-2.8994,-2.8994,-2.9732,-3.0503,-3.0503,-3.1678,-3.2724,-3.1916,-3.1715,-3.1439,0.0,0.0,0.0,0.0,0.0,0.0,0.0,0.0,0.0,-2.8994,-2.8154,-2.7105,-2.6015,0.0,0.0,-2.5865,0.0,0.0,0.0,-2.3544,-2.3282,-2.3544,-2.3566,0.0,0.0,0.0,0.0,-2.8062,-3.0246,-3.1788,-3.2596,-3.3403,-3.4523,-3.5973,-3.6193,-3.7019,-3.8395,-3.8615,-3.8817,-3.9093,-4.0506,-4.124,-4.1534,-4.291,-4.3497,-4.3497,-4.3497,-4.3497,-4.3626,-4.4837,-4.5553,-4.6104,-2.1724,0.0,0.0,-2.4253,0.0,0.0,-2.5737,0.0,0.0,-3.1083,-3.2252,0.0,-3.5211,-3.5512,-3.5743,-3.6219,-3.5876,0.0,-3.4539,0.0,0.0,-3.1749,-3.1749,-3.092,-2.9062,-2.9059,0.0,-2.8332,0.0,-2.7841,-2.8789,-2.7368,-2.7283,-2.8281,-2.7182,-2.6234,-2.5389,-2.4408,-2.4002,-2.3968,-2.3562,0.0,0.0,-2.7014,-2.7887,-2.935,-2.8913,-2.8839,-2.8994,-2.8994,-2.8994,-2.8994,-2.8994,-2.8994,-2.8994,-2.8994,-2.9586,-3.021,-3.021,-3.1127,-3.1971,-3.1513,-3.1384,-3.1182,-3.0375,-3.0467,-3.0613,0.0,0.0,0.0,0.0,0.0,0.0,-2.8539,-2.8099,-2.7512,0.0,0.0,0.0,0.0,-2.619,0.0,0.0,0.0,-2.3714,-2.3896,0.0,0.0,0.0,0.0,0.0,-2.7255,-3.0632,-3.232,-3.2082,-3.4302,-3.5514,-3.5752,-3.6468,-3.7294,-3.8193,-3.8542,-3.8891,-3.9276,-4.0175,-4.0983,-4.1699,-4.2598,-4.3167,-4.3497,-4.3497,-4.3497,-4.3644,-4.4911,-4.5608,-4.6085,0.0,0.0,0.0,0.0,0.0,0.0,0.0,-2.7845,0.0,-3.1454,0.0,-3.4104,-3.3656,-3.5174,-3.5991,-3.5367,0.0,-3.5183,-3.4587,-3.4496,-3.3863,-3.2493,-3.1647,-3.0497,-2.9008,-2.8213,-2.8146,0.0,-2.7385,-2.7875,-3.0057,-2.7875,-2.7655,-2.9059,-2.7638,-2.6826,0.0,-2.4492,-2.363,-2.3545,-2.3646,-2.4568,-2.5897,-2.6596,-2.7477,-2.8324,-2.8324,-2.8558,-2.8858,-2.8858,-2.8858,-2.8858,-2.8905,-2.8929,-2.8929,-2.8975,-2.9512,-3.0044,-3.0044,-3.0632,-3.1219,-3.1109,-3.1237,-3.1146,-3.0246,-3.0668,-3.1035,-3.0338,-3.0118,-3.0283,0.0,0.0,0.0,-2.8209,-2.8026,-2.7714,0.0,0.0,0.0,0.0,0.0,0.0,0.0,0.0,0.0,0.0,0.0,0.0,0.0,0.0,0.0,-2.6677,-3.1102,0.0,-3.1715,0.0,-3.6597,-3.5485,-3.6853,-3.7581,-3.7661,-3.8377,-3.9148,-3.99,-4.001,-4.091,-4.2304,-4.2415,-4.2873,-4.3497,-4.3497,-4.3497,-4.3571,-4.4287,-4.5131,-4.6012,0.0,0.0,0.0,0.0,0.0,-2.776,-2.8312,-2.929,-3.0739,-3.2847,-3.2524,-3.2454,-3.3473,-3.3439,-3.3482,-3.3903,-3.4447,0.0,0.0,0.0,0.0,-3.3254,-3.1918,-3.0497,-2.9008,-2.8213,-2.7892,0.0,-2.7131,-2.7875,-3.0074,-2.8399,-2.8433,-2.9871,-2.8975,-2.7537,-2.5778,-2.5389,0.0,-2.434,-2.4966,-2.5942,-2.7026,-2.7165,-2.7543,-2.801,-2.801,-2.8037,-2.8093,-2.8093,-2.8093,-2.8147,-2.8438,-2.8515,-2.8565,-2.8887,-2.9085,-2.9195,-2.9195,-2.9806,-3.0246,-2.9604,-3.0411,-3.1017,-2.9549,-2.9843,-3.0375,-3.0228,-2.9677,-2.9475,-3.0265,0.0,0.0,0.0,0.0,0.0,0.0,0.0,0.0,0.0,0.0,0.0,0.0,0.0,0.0,0.0,0.0,0.0,0.0,0.0,0.0,0.0,0.0,0.0,0.0,0.0,-3.6321,-3.8065,-3.7679,-3.7845,-3.8487,-3.8634,-3.9148,-3.9937,-4.0598,-4.1442,-4.2359,-4.302,-4.3369,-4.3497,-4.3497,-4.3497,-4.3516,-4.3644,-4.4635,-4.6012,0.0,0.0,0.0,0.0,0.0,0.0,0.0,-3.145,0.0,-3.1959,-3.1735,-3.1805,-3.2505,-3.2872,-3.3235,-3.3582,-3.3887,-3.4088,-3.4018,-3.3665,-3.3232,-3.2848,-3.1782,0.0,-2.9008,-2.7841,-2.7621,-2.8416,-2.6877,-2.7689,-3.0632,-2.8721,-2.86,-3.004,-2.8484,-2.7402,0.0,0.0,0.0,-2.5101,-2.5456,-2.6051,-2.6766,-2.7147,-2.7409,-2.7589,-2.7589,-2.7439,-2.7317,-2.7754,-2.7897,-2.7926,-2.8102,-2.8264,-2.8446,-2.8633,-2.8839,-2.8994,-2.8994,-2.9292,-2.9494,-2.9085,-2.9586,-2.9953,-2.9177,-2.931,-2.9586,-2.9586,-2.925,-2.9255,-3.0063,-2.9549,0.0,0.0,0.0,0.0,0.0,0.0,0.0,0.0,0.0,0.0,0.0,0.0,0.0,0.0,0.0,0.0,0.0,0.0,0.0,0.0,0.0,0.0,0.0,0.0,0.0,-3.8065,-3.8102,-3.8322,-3.8707,-3.8707,-3.9368,-4.0524,-4.0487,-4.1405,-4.2947,-4.3332,-4.3497,-4.3497,-4.3497,-4.3497,-4.3534,-4.3975,-4.4874,-4.5957,0.0,-2.8682,0.0,0.0,-3.1405,0.0,-3.2452,-3.308,-3.2886,-3.115,-3.1293,-3.1582,-3.1582,-3.241,-3.2945,-3.2945,-3.2974,-3.2994,-3.309,-3.2541,-3.221,-3.2307,-3.1427,-3.0345,-2.9008,-2.7486,-2.7368,0.0,-2.6793,-2.7588,-3.092,-2.9144,-2.8958,-3.0023,0.0,0.0,0.0,0.0,-2.5355,-2.5625,-2.5778,-2.6004,-2.6368,-2.6954,-2.7178,-2.7178,-2.7178,-2.6971,-2.6791,-2.7409,-2.7648,-2.7648,-2.7754,-2.802,-2.8316,-2.8394,-2.8682,-2.8994,-2.8994,-2.8994,-2.8994,-2.8994,-2.9122,-2.9195,-2.903,-2.9122,-2.9195,-2.903,-2.9122,-2.9567,-3.054,-3.0063,0.0,0.0,0.0,0.0,0.0,0.0,0.0,0.0,0.0,0.0,0.0,0.0,0.0,0.0,0.0,0.0,0.0,0.0,0.0,0.0,0.0,-3.3495,-3.3403,0.0,-3.8303,0.0,-3.8487,-3.8799,-3.8964,-3.8964,-3.9827,-4.1332,-4.0689,-4.1589,-4.3497,-4.3497,-4.3497,-4.3497,-4.3497,-4.3497,-4.3589,-4.4415,-4.5223,-4.592,0.0,0.0,0.0,0.0,0.0,0.0,0.0,-3.308,-3.3215,-3.2437,-3.1867,-3.1492,-3.1492,-3.1095,-3.0805,-3.0805,-3.0859,-3.1121,-3.1678,-3.1573,-3.1748,-3.2273,-3.0954,-2.9837,-2.9045,-2.7486,-2.7097,0.0,0.0,-2.7824,-3.0209,-2.9989,-2.9973,0.0,0.0,0.0,0.0,-2.7317,-2.6776,-2.5659,-2.6336,-2.6623,-2.6656,-2.6724,-2.6758,-2.6758,-2.6758,-2.6725,-2.6725,-2.6791,-2.6808,-2.6873,-2.7241,-2.7619,-2.7992,-2.8316,-2.8682,-2.8994,-2.8994,-2.8994,-2.8994,-2.8994,-2.9549,-2.9898,-2.9159,-2.9567,-2.9879,-2.914,-2.9586,-3.0558,-3.21,-3.1715,-3.1458,0.0,0.0,0.0,0.0,0.0,0.0,-2.8172,0.0,0.0,0.0,0.0,0.0,0.0,0.0,0.0,0.0,0.0,0.0,-2.9375,0.0,-3.377,-3.5936,-3.7055,0.0,-3.9662,-3.9019,-3.9074,-3.979,-3.979,-4.0671,-4.2176,-4.2103,-4.2616,-4.3497,-4.3497,-4.3497,-4.3497,-4.3497,-4.3497,-4.3589,-4.4415,-4.5223,-4.5993,0.0,0.0,0.0,0.0,0.0,0.0,0.0,-3.3589,-3.326,-3.2602,-3.1943,-3.1482,-3.1482,-3.0911,-3.0507,-3.0507,-3.0165,-3.0217,-3.0799,-3.0822,-3.1035,-3.1607,-3.1072,-3.0412,-2.9685,-2.8163,-2.774,0.0,0.0,-2.8315,-3.0091,-2.9651,0.0,0.0,0.0,-2.7385,-2.7334,-2.6742,-2.6404,-2.6285,-2.6573,-2.6691,-2.6691,-2.6691,-2.6691,-2.6691,-2.6691,-2.6691,-2.6691,-2.6691,-2.6691,-2.6725,-2.6906,-2.721,-2.756,-2.7689,-2.8166,-2.8633,-2.8633,-2.8815,-2.9104,-2.9604,-2.9604,-2.9659,-3.0283,-2.9953,-2.9549,-2.9696,-2.9989,-3.0687,-3.2302,-3.1935,-3.1806,0.0,0.0,0.0,0.0,0.0,0.0,0.0,0.0,-2.9053,0.0,0.0,0.0,0.0,0.0,0.0,0.0,0.0,0.0,-2.9922,0.0,-3.355,-3.5514,-3.6835,-3.8065,-3.9184,-3.9331,-3.9588,-3.9918,-4.0396,-4.124,-4.2323,-4.28,-4.3185,-4.3497,-4.3497,-4.3497,-4.3497,-4.3497,-4.3497,-4.3644,-4.4947,-4.5626,-4.6085,-3.3739,0.0,-3.3455,0.0,-3.4397,-3.4173,-3.4442,-3.3918,-3.326,-3.2602,-3.1943,-3.1482,-3.1482,-3.0911,-3.0432,-3.0253,-2.9654,-2.9438,-2.9832,-3.0003,-3.0324,-3.0895,-3.1112,0.0,-2.9803,-2.8721,-2.8213,-2.8315,-2.7977,0.0,-2.9431,0.0,0.0,0.0,-2.6691,-2.6708,-2.7418,-2.637,-2.6218,-2.6691,-2.6691,-2.6691,-2.6691,-2.6691,-2.6691,-2.6725,-2.6945,-2.6877,-2.6725,-2.6945,-2.6877,-2.6691,-2.6691,-2.6971,-2.7303,-2.7303,-2.7833,-2.8456,-2.8691,-2.9052,-2.9549,-3.0356,-3.0136,-3.0008,-3.1127,-3.0522,-2.9934,-3.0742,-3.0907,-3.1329,-3.2706,-3.2485,-3.2467,-3.3623,0.0,0.0,0.0,0.0,0.0,0.0,-2.9072,-2.931,-2.8246,0.0,0.0,0.0,0.0,0.0,0.0,0.0,0.0,0.0,0.0,0.0,0.0,-3.7367,-3.8487,-3.9056,-3.9863,-4.0377,-4.0634,-4.1442,-4.2121,-4.2671,-4.324,-4.3497,-4.3497,-4.3497,-4.3497,-4.3516,-4.3754,-4.3846,-4.4048,-4.5663,-4.625,-4.6452,-3.4337,-3.4457,-3.4666,-3.537,-3.5489,-3.525,-3.4577,-3.3918,-3.326,-3.2602,-3.1943,-3.1482,-3.1482,-3.0911,-3.0253,-2.9639,-2.8996,-2.8616,-2.8525,-2.9058,-2.9673,0.0,0.0,-3.0497,-2.9025,-2.9011,-2.823,-2.6725,0.0,0.0,-2.784,0.0,-2.8569,-2.7789,-2.7772,-2.7385,-2.6708,-2.6691,-2.6691,-2.6691,-2.6691,-2.6691,-2.6691,-2.6691,-2.6691,-2.6793,-2.7554,-2.7334,-2.681,-2.7554,-2.73,-2.6691,-2.6691,-2.6971,-2.7303,-2.7303,-2.7833,-2.8582,-2.9385,-2.9872,-3.0375,-3.1182,-3.1366,-3.1366,-3.1384,-3.1366,-3.1604,-3.2412,-3.2577,-3.2834,-3.3642,-3.377,-3.377,-3.3807,0.0,0.0,0.0,0.0,0.0,0.0,-3.0393,-3.0742,-2.9122,0.0,0.0,0.0,0.0,0.0,0.0,0.0,0.0,-3.2478,-3.3366,0.0,-3.747,-3.9056,-3.9863,-3.99,-4.0708,-4.1515,-4.2304,-4.3094,-4.3461,-4.3479,-4.3497,-4.3497,-4.3497,-4.3497,-4.3497,-4.3571,-4.4378,-4.469,-4.4892,-4.6507,-4.7113,-4.7223,-3.504,-3.4801,-3.4696,-3.5385,-3.5115,-3.4726,-3.4502,-3.3529,-3.2751,-3.2542,-3.1943,-3.1482,-3.1482,-3.0911,-3.0253,0.0,-2.8981,-2.855,0.0,-2.9042,-2.9496,-2.9673,-3.0658,-3.0796,-2.9895,-2.9278,-2.8774,-2.8264,0.0,0.0,0.0,-2.8078,-2.7791,-2.7046,-2.7046,-2.6911,-2.6691,-2.6691,-2.6996,-2.7418,-2.6894,-2.6996,-2.7402,-2.6894,-2.6691,-2.6725,-2.6962,-2.6894,-2.6725,-2.6962,-2.6894,-2.6691,-2.6691,-2.6791,-2.6976,-2.7487,-2.8001,-2.8657,-2.9734,-3.0284,-3.0866,-3.1931,-3.1806,-3.1678,-3.2779,-3.2614,-3.2302,-3.2559,-3.2614,-3.2852,-3.3642,-3.3348,-3.2981,-3.2981,-3.1861,0.0,0.0,0.0,0.0,0.0,-2.9127,-2.9347,0.0,-2.942,0.0,0.0,0.0,0.0,0.0,0.0,0.0,0.0,-3.4486,0.0,-3.8303,-3.9918,-4.0726,-4.0726,-4.1534,-4.2341,-4.313,-4.3369,-4.3497,-4.3497,-4.3497,-4.3497,-4.3497,-4.3497,-4.3809,-4.4342,-4.4617,-4.5039,-4.5645,-4.6728,-4.7113,-4.7241,-3.537,-3.4951,-3.4696,-3.5385,-3.4936,-3.4397,-3.4143,-3.32,-3.2422,-3.2183,-3.1735,-3.1482,-3.1482,-3.115,0.0,-2.9654,-2.9205,-2.8718,-2.8201,-2.8732,-2.9042,-2.9042,-3.0208,-3.0566,-2.9897,0.0,0.0,-2.8552,-2.7774,-2.7402,-2.7402,-2.7402,-2.7148,-2.6691,-2.6691,-2.6691,-2.6691,-2.6691,-2.6962,-2.7351,-2.6894,-2.6979,-2.7351,-2.6877,-2.6691,-2.6725,-2.7012,-2.6945,-2.6742,-2.7012,-2.6928,-2.6742,-2.7029,-2.6911,-2.6843,-2.7588,-2.8271,-2.9051,-3.0094,-3.0795,-3.147,-3.2332,-3.242,-3.2559,-3.3568,-3.3421,-3.3054,-3.3054,-3.3054,-3.3201,-3.3715,-3.3385,-3.2963,-3.2669,-3.1513,-3.0558,-3.0246,0.0,0.0,0.0,0.0,0.0,0.0,-3.0613,0.0,0.0,0.0,0.0,0.0,0.0,0.0,-3.3935,-3.5789,0.0,-3.9588,-4.091,-4.1552,-4.157,-4.2378,-4.3002,-4.3497,-4.3497,-4.3497,-4.3497,-4.3497,-4.3497,-4.3497,-4.3497,-4.3975,-4.4745,-4.5039,-4.5645,-4.6452,-4.726,-4.7572,-4.7627,-3.537,-3.4906,0.0,0.0,-3.4861,0.0,-3.3589,-3.2901,-3.2228,-3.1556,-3.1482,-3.1452,-3.1407,-3.1437,-3.1001,-2.9699,0.0,0.0,0.0,-2.822,-2.8463,-2.8415,-2.9585,0.0,-2.9247,-2.9677,-2.9242,-2.7705,-2.7046,-2.6691,-2.6691,-2.6691,-2.6691,-2.6691,-2.6691,-2.6691,-2.6691,-2.6691,-2.6725,-2.6776,-2.6708,-2.6725,-2.6776,-2.6708,-2.6691,-2.6793,-2.7486,-2.7283,-2.681,-2.7571,-2.7351,-2.6911,-2.7672,-2.7452,-2.7063,-2.7774,-2.8681,-2.9678,-3.0526,-3.1356,-3.2086,-3.2406,-3.3118,-3.378,-3.3788,-3.3807,-3.3807,-3.3807,-3.3844,-3.3862,-3.3807,-3.3807,-3.3513,-3.2669,-3.1843,-3.1035,-3.0228,0.0,0.0,0.0,0.0,0.0,0.0,-3.2889,-3.3513,0.0,0.0,0.0,0.0,0.0,-3.4045,-3.6229,-3.7221,-3.8854,-4.1167,-4.1992,-4.2378,-4.2396,-4.313,-4.3497,-4.3497,-4.3497,-4.3497,-4.3497,-4.3497,-4.3497,-4.3497,-4.3497,-4.4011,-4.4874,-4.5608,-4.6434,-4.7297,-4.8031,-4.8306,-4.8306,0.0,0.0,-3.4098,-3.5295,-3.4098,-3.3095,-3.344,-3.2512,-3.1704,-3.1497,-3.1482,-3.133,-3.0806,-3.121,-3.1001,-2.9699,-2.9579,-2.9235,-2.8412,-2.8431,-2.8271,-2.781,-2.8996,-2.9548,-2.9387,-2.8837,-2.8048,-2.6962,-2.6776,-2.6691,-2.6691,-2.6691,-2.6691,-2.6691,-2.6691,-2.6691,-2.6691,-2.6691,-2.7029,-2.7503,-2.6928,-2.7046,-2.7503,-2.6911,-2.6691,-2.6708,-2.6894,-2.6843,-2.681,-2.7571,-2.7671,-2.7689,-2.8467,-2.8975,-2.933,-2.9516,-2.9353,-2.9466,-3.1094,-3.169,-3.1934,-3.2398,-3.2903,-3.3419,-3.3734,-3.3807,-3.3807,-3.3807,-3.4302,-3.4541,-3.3917,-3.3807,-3.333,-3.1898,-3.0999,-3.021,-2.9402,-2.9659,0.0,0.0,-3.1458,-3.232,-3.232,-3.322,-3.399,0.0,0.0,0.0,0.0,0.0,-3.6964,-3.6321,-3.8872,-4.0818,-4.2011,-4.28,-4.3222,-4.3222,-4.3406,-4.3497,-4.3497,-4.3497,-4.3497,-4.3497,-4.3497,-4.3497,-4.3497,-4.3497,-4.4342,-4.5626,-4.5828,-4.6764,-4.8049,-4.8233,-4.8306,-4.8306,-3.537,-3.4412,-3.3829,-3.4861,-3.3634,-3.2632,-3.2991,-3.2183,-3.1482,-3.1482,-3.1482,-3.1332,-3.1016,-3.13,-3.124,-3.0537,-2.9924,-2.931,-2.8637,-2.8288,-2.7944,-2.761,-2.8496,-2.9012,-2.9012,-2.8735,-2.8151,-2.7199,-2.686,-2.6691,-2.6691,-2.6691,-2.6691,-2.6691,-2.6691,-2.6691,-2.6691,-2.6691,-2.7131,-2.7755,-2.7368,-2.7672,-2.8264,-2.7503,-2.7199,-2.7165,-2.6826,-2.6691,-2.681,-2.7571,-2.7789,-2.7992,-2.9144,-2.955,-2.9736,-3.0395,-3.0311,-3.0234,-3.1264,-3.166,-3.1915,-3.2366,-3.2533,-3.2834,-3.3844,-3.4069,-3.4254,-3.4825,-3.5293,-3.5349,-3.4504,-3.4357,-3.3697,-3.1715,-3.1017,-3.0467,-2.9659,-2.9934,0.0,-3.1219,-3.2394,-3.3293,-3.3652,-3.5128,-3.5917,-3.5624,0.0,0.0,-3.6872,-3.9074,-3.9606,-3.7991,-4.0359,-4.2029,-4.2837,-4.3277,-4.3497,-4.3497,-4.3497,-4.3497,-4.3497,-4.3497,-4.3497,-4.3497,-4.3497,-4.3497,-4.3516,-4.3901,-4.4782,-4.5938,-4.6305,-4.7223,-4.8306,-4.8306,-4.8306,-4.8306,-3.525,-3.4352,-3.3664,-3.4233,-3.3245,-3.2392,-3.2497,-3.1958,-3.1482,-3.1482,-3.1482,-3.1437,-3.139,-3.1422,-3.1437,-3.139,-3.0283,-2.934,-2.8786,-2.8008,-2.7625,-2.7625,-2.8091,-2.8415,-2.8511,-2.8963,-2.8733,-2.7789,-2.7182,-2.681,-2.6691,-2.6691,-2.6691,-2.6691,-2.6691,-2.6691,-2.6708,-2.6826,-2.7232,-2.7806,-2.7908,-2.8399,-2.8943,-2.8247,-2.7994,-2.7909,-2.7266,-2.7046,-2.7148,-2.7909,-2.8127,-2.8381,-2.9837,-2.9837,-2.9567,-3.0818,-3.119,-3.119,-3.119,-3.1449,-3.1825,-3.2282,-3.2197,-3.237,-3.3942,-3.4434,-3.4878,-3.5974,-3.6347,-3.6211,-3.5367,-3.5145,-3.4385,-3.2302,-3.1708,-3.1279,-3.0668,0.0,-3.1256,-3.2632,-3.3825,-3.4816,-3.5485,-3.7569,-3.8414,-3.7294,-3.9515,-4.0139,0.0,-4.0818,-4.1662,-4.0304,-4.1699,-4.28,-4.3479,-4.3497,-4.3497,-4.3497,-4.3497,-4.3497,-4.3497,-4.3497,-4.3497,-4.3497,-4.3497,-4.3497,-4.3552,-4.4378,-4.5168,-4.5975,-4.6801,-4.7609,-4.8306,-4.8306,-4.8306,-4.8306,-3.4726,-3.4023,-3.3529,-3.3634,-3.2557,-3.1884,-3.2422,-3.1958,-3.1482,-3.1482,-3.1482,-3.1258,-3.0731,-3.118,-3.13,-3.0717,-2.9998,-2.9535,-2.943,-2.8263,-2.7625,-2.7625,-2.766,-2.8008,-2.8511,-2.8963,-2.8733,-2.7789,-2.7671,-2.7317,-2.6691,-2.6691,-2.6691,-2.6691,-2.6691,-2.6691,-2.6742,-2.7368,-2.7723,-2.784,-2.8535,-2.8873,-2.9011,-2.8839,-2.8805,-2.8789,-2.867,-2.8619,-2.8738,-2.9499,-2.9753,-2.9905,-3.0768,-3.0954,-3.0886,-3.1123,-3.119,-3.119,-3.119,-3.1269,-3.1389,-3.1806,-3.2364,-3.2978,-3.3598,-3.4554,-3.5403,-3.5593,-3.6523,-3.7055,-3.6248,-3.5763,-3.526,-3.4559,-3.3021,-3.1992,-3.2195,0.0,-3.333,-3.3587,-3.6174,-3.7991,-3.812,-3.9093,-4.0175,-4.1295,-4.0561,-4.0524,-4.1497,-4.2029,-4.2194,-4.1937,-4.2818,-4.3369,-4.3497,-4.3497,-4.3497,-4.3497,-4.3497,-4.3497,-4.3497,-4.3497,-4.3497,-4.3497,-4.3497,-4.3497,-4.3552,-4.4378,-4.5168,-4.5975,-4.6801,-4.7609,-4.8306,-4.8306,-4.8306,-4.8306,-3.4532,-3.3948,-3.338,-3.3021,-3.2168,-3.1571,-3.1943,-3.1676,-3.1482,-3.1482,-3.1482,-3.1347,-3.1091,-3.1345,-3.1347,-3.1091,-3.0163,-2.9579,-2.9579,-2.8323,-2.7625,-2.7625,-2.7625,-2.7694,-2.7922,-2.8423,-2.8478,-2.7961,-2.8289,-2.8264,-2.7926,-2.7503,-2.73,-2.7283,-2.6877,-2.6911,-2.7317,-2.7637,-2.8262,-2.9093,-2.9448,-2.982,-3.0125,-2.9736,-2.9583,-2.9533,-2.9127,-2.9011,-2.9093,-2.9854,-3.0108,-3.0243,-3.097,-3.119,-3.119,-3.119,-3.119,-3.119,-3.119,-3.1478,-3.1845,-3.2029,-3.265,-3.3419,-3.4324,-3.5154,-3.5881,-3.6345,-3.7117,-3.7467,-3.6667,-3.5786,-3.5112,-3.5015,-3.3291,0.0,0.0,-3.4229,-3.4945,-3.6285,-3.8157,-3.9515,-3.9955,-4.0726,-4.1313,-4.1644,-4.1772,-4.1956,-4.2286,-4.2708,-4.2947,-4.2947,-4.3296,-4.3497,-4.3497,-4.3497,-4.3497,-4.3497,-4.3497,-4.3718,-4.4158,-4.4158,-4.4378,-4.4764,-4.4323,-4.4158,-4.4213,-4.5021,-4.5571,-4.6012,-4.7278,-4.7976,-4.8306,-4.8306,-4.8306,-4.8306,-3.4277,-3.3724,-3.3066,-3.2392,-3.1869,-3.1482,-3.1482,-3.1482,-3.1482,-3.1482,-3.1482,-3.1482,-3.1482,-3.1482,-3.1482,-3.1482,-3.0342,-2.9579,-2.9579,-2.8323,-2.7625,-2.7625,-2.7625,-2.7618,-2.7643,-2.8117,-2.834,-2.8359,-2.882,-2.9016,-2.9011,-2.8366,-2.8095,-2.8061,-2.7486,-2.7554,-2.8112,-2.8245,-2.9042,-3.0125,-3.0294,-3.0683,-3.114,-3.0581,-3.0362,-3.0277,-2.9702,-2.9499,-2.9583,-3.0159,-3.0362,-3.0446,-3.1021,-3.119,-3.119,-3.119,-3.1309,-3.1444,-3.1444,-3.1985,-3.2544,-3.2544,-3.3102,-3.3922,-3.4909,-3.5737,-3.6544,-3.7122,-3.7664,-3.781,-3.7182,-3.5883,-3.5083,-3.5587,0.0,0.0,0.0,-3.5852,-3.6575,-3.8533,-3.9763,-4.0657,-4.111,-4.2017,-4.2323,-4.1699,-4.28,-4.3222,-4.2598,-4.3149,-4.3497,-4.3497,-4.3497,-4.3497,-4.3497,-4.3497,-4.3497,-4.3497,-4.3681,-4.4103,-4.4727,-4.4892,-4.5333,-4.5865,-4.5259,-4.4984,-4.5039,-4.5847,-4.6177,-4.6324,-4.7737,-4.8306,-4.8306,-4.8306,-4.8306,-4.8306,-3.3493,-3.3036,-3.2377,-3.1719,-3.1511,-3.1482,-3.1482,-3.1482,-3.1482,-3.1482,-3.1482,-3.1482,-3.1482,-3.1482,-3.1482,-3.1482,-3.0342,-2.9579,-2.9579,-2.8323,-2.7625,-2.7625,-2.7625,-2.7879,-2.8401,-2.8434,-2.8706,-2.9123,-2.9164,-2.9126,-2.9011,-2.8924,-2.889,-2.889,-2.8839,-2.8876,-2.8941,-2.9651,-3.0006,-3.0176,-3.0835,-3.114,-3.119,-3.114,-3.1123,-3.1106,-3.1055,-3.1038,-3.1038,-3.1089,-3.1123,-3.1123,-3.1173,-3.119,-3.119,-3.119,-3.1664,-3.2205,-3.2205,-3.2747,-3.3322,-3.3322,-3.3863,-3.4421,-3.4558,-3.6045,-3.7411,-3.748,-3.7895,-3.8252,-3.8182,-3.6558,-3.5791,-3.7412,0.0,0.0,-3.8052,-3.8432,-3.8569,-3.8938,-4.0826,-4.1933,-4.1414,-4.2612,-4.3387,-4.3314,-4.3424,-4.3461,-4.3406,-4.3461,-4.3497,-4.3497,-4.3497,-4.3497,-4.3497,-4.3497,-4.3497,-4.3497,-4.4268,-4.4654,-4.4745,-4.548,-4.5847,-4.5902,-4.5847,-4.581,-4.5865,-4.6691,-4.7021,-4.7113,-4.7976,-4.8306,-4.8306,-4.8306,-4.8306,-4.8306,-3.2747,-3.2892,-3.2916,-3.2258,-3.1809,-3.1482,-3.1482,-3.1482,-3.1482,-3.1482,-3.1482,-3.1482,-3.1482,-3.1482,-3.1482,-3.1482,-3.0687,-3.0163,-3.0163,-2.8936,-2.8008,-2.764,-2.7625,-2.771,-2.7959,-2.8334,-2.8607,-2.8783,-2.9139,-2.9482,-2.9809,-2.8854,-2.8896,-2.9634,-2.8687,-2.8789,-2.9702,-2.9989,-3.0362,-3.0818,-3.1089,-3.119,-3.119,-3.119,-3.119,-3.119,-3.119,-3.119,-3.119,-3.119,-3.119,-3.1275,-3.1732,-3.1867,-3.1952,-3.2425,-3.3085,-3.3643,-3.3643,-3.3863,-3.4083,-3.4083,-3.4996,-3.591,-3.591,-3.709,-3.8104,-3.7815,-3.8121,-3.8475,-3.8475,-3.7232,-3.6784,-3.8561,0.0,-3.6513,-3.8813,-3.9119,-3.9332,-3.9907,-4.1157,-4.2052,-4.2168,-4.2702,-4.3142,-4.3479,-4.3497,-4.3497,-4.3497,-4.3497,-4.3497,-4.3497,-4.3497,-4.3497,-4.3497,-4.3497,-4.3736,-4.425,-4.4562,-4.5241,-4.6214,-4.6507,-4.6929,-4.737,-4.6874,-4.6654,-4.6673,-4.6985,-4.7113,-4.7205,-4.7994,-4.8306,-4.8306,-4.8306,-4.8306,-4.8306,-3.2177,-3.272,-3.2976,-3.2317,-3.1839,-3.1482,-3.1482,-3.1482,-3.1482,-3.1482,-3.1482,-3.1482,-3.1482,-3.1482,-3.1482,-3.1482,-3.0911,-3.0507,-3.0507,-2.9505,-2.8502,-2.7655,-2.7625,-2.7625,-2.7625,-2.7993,-2.8319,-2.8511,-2.8919,-2.9406,-3.0005,-2.9165,-2.9268,-3.013,-2.9272,-2.9465,-3.0446,-3.0446,-3.0734,-3.119,-3.119,-3.119,-3.119,-3.119,-3.119,-3.119,-3.119,-3.119,-3.1241,-3.1461,-3.1546,-3.1664,-3.2408,-3.2645,-3.2831,-3.3812,-3.4455,-3.4945,-3.5436,-3.5571,-3.5504,-3.5267,-3.6011,-3.684,-3.7077,-3.7979,-3.8614,-3.8323,-3.8508,-3.8734,-3.8734,-3.7848,-3.757,-3.8951,-3.7955,-3.7686,-3.9506,-3.9782,-4.0023,-4.0629,-4.1347,-4.1895,-4.2121,-4.248,-4.2864,-4.3214,-4.341,-4.3608,-4.3864,-4.3626,-4.3718,-4.4232,-4.3754,-4.3608,-4.3864,-4.3626,-4.3901,-4.4709,-4.4966,-4.581,-4.7131,-4.737,-4.7792,-4.8269,-4.7737,-4.7498,-4.7498,-4.7498,-4.7498,-4.7535,-4.8086,-4.8306,-4.8306,-4.8306,-4.8306,-4.8306,-3.1933,-3.2291,-3.2302,-3.1601,-3.1482,-3.1482,-3.1482,-3.1482,-3.1482,-3.1482,-3.1482,-3.1482,-3.1482,-3.1482,-3.1482,-3.1482,-3.0911,-3.0507,-3.0507,-2.9924,-2.8996,-2.7685,-2.7625,-2.7625,-2.7625,-2.7625,-2.7894,-2.8511,-2.8511,-2.8779,-2.9406,-2.9978,-3.0293,-3.0351,-3.0918,-3.119,-3.119,-3.119,-3.119,-3.119,-3.119,-3.119,-3.119,-3.119,-3.119,-3.119,-3.1207,-3.1207,-3.1309,-3.2036,-3.229,-3.2425,-3.3186,-3.3423,-3.3711,-3.5199,-3.5639,-3.5977,-3.7499,-3.7905,-3.7719,-3.6975,-3.6789,-3.6992,-3.7736,-3.8481,-3.9005,-3.9005,-3.9005,-3.9005,-3.9005,-3.8413,-3.8078,-3.8553,-3.8624,-3.906,-4.0387,-4.0594,-4.069,-4.0863,-4.1402,-4.1534,-4.0949,-4.1979,-4.2711,-4.2711,-4.3196,-4.3864,-4.4636,-4.3938,-4.4232,-4.5847,-4.4342,-4.3901,-4.4709,-4.3901,-4.3901,-4.4727,-4.5516,-4.6342,-4.715,-4.7957,-4.8306,-4.8306,-4.8306,-4.8306,-4.8306,-4.8306,-4.8306,-4.8306,-4.8306,-4.8306,-4.8306,-4.8306,-4.8306,-4.8306,-3.0508,-3.1117,-3.1701,-3.2124,-3.1839,-3.1482,-3.1482,-3.1482,-3.1482,-3.1482,-3.1482,-3.1482,-3.1482,-3.1482,-3.1482,-3.1482,-3.1287,-3.1016,-3.0537,-3.0328,-2.9849,-2.9011,-2.8532,-2.8293,-2.8293,-2.7814,-2.766,-2.786,-2.786,-2.8189,-2.8764,-2.8416,-2.897,-3.0276,-2.993,-3.0336,-3.119,-3.119,-3.119,-3.119,-3.119,-3.119,-3.119,-3.119,-3.119,-3.1258,-3.1782,-3.1952,-3.207,-3.2814,-3.3068,-3.3203,-3.3931,-3.4912,-3.5859,-3.6299,-3.6806,-3.733,-3.7787,-3.7905,-3.7855,-3.7635,-3.7956,-3.8396,-3.8616,-3.9225,-3.9749,-3.9749,-3.9749,-3.9749,-3.9749,-3.958,-3.946,-3.9623,-3.9654,-3.9788,-4.0185,-4.0268,-4.0257,-4.0351,-4.0514,-4.0672,-4.0856,-4.1223,-4.185,-4.2786,-4.3465,-4.396,-4.4192,-4.4444,-4.475,-4.5261,-4.5205,-4.5296,-4.5535,-4.4745,-4.4745,-4.5553,-4.6361,-4.7168,-4.7957,-4.8196,-4.8306,-4.8306,-4.8306,-4.8306,-4.8306,-4.8306,-4.8306,-4.8306,-4.8306,-4.8306,-4.8306,-4.8306,-4.8035,-4.7715,-2.9361,-3.0375,-3.1275,-3.1588,-3.1545,-3.1482,-3.1482,-3.1482,-3.1482,-3.1482,-3.1482,-3.1482,-3.1482,-3.1482,-3.1482,-3.1482,-3.1482,-3.1302,-3.0941,-3.0911,-3.0746,-3.0372,-2.9714,-2.9116,-2.8607,-2.7919,-2.7625,-2.7625,-2.7625,-2.781,-2.8125,-2.7951,-2.8465,-2.9569,-2.9394,-2.9881,-3.0838,-3.0838,-3.0975,-3.1224,-3.1512,-3.163,-3.1664,-3.1952,-3.207,-3.2138,-3.2577,-3.273,-3.2831,-3.3592,-3.4032,-3.4404,-3.5165,-3.6028,-3.6891,-3.7483,-3.799,-3.8396,-3.8684,-3.8768,-3.8768,-3.8768,-3.8886,-3.9073,-3.936,-3.9766,-4.007,-4.007,-4.007,-4.007,-4.007,-4.007,-4.007,-4.007,-4.007,-4.007,-4.007,-4.007,-4.007,-4.007,-4.007,-4.0254,-4.0528,-4.1073,-4.1917,-4.3262,-4.3756,-4.4145,-4.4445,-4.4832,-4.5168,-4.5566,-4.5781,-4.592,-4.6022,-4.5773,-4.5902,-4.6379,-4.6874,-4.7535,-4.8306,-4.8306,-4.8306,-4.8306,-4.8306,-4.8306,-4.8306,-4.8306,-4.8306,-4.8306,-4.8306,-4.8306,-4.8267,-4.8035,-4.7697,-4.7428,-2.8407,-2.9776,-3.0716,-3.0294,-3.0837,-3.1409,-3.1409,-3.1467,-3.1482,-3.1482,-3.1482,-3.1482,-3.1482,-3.1482,-3.1482,-3.1482,-3.1482,-3.1482,-3.1482,-3.1482,-3.1482,-3.1482,-3.0866,-2.9953,-2.8801,-2.8038,-2.7685,-2.7625,-2.7625,-2.7625,-2.761,-2.814,-2.8463,-2.8511,-2.9088,-2.9673,-3.0208,-3.0293,-3.0651,-3.1263,-3.2002,-3.2324,-3.2459,-3.3136,-3.3406,-3.3406,-3.3474,-3.3508,-3.3609,-3.4336,-3.5098,-3.5859,-3.6552,-3.6874,-3.7246,-3.8599,-3.9039,-3.9225,-3.9901,-4.007,-4.007,-4.007,-3.958,-3.9259,-3.9935,-4.007,-4.007,-4.007,-4.007,-4.007,-4.007,-4.007,-4.007,-4.007,-4.007,-4.0104,-4.0172,-4.0172,-4.0206,-4.0273,-4.0273,-4.0273,-4.0273,-4.1471,-4.2697,-4.3845,-4.4014,-4.4395,-4.51,-4.5071,-4.5444,-4.6283,-4.606,-4.6018,-4.6236,-4.6764,-4.7016,-4.7038,-4.7093,-4.7476,-4.8114,-4.8114,-4.8114,-4.8114,-4.8114,-4.8172,-4.821,-4.821,-4.8267,-4.8306,-4.8249,-4.821,-4.8172,-4.753,-4.7299,-4.7255,-2.7788,-2.8159,-2.8641,-2.9219,-3.0011,-3.0584,-3.0584,-3.1087,-3.1482,-3.1482,-3.1482,-3.1482,-3.1482,-3.1482,-3.1482,-3.1482,-3.1482,-3.1482,-3.1482,-3.1482,-3.1482,-3.1482,-3.0866,-3.0372,-3.0088,-2.8966,-2.8113,-2.7625,-2.7625,-2.7625,-2.7625,-2.771,-2.8042,-2.8511,-2.8654,-2.9042,-2.9629,-3.0123,-3.0707,-3.1406,-3.2025,-3.2645,-3.3186,-3.3339,-3.3406,-3.3491,-3.4049,-3.4252,-3.437,-3.5115,-3.5893,-3.6552,-3.6721,-3.7584,-3.8582,-3.8903,-3.9394,-3.9884,-4.0037,-4.007,-4.007,-4.007,-3.9952,-3.9884,-4.0037,-4.007,-4.007,-4.007,-4.007,-4.007,-4.007,-4.007,-4.007,-4.007,-4.007,-4.029,-4.0882,-4.0967,-4.117,-4.1745,-4.1813,-4.1813,-4.1813,-4.2596,-4.3248,-4.3543,-4.4107,-4.4534,-4.4741,-4.5146,-4.5484,-4.5681,-4.6094,-4.6328,-4.6369,-4.6506,-4.6488,-4.6413,-4.7029,-4.7162,-4.6801,-4.6801,-4.6801,-4.6801,-4.6801,-4.7088,-4.7614,-4.7614,-4.7897,-4.8249,-4.7797,-4.7614,-4.753,-4.6864,-4.6305,-4.602,-2.704,-2.7802,-2.8427,-2.8939,-3.0011,-3.0896,-3.0896,-3.1219,-3.1482,-3.1482,-3.1482,-3.1482,-3.1482,-3.1482,-3.1482,-3.1482,-3.1482,-3.1482,-3.1482,-3.1482,-3.1482,-3.1482,-3.118,-3.0836,-3.0507,-2.9849,-2.9041,-2.8068,-2.779,-2.7625,-2.7625,-2.7625,-2.776,-2.8057,-2.8393,-2.8861,-2.947,-3.0131,-3.0992,-3.1924,-3.258,-3.3302,-3.3964,-3.432,-3.4455,-3.4506,-3.4895,-3.503,-3.5148,-3.591,-3.6451,-3.6907,-3.7618,-3.8362,-3.9056,-3.9411,-3.9783,-4.007,-4.007,-4.007,-4.007,-4.007,-4.007,-4.007,-4.007,-4.007,-4.007,-4.007,-4.007,-4.0189,-4.0544,-4.0612,-4.073,-4.1068,-4.1136,-4.1271,-4.166,-4.1728,-4.1863,-4.2236,-4.2286,-4.2439,-4.2794,-4.3183,-4.3572,-4.3944,-4.435,-4.4739,-4.5094,-4.5385,-4.5545,-4.5566,-4.6108,-4.624,-4.5965,-4.6628,-4.6802,-4.6395,-4.6756,-4.6756,-4.6383,-4.6383,-4.6383,-4.6383,-4.6383,-4.6618,-4.691,-4.691,-4.7088,-4.7367,-4.7044,-4.691,-4.6864,-4.6209,-4.5783,-4.5511,-2.6533,-2.7736,-2.8812,-2.8812,-3.0147,-3.1278,-3.1278,-3.1409,-3.1482,-3.1482,-3.1482,-3.1482,-3.1482,-3.1482,-3.1482,-3.1482,-3.1482,-3.1482,-3.1482,-3.1482,-3.1482,-3.1482,-3.1482,-3.127,-3.0687,-3.0567,-2.9879,-2.8607,-2.8143,-2.791,-2.779,-2.779,-2.785,-2.7934,-2.8397,-2.8949,-2.955,-3.0207,-3.1191,-3.2329,-3.3057,-3.3743,-3.4415,-3.5127,-3.5424,-3.5453,-3.5577,-3.5707,-3.591,-3.6569,-3.6958,-3.7381,-3.8599,-3.9089,-3.9292,-3.9901,-4.007,-4.007,-4.007,-4.007,-4.007,-4.007,-4.007,-4.0104,-4.024,-4.0273,-4.0273,-4.0273,-4.0375,-4.0646,-4.1271,-4.139,-4.1593,-4.2202,-4.2286,-4.2337,-4.2472,-4.2489,-4.254,-4.2658,-4.2675,-4.2929,-4.3555,-4.3623,-4.3876,-4.4536,-4.4705,-4.5043,-4.5669,-4.5703,-4.5757,-4.5872,-4.6274,-4.6217,-4.5752,-4.688,-4.7177,-4.6613,-4.6514,-4.6449,-4.6449,-4.6449,-4.6379,-4.6305,-4.6305,-4.6266,-4.624,-4.624,-4.6288,-4.6383,-4.6288,-4.624,-4.6192,-4.5545,-4.5459,-4.5474,-2.6533,-2.7229,-2.7855,-2.7855,-2.9317,-3.045,-3.045,-3.1029,-3.1482,-3.1482,-3.1482,-3.1482,-3.1482,-3.1482,-3.1482,-3.1482,-3.1482,-3.1482,-3.1482,-3.1482,-3.1482,-3.1482,-3.1482,-3.1437,-3.1405,-3.0806,-2.9879,-2.8607,-2.9071,-2.9011,-2.8457,-2.8457,-2.8771,-2.9295,-2.8816,-2.8959,-2.9659,-3.0216,-3.0985,-3.1737,-3.2376,-3.306,-3.3808,-3.4495,-3.4736,-3.4783,-3.5407,-3.6045,-3.6637,-3.6738,-3.7635,-3.8734,-3.8937,-3.9428,-3.9952,-4.0054,-4.007,-4.007,-4.007,-4.007,-4.007,-4.007,-4.007,-4.0257,-4.0899,-4.1052,-4.1052,-4.1052,-4.1559,-4.2016,-4.2117,-4.2151,-4.2168,-4.2269,-4.2286,-4.2523,-4.3166,-4.3267,-4.3521,-4.4198,-4.4265,-4.4316,-4.4418,-4.4418,-4.4468,-4.457,-4.5179,-4.5602,-4.5703,-4.6309,-4.6632,-4.6633,-4.669,-4.668,-4.6639,-4.6782,-4.6833,-4.6792,-4.6731,-4.6737,-4.6737,-4.6737,-4.638,-4.5784,-4.5784,-4.5743,-4.5648,-4.5648,-4.5915,-4.6336,-4.5833,-4.5648,-4.5545,-4.4961,-4.5145,-4.5648,-2.6533,-2.7162,-2.7855,-2.8363,-2.9442,-3.045,-3.0896,-3.1278,-3.1482,-3.1482,-3.1482,-3.1482,-3.1482,-3.1482,-3.1482,-3.1482,-3.1482,-3.1482,-3.1482,-3.1482,-3.1482,-3.1482,-3.1482,-3.1482,-3.1482,-3.124,-3.0612,-2.9654,-2.9609,-2.943,-2.9146,-2.9146,-2.931,-2.9579,-2.9639,-2.9834,-3.0118,-3.0809,-3.1496,-3.2191,-3.2457,-3.2982,-3.3633,-3.3937,-3.4284,-3.4688,-3.5362,-3.6129,-3.684,-3.7263,-3.8108,-3.9056,-3.9462,-3.9817,-4.007,-4.007,-4.007,-4.007,-4.007,-4.007,-4.007,-4.007,-4.0392,-4.0798,-4.1136,-4.1847,-4.232,-4.1897,-4.2066,-4.2422,-4.2844,-4.2912,-4.3064,-4.3504,-4.3572,-4.369,-4.4012,-4.4062,-4.4198,-4.4536,-4.4587,-4.4587,-4.4587,-4.4587,-4.4587,-4.4587,-4.528,-4.5889,-4.6295,-4.6616,-4.6989,-4.7411,-4.7005,-4.6786,-4.6786,-4.7208,-4.7411,-4.7428,-4.7834,-4.7597,-4.6786,-4.6786,-4.6616,-4.6295,-4.5889,-4.5654,-4.5597,-4.5186,-4.5125,-4.5372,-4.5089,-4.4998,-4.4961,-4.472,-4.479,-4.5128]}]]